<?xml version="1.0" encoding="UTF-8" standalone="no" ?>
<gpx xmlns="http://www.topografix.com/GPX/1/1" creator="www.cicloide.com" version="1.1" xmlns:xsi="http://www.w3.org/2001/XMLSchema-instance" xsi:schemaLocation="http://www.topografix.com/GPX/1/1 http://www.topografix.com/GPX/1/1/gpx.xsd">
  <trk>
    <name>www.cicloide.com 35497</name>
    <desc>www.cicloide.com 35497</desc>
    <trkseg>
      <trkpt lat="41.605781670" lon="2.540361370">
        <ele>108.29</ele>
        <time>2015-12-26T06:05:09Z</time>
      </trkpt>
      <trkpt lat="41.605789300" lon="2.540357260">
        <ele>108.29</ele>
        <time>2015-12-26T06:05:23Z</time>
      </trkpt>
      <trkpt lat="41.605792320" lon="2.540362210">
        <ele>108.29</ele>
        <time>2015-12-26T06:05:45Z</time>
      </trkpt>
      <trkpt lat="41.605793410" lon="2.540404450">
        <ele>108.29</ele>
        <time>2015-12-26T06:06:10Z</time>
      </trkpt>
      <trkpt lat="41.605800950" lon="2.540411070">
        <ele>108.29</ele>
        <time>2015-12-26T06:06:14Z</time>
      </trkpt>
      <trkpt lat="41.605904640" lon="2.540400680">
        <ele>108.29</ele>
        <time>2015-12-26T06:06:21Z</time>
      </trkpt>
      <trkpt lat="41.605920650" lon="2.540397830">
        <ele>108.29</ele>
        <time>2015-12-26T06:06:22Z</time>
      </trkpt>
      <trkpt lat="41.606149810" lon="2.540391960">
        <ele>107.81</ele>
        <time>2015-12-26T06:06:30Z</time>
      </trkpt>
      <trkpt lat="41.606359440" lon="2.540493050">
        <ele>107.81</ele>
        <time>2015-12-26T06:06:39Z</time>
      </trkpt>
      <trkpt lat="41.606590700" lon="2.540618440">
        <ele>109.73</ele>
        <time>2015-12-26T06:06:49Z</time>
      </trkpt>
      <trkpt lat="41.606776190" lon="2.540693710">
        <ele>110.21</ele>
        <time>2015-12-26T06:06:58Z</time>
      </trkpt>
      <trkpt lat="41.606988750" lon="2.540767810">
        <ele>110.69</ele>
        <time>2015-12-26T06:07:08Z</time>
      </trkpt>
      <trkpt lat="41.607189580" lon="2.540825730">
        <ele>111.65</ele>
        <time>2015-12-26T06:07:17Z</time>
      </trkpt>
      <trkpt lat="41.607399300" lon="2.540868050">
        <ele>112.61</ele>
        <time>2015-12-26T06:07:26Z</time>
      </trkpt>
      <trkpt lat="41.607536760" lon="2.540873250">
        <ele>112.61</ele>
        <time>2015-12-26T06:07:32Z</time>
      </trkpt>
      <trkpt lat="41.607698870" lon="2.540869810">
        <ele>113.09</ele>
        <time>2015-12-26T06:07:39Z</time>
      </trkpt>
      <trkpt lat="41.607868100" lon="2.540837380">
        <ele>113.57</ele>
        <time>2015-12-26T06:07:46Z</time>
      </trkpt>
      <trkpt lat="41.607891650" lon="2.540827400">
        <ele>113.57</ele>
        <time>2015-12-26T06:07:47Z</time>
      </trkpt>
      <trkpt lat="41.608102460" lon="2.540819190">
        <ele>114.05</ele>
        <time>2015-12-26T06:07:55Z</time>
      </trkpt>
      <trkpt lat="41.608259950" lon="2.540749870">
        <ele>115.01</ele>
        <time>2015-12-26T06:08:01Z</time>
      </trkpt>
      <trkpt lat="41.608339910" lon="2.540751960">
        <ele>115.50</ele>
        <time>2015-12-26T06:08:05Z</time>
      </trkpt>
      <trkpt lat="41.608509730" lon="2.540716340">
        <ele>115.50</ele>
        <time>2015-12-26T06:08:13Z</time>
      </trkpt>
      <trkpt lat="41.608764630" lon="2.540649870">
        <ele>116.46</ele>
        <time>2015-12-26T06:08:23Z</time>
      </trkpt>
      <trkpt lat="41.608924300" lon="2.540596230">
        <ele>116.94</ele>
        <time>2015-12-26T06:08:29Z</time>
      </trkpt>
      <trkpt lat="41.609181880" lon="2.540562870">
        <ele>117.90</ele>
        <time>2015-12-26T06:08:39Z</time>
      </trkpt>
      <trkpt lat="41.609358480" lon="2.540548120">
        <ele>118.38</ele>
        <time>2015-12-26T06:08:46Z</time>
      </trkpt>
      <trkpt lat="41.609582870" lon="2.540552560">
        <ele>119.82</ele>
        <time>2015-12-26T06:08:55Z</time>
      </trkpt>
      <trkpt lat="41.609722430" lon="2.540545850">
        <ele>120.30</ele>
        <time>2015-12-26T06:09:03Z</time>
      </trkpt>
      <trkpt lat="41.609751010" lon="2.540535630">
        <ele>120.30</ele>
        <time>2015-12-26T06:09:12Z</time>
      </trkpt>
      <trkpt lat="41.609773560" lon="2.540519280">
        <ele>120.30</ele>
        <time>2015-12-26T06:09:21Z</time>
      </trkpt>
      <trkpt lat="41.609788730" lon="2.540513580">
        <ele>120.30</ele>
        <time>2015-12-26T06:09:23Z</time>
      </trkpt>
      <trkpt lat="41.609942280" lon="2.540479300">
        <ele>121.26</ele>
        <time>2015-12-26T06:09:32Z</time>
      </trkpt>
      <trkpt lat="41.609981180" lon="2.540453070">
        <ele>121.26</ele>
        <time>2015-12-26T06:09:34Z</time>
      </trkpt>
      <trkpt lat="41.610118890" lon="2.540374110">
        <ele>122.22</ele>
        <time>2015-12-26T06:09:41Z</time>
      </trkpt>
      <trkpt lat="41.610331620" lon="2.540247630">
        <ele>123.19</ele>
        <time>2015-12-26T06:09:50Z</time>
      </trkpt>
      <trkpt lat="41.610552820" lon="2.540132460">
        <ele>123.67</ele>
        <time>2015-12-26T06:09:59Z</time>
      </trkpt>
      <trkpt lat="41.610806880" lon="2.539988460">
        <ele>124.63</ele>
        <time>2015-12-26T06:10:10Z</time>
      </trkpt>
      <trkpt lat="41.611004440" lon="2.539903460">
        <ele>125.59</ele>
        <time>2015-12-26T06:10:18Z</time>
      </trkpt>
      <trkpt lat="41.611179540" lon="2.539796090">
        <ele>126.07</ele>
        <time>2015-12-26T06:10:25Z</time>
      </trkpt>
      <trkpt lat="41.611345500" lon="2.539694420">
        <ele>127.03</ele>
        <time>2015-12-26T06:10:32Z</time>
      </trkpt>
      <trkpt lat="41.611508440" lon="2.539578580">
        <ele>127.99</ele>
        <time>2015-12-26T06:10:39Z</time>
      </trkpt>
      <trkpt lat="41.611692010" lon="2.539389650">
        <ele>128.95</ele>
        <time>2015-12-26T06:10:47Z</time>
      </trkpt>
      <trkpt lat="41.611870710" lon="2.539171220">
        <ele>129.43</ele>
        <time>2015-12-26T06:10:55Z</time>
      </trkpt>
      <trkpt lat="41.611997020" lon="2.538989250">
        <ele>130.40</ele>
        <time>2015-12-26T06:11:02Z</time>
      </trkpt>
      <trkpt lat="41.612168520" lon="2.538761600">
        <ele>131.36</ele>
        <time>2015-12-26T06:11:11Z</time>
      </trkpt>
      <trkpt lat="41.612188550" lon="2.538722620">
        <ele>131.84</ele>
        <time>2015-12-26T06:11:13Z</time>
      </trkpt>
      <trkpt lat="41.612228200" lon="2.538652550">
        <ele>131.84</ele>
        <time>2015-12-26T06:11:17Z</time>
      </trkpt>
      <trkpt lat="41.612317880" lon="2.538452980">
        <ele>132.32</ele>
        <time>2015-12-26T06:11:25Z</time>
      </trkpt>
      <trkpt lat="41.612503370" lon="2.538204370">
        <ele>133.76</ele>
        <time>2015-12-26T06:11:35Z</time>
      </trkpt>
      <trkpt lat="41.612641170" lon="2.538037820">
        <ele>134.24</ele>
        <time>2015-12-26T06:11:43Z</time>
      </trkpt>
      <trkpt lat="41.612734970" lon="2.537908740">
        <ele>134.72</ele>
        <time>2015-12-26T06:11:49Z</time>
      </trkpt>
      <trkpt lat="41.612889860" lon="2.537730960">
        <ele>135.68</ele>
        <time>2015-12-26T06:11:57Z</time>
      </trkpt>
      <trkpt lat="41.613072420" lon="2.537515800">
        <ele>136.64</ele>
        <time>2015-12-26T06:12:06Z</time>
      </trkpt>
      <trkpt lat="41.613233020" lon="2.537325270">
        <ele>137.61</ele>
        <time>2015-12-26T06:12:14Z</time>
      </trkpt>
      <trkpt lat="41.613383140" lon="2.537137690">
        <ele>138.57</ele>
        <time>2015-12-26T06:12:22Z</time>
      </trkpt>
      <trkpt lat="41.613540300" lon="2.536930240">
        <ele>139.05</ele>
        <time>2015-12-26T06:12:31Z</time>
      </trkpt>
      <trkpt lat="41.613651950" lon="2.536755560">
        <ele>139.53</ele>
        <time>2015-12-26T06:12:38Z</time>
      </trkpt>
      <trkpt lat="41.613698050" lon="2.536631000">
        <ele>139.53</ele>
        <time>2015-12-26T06:12:43Z</time>
      </trkpt>
      <trkpt lat="41.613693690" lon="2.536485240">
        <ele>140.97</ele>
        <time>2015-12-26T06:12:48Z</time>
      </trkpt>
      <trkpt lat="41.613716400" lon="2.536426060">
        <ele>140.49</ele>
        <time>2015-12-26T06:12:50Z</time>
      </trkpt>
      <trkpt lat="41.613839030" lon="2.536142590">
        <ele>141.93</ele>
        <time>2015-12-26T06:12:59Z</time>
      </trkpt>
      <trkpt lat="41.613931480" lon="2.535914770">
        <ele>142.41</ele>
        <time>2015-12-26T06:13:06Z</time>
      </trkpt>
      <trkpt lat="41.614026200" lon="2.535640260">
        <ele>143.37</ele>
        <time>2015-12-26T06:13:14Z</time>
      </trkpt>
      <trkpt lat="41.614118400" lon="2.535324010">
        <ele>144.34</ele>
        <time>2015-12-26T06:13:23Z</time>
      </trkpt>
      <trkpt lat="41.614210600" lon="2.535034000">
        <ele>145.30</ele>
        <time>2015-12-26T06:13:32Z</time>
      </trkpt>
      <trkpt lat="41.614303050" lon="2.534709200">
        <ele>146.74</ele>
        <time>2015-12-26T06:13:42Z</time>
      </trkpt>
      <trkpt lat="41.614382010" lon="2.534509630">
        <ele>147.70</ele>
        <time>2015-12-26T06:13:49Z</time>
      </trkpt>
      <trkpt lat="41.614479740" lon="2.534155830">
        <ele>149.14</ele>
        <time>2015-12-26T06:14:00Z</time>
      </trkpt>
      <trkpt lat="41.614551320" lon="2.533888530">
        <ele>149.62</ele>
        <time>2015-12-26T06:14:08Z</time>
      </trkpt>
      <trkpt lat="41.614628440" lon="2.533641680">
        <ele>150.58</ele>
        <time>2015-12-26T06:14:15Z</time>
      </trkpt>
      <trkpt lat="41.614730280" lon="2.533347310">
        <ele>151.54</ele>
        <time>2015-12-26T06:14:23Z</time>
      </trkpt>
      <trkpt lat="41.614818120" lon="2.533017650">
        <ele>152.51</ele>
        <time>2015-12-26T06:14:32Z</time>
      </trkpt>
      <trkpt lat="41.614909820" lon="2.532696620">
        <ele>152.99</ele>
        <time>2015-12-26T06:14:41Z</time>
      </trkpt>
      <trkpt lat="41.614995980" lon="2.532393610">
        <ele>153.95</ele>
        <time>2015-12-26T06:14:49Z</time>
      </trkpt>
      <trkpt lat="41.615068070" lon="2.532064460">
        <ele>154.91</ele>
        <time>2015-12-26T06:14:57Z</time>
      </trkpt>
      <trkpt lat="41.615115430" lon="2.531654000">
        <ele>156.35</ele>
        <time>2015-12-26T06:15:07Z</time>
      </trkpt>
      <trkpt lat="41.615134200" lon="2.531304640">
        <ele>156.83</ele>
        <time>2015-12-26T06:15:16Z</time>
      </trkpt>
      <trkpt lat="41.615161530" lon="2.530981430">
        <ele>158.27</ele>
        <time>2015-12-26T06:15:24Z</time>
      </trkpt>
      <trkpt lat="41.615190190" lon="2.530660990">
        <ele>159.24</ele>
        <time>2015-12-26T06:15:32Z</time>
      </trkpt>
      <trkpt lat="41.615202090" lon="2.530304760">
        <ele>159.72</ele>
        <time>2015-12-26T06:15:41Z</time>
      </trkpt>
      <trkpt lat="41.615204440" lon="2.529959930">
        <ele>161.16</ele>
        <time>2015-12-26T06:15:50Z</time>
      </trkpt>
      <trkpt lat="41.615212820" lon="2.529517110">
        <ele>162.60</ele>
        <time>2015-12-26T06:16:01Z</time>
      </trkpt>
      <trkpt lat="41.615220280" lon="2.529136990">
        <ele>164.52</ele>
        <time>2015-12-26T06:16:11Z</time>
      </trkpt>
      <trkpt lat="41.615264120" lon="2.528814460">
        <ele>165.00</ele>
        <time>2015-12-26T06:16:19Z</time>
      </trkpt>
      <trkpt lat="41.615327240" lon="2.528479010">
        <ele>165.00</ele>
        <time>2015-12-26T06:16:28Z</time>
      </trkpt>
      <trkpt lat="41.615401670" lon="2.528081710">
        <ele>166.93</ele>
        <time>2015-12-26T06:16:39Z</time>
      </trkpt>
      <trkpt lat="41.615473250" lon="2.527719360">
        <ele>167.41</ele>
        <time>2015-12-26T06:16:48Z</time>
      </trkpt>
      <trkpt lat="41.615528740" lon="2.527422730">
        <ele>168.37</ele>
        <time>2015-12-26T06:16:56Z</time>
      </trkpt>
      <trkpt lat="41.615597390" lon="2.527019390">
        <ele>170.29</ele>
        <time>2015-12-26T06:17:07Z</time>
      </trkpt>
      <trkpt lat="41.615615320" lon="2.526714040">
        <ele>172.21</ele>
        <time>2015-12-26T06:17:15Z</time>
      </trkpt>
      <trkpt lat="41.615595630" lon="2.526497530">
        <ele>172.69</ele>
        <time>2015-12-26T06:17:21Z</time>
      </trkpt>
      <trkpt lat="41.615564190" lon="2.526229060">
        <ele>173.66</ele>
        <time>2015-12-26T06:17:28Z</time>
      </trkpt>
      <trkpt lat="41.615545080" lon="2.525926220">
        <ele>174.14</ele>
        <time>2015-12-26T06:17:36Z</time>
      </trkpt>
      <trkpt lat="41.615540980" lon="2.525753890">
        <ele>174.62</ele>
        <time>2015-12-26T06:17:40Z</time>
      </trkpt>
      <trkpt lat="41.615544830" lon="2.525603180">
        <ele>175.10</ele>
        <time>2015-12-26T06:17:44Z</time>
      </trkpt>
      <trkpt lat="41.615544240" lon="2.525210660">
        <ele>176.54</ele>
        <time>2015-12-26T06:17:54Z</time>
      </trkpt>
      <trkpt lat="41.615566710" lon="2.524876720">
        <ele>177.50</ele>
        <time>2015-12-26T06:18:03Z</time>
      </trkpt>
      <trkpt lat="41.615594700" lon="2.524583690">
        <ele>178.94</ele>
        <time>2015-12-26T06:18:11Z</time>
      </trkpt>
      <trkpt lat="41.615618000" lon="2.524336850">
        <ele>179.90</ele>
        <time>2015-12-26T06:18:18Z</time>
      </trkpt>
      <trkpt lat="41.615645500" lon="2.523993690">
        <ele>181.83</ele>
        <time>2015-12-26T06:18:28Z</time>
      </trkpt>
      <trkpt lat="41.615649860" lon="2.523730330">
        <ele>183.27</ele>
        <time>2015-12-26T06:18:35Z</time>
      </trkpt>
      <trkpt lat="41.615677770" lon="2.523512570">
        <ele>183.75</ele>
        <time>2015-12-26T06:18:41Z</time>
      </trkpt>
      <trkpt lat="41.615720770" lon="2.523216770">
        <ele>184.23</ele>
        <time>2015-12-26T06:18:49Z</time>
      </trkpt>
      <trkpt lat="41.615753370" lon="2.522931700">
        <ele>185.19</ele>
        <time>2015-12-26T06:18:57Z</time>
      </trkpt>
      <trkpt lat="41.615803160" lon="2.522642610">
        <ele>186.15</ele>
        <time>2015-12-26T06:19:05Z</time>
      </trkpt>
      <trkpt lat="41.615842050" lon="2.522345560">
        <ele>188.08</ele>
        <time>2015-12-26T06:19:13Z</time>
      </trkpt>
      <trkpt lat="41.615876080" lon="2.522053780">
        <ele>189.04</ele>
        <time>2015-12-26T06:19:21Z</time>
      </trkpt>
      <trkpt lat="41.615905000" lon="2.521762430">
        <ele>190.00</ele>
        <time>2015-12-26T06:19:29Z</time>
      </trkpt>
      <trkpt lat="41.615967450" lon="2.521403010">
        <ele>190.48</ele>
        <time>2015-12-26T06:19:37Z</time>
      </trkpt>
      <trkpt lat="41.616011620" lon="2.521091710">
        <ele>191.44</ele>
        <time>2015-12-26T06:19:45Z</time>
      </trkpt>
      <trkpt lat="41.616061910" lon="2.520847380">
        <ele>191.92</ele>
        <time>2015-12-26T06:19:52Z</time>
      </trkpt>
      <trkpt lat="41.616137850" lon="2.520572030">
        <ele>192.88</ele>
        <time>2015-12-26T06:20:00Z</time>
      </trkpt>
      <trkpt lat="41.616223430" lon="2.520327610">
        <ele>192.88</ele>
        <time>2015-12-26T06:20:07Z</time>
      </trkpt>
      <trkpt lat="41.616355280" lon="2.520090320">
        <ele>193.36</ele>
        <time>2015-12-26T06:20:14Z</time>
      </trkpt>
      <trkpt lat="41.616433900" lon="2.520012120">
        <ele>191.92</ele>
        <time>2015-12-26T06:20:16Z</time>
      </trkpt>
      <trkpt lat="41.616656610" lon="2.519866520">
        <ele>193.36</ele>
        <time>2015-12-26T06:20:23Z</time>
      </trkpt>
      <trkpt lat="41.616687120" lon="2.519842970">
        <ele>193.36</ele>
        <time>2015-12-26T06:20:24Z</time>
      </trkpt>
      <trkpt lat="41.616879150" lon="2.519768460">
        <ele>194.80</ele>
        <time>2015-12-26T06:20:31Z</time>
      </trkpt>
      <trkpt lat="41.617081230" lon="2.519724120">
        <ele>195.77</ele>
        <time>2015-12-26T06:20:38Z</time>
      </trkpt>
      <trkpt lat="41.617351970" lon="2.519667960">
        <ele>196.73</ele>
        <time>2015-12-26T06:20:47Z</time>
      </trkpt>
      <trkpt lat="41.617580800" lon="2.519637280">
        <ele>197.69</ele>
        <time>2015-12-26T06:20:55Z</time>
      </trkpt>
      <trkpt lat="41.617750280" lon="2.519620430">
        <ele>198.65</ele>
        <time>2015-12-26T06:21:02Z</time>
      </trkpt>
      <trkpt lat="41.617767380" lon="2.519616830">
        <ele>198.65</ele>
        <time>2015-12-26T06:21:03Z</time>
      </trkpt>
      <trkpt lat="41.617802750" lon="2.519619680">
        <ele>199.13</ele>
        <time>2015-12-26T06:21:09Z</time>
      </trkpt>
      <trkpt lat="41.617804170" lon="2.519654550">
        <ele>200.09</ele>
        <time>2015-12-26T06:21:15Z</time>
      </trkpt>
      <trkpt lat="41.617817080" lon="2.519686480">
        <ele>200.09</ele>
        <time>2015-12-26T06:21:19Z</time>
      </trkpt>
      <trkpt lat="41.617884140" lon="2.519761160">
        <ele>200.09</ele>
        <time>2015-12-26T06:21:27Z</time>
      </trkpt>
      <trkpt lat="41.617924790" lon="2.519858390">
        <ele>201.53</ele>
        <time>2015-12-26T06:21:33Z</time>
      </trkpt>
      <trkpt lat="41.617925040" lon="2.519878010">
        <ele>201.53</ele>
        <time>2015-12-26T06:21:34Z</time>
      </trkpt>
      <trkpt lat="41.617869890" lon="2.520008010">
        <ele>202.49</ele>
        <time>2015-12-26T06:21:40Z</time>
      </trkpt>
      <trkpt lat="41.617819010" lon="2.520062490">
        <ele>203.46</ele>
        <time>2015-12-26T06:21:44Z</time>
      </trkpt>
      <trkpt lat="41.617711300" lon="2.520195260">
        <ele>205.38</ele>
        <time>2015-12-26T06:21:53Z</time>
      </trkpt>
      <trkpt lat="41.617710800" lon="2.520355270">
        <ele>206.82</ele>
        <time>2015-12-26T06:22:00Z</time>
      </trkpt>
      <trkpt lat="41.617675510" lon="2.520550570">
        <ele>208.26</ele>
        <time>2015-12-26T06:22:08Z</time>
      </trkpt>
      <trkpt lat="41.617667550" lon="2.520728690">
        <ele>208.74</ele>
        <time>2015-12-26T06:22:15Z</time>
      </trkpt>
      <trkpt lat="41.617717170" lon="2.520969250">
        <ele>209.70</ele>
        <time>2015-12-26T06:22:25Z</time>
      </trkpt>
      <trkpt lat="41.617775260" lon="2.521149960">
        <ele>211.15</ele>
        <time>2015-12-26T06:22:33Z</time>
      </trkpt>
      <trkpt lat="41.617836610" lon="2.521424720">
        <ele>212.59</ele>
        <time>2015-12-26T06:22:44Z</time>
      </trkpt>
      <trkpt lat="41.617880870" lon="2.521575930">
        <ele>213.55</ele>
        <time>2015-12-26T06:22:51Z</time>
      </trkpt>
      <trkpt lat="41.617912130" lon="2.521612060">
        <ele>214.51</ele>
        <time>2015-12-26T06:22:53Z</time>
      </trkpt>
      <trkpt lat="41.617993690" lon="2.521565540">
        <ele>215.95</ele>
        <time>2015-12-26T06:22:59Z</time>
      </trkpt>
      <trkpt lat="41.618071970" lon="2.521390350">
        <ele>218.84</ele>
        <time>2015-12-26T06:23:09Z</time>
      </trkpt>
      <trkpt lat="41.618157470" lon="2.521243670">
        <ele>220.28</ele>
        <time>2015-12-26T06:23:18Z</time>
      </trkpt>
      <trkpt lat="41.618227960" lon="2.521093970">
        <ele>221.72</ele>
        <time>2015-12-26T06:23:26Z</time>
      </trkpt>
      <trkpt lat="41.618276070" lon="2.520959780">
        <ele>223.64</ele>
        <time>2015-12-26T06:23:33Z</time>
      </trkpt>
      <trkpt lat="41.618296110" lon="2.520873950">
        <ele>224.61</ele>
        <time>2015-12-26T06:23:37Z</time>
      </trkpt>
      <trkpt lat="41.618370200" lon="2.520682920">
        <ele>227.01</ele>
        <time>2015-12-26T06:23:47Z</time>
      </trkpt>
      <trkpt lat="41.618502390" lon="2.520605560">
        <ele>228.45</ele>
        <time>2015-12-26T06:23:57Z</time>
      </trkpt>
      <trkpt lat="41.618660720" lon="2.520570020">
        <ele>229.89</ele>
        <time>2015-12-26T06:24:07Z</time>
      </trkpt>
      <trkpt lat="41.618783770" lon="2.520548640">
        <ele>231.33</ele>
        <time>2015-12-26T06:24:15Z</time>
      </trkpt>
      <trkpt lat="41.618902200" lon="2.520483270">
        <ele>232.78</ele>
        <time>2015-12-26T06:24:24Z</time>
      </trkpt>
      <trkpt lat="41.618994820" lon="2.520440940">
        <ele>234.70</ele>
        <time>2015-12-26T06:24:31Z</time>
      </trkpt>
      <trkpt lat="41.619139750" lon="2.520353090">
        <ele>236.62</ele>
        <time>2015-12-26T06:24:42Z</time>
      </trkpt>
      <trkpt lat="41.619252150" lon="2.520314120">
        <ele>238.06</ele>
        <time>2015-12-26T06:24:50Z</time>
      </trkpt>
      <trkpt lat="41.619341080" lon="2.520296180">
        <ele>239.51</ele>
        <time>2015-12-26T06:24:56Z</time>
      </trkpt>
      <trkpt lat="41.619488600" lon="2.520352930">
        <ele>241.91</ele>
        <time>2015-12-26T06:25:08Z</time>
      </trkpt>
      <trkpt lat="41.619619360" lon="2.520339350">
        <ele>243.83</ele>
        <time>2015-12-26T06:25:17Z</time>
      </trkpt>
      <trkpt lat="41.619715830" lon="2.520304730">
        <ele>245.75</ele>
        <time>2015-12-26T06:25:24Z</time>
      </trkpt>
      <trkpt lat="41.619841560" lon="2.520269950">
        <ele>247.68</ele>
        <time>2015-12-26T06:25:34Z</time>
      </trkpt>
      <trkpt lat="41.619974750" lon="2.520196860">
        <ele>250.08</ele>
        <time>2015-12-26T06:25:44Z</time>
      </trkpt>
      <trkpt lat="41.620129480" lon="2.520126620">
        <ele>252.00</ele>
        <time>2015-12-26T06:25:54Z</time>
      </trkpt>
      <trkpt lat="41.620265850" lon="2.520131310">
        <ele>253.93</ele>
        <time>2015-12-26T06:26:03Z</time>
      </trkpt>
      <trkpt lat="41.620368360" lon="2.520150340">
        <ele>254.89</ele>
        <time>2015-12-26T06:26:10Z</time>
      </trkpt>
      <trkpt lat="41.620505070" lon="2.520174480">
        <ele>256.33</ele>
        <time>2015-12-26T06:26:19Z</time>
      </trkpt>
      <trkpt lat="41.620653430" lon="2.520186290">
        <ele>257.77</ele>
        <time>2015-12-26T06:26:29Z</time>
      </trkpt>
      <trkpt lat="41.620789560" lon="2.520198700">
        <ele>259.69</ele>
        <time>2015-12-26T06:26:38Z</time>
      </trkpt>
      <trkpt lat="41.620899860" lon="2.520219650">
        <ele>261.62</ele>
        <time>2015-12-26T06:26:46Z</time>
      </trkpt>
      <trkpt lat="41.621026010" lon="2.520259550">
        <ele>262.58</ele>
        <time>2015-12-26T06:26:54Z</time>
      </trkpt>
      <trkpt lat="41.621129780" lon="2.520284700">
        <ele>263.54</ele>
        <time>2015-12-26T06:27:02Z</time>
      </trkpt>
      <trkpt lat="41.621247290" lon="2.520296680">
        <ele>265.46</ele>
        <time>2015-12-26T06:27:10Z</time>
      </trkpt>
      <trkpt lat="41.621395730" lon="2.520296270">
        <ele>266.90</ele>
        <time>2015-12-26T06:27:20Z</time>
      </trkpt>
      <trkpt lat="41.621533620" lon="2.520349660">
        <ele>268.83</ele>
        <time>2015-12-26T06:27:30Z</time>
      </trkpt>
      <trkpt lat="41.621647950" lon="2.520378410">
        <ele>270.75</ele>
        <time>2015-12-26T06:27:38Z</time>
      </trkpt>
      <trkpt lat="41.621776610" lon="2.520406570">
        <ele>273.15</ele>
        <time>2015-12-26T06:27:48Z</time>
      </trkpt>
      <trkpt lat="41.621896890" lon="2.520433230">
        <ele>276.04</ele>
        <time>2015-12-26T06:27:57Z</time>
      </trkpt>
      <trkpt lat="41.622015740" lon="2.520456530">
        <ele>277.96</ele>
        <time>2015-12-26T06:28:06Z</time>
      </trkpt>
      <trkpt lat="41.622130910" lon="2.520431050">
        <ele>279.40</ele>
        <time>2015-12-26T06:28:14Z</time>
      </trkpt>
      <trkpt lat="41.622272980" lon="2.520374800">
        <ele>281.80</ele>
        <time>2015-12-26T06:28:24Z</time>
      </trkpt>
      <trkpt lat="41.622383120" lon="2.520362400">
        <ele>283.25</ele>
        <time>2015-12-26T06:28:32Z</time>
      </trkpt>
      <trkpt lat="41.622471380" lon="2.520396850">
        <ele>284.21</ele>
        <time>2015-12-26T06:28:39Z</time>
      </trkpt>
      <trkpt lat="41.622425370" lon="2.520505810">
        <ele>285.65</ele>
        <time>2015-12-26T06:28:47Z</time>
      </trkpt>
      <trkpt lat="41.622341050" lon="2.520525930">
        <ele>287.09</ele>
        <time>2015-12-26T06:28:53Z</time>
      </trkpt>
      <trkpt lat="41.622206260" lon="2.520628100">
        <ele>289.01</ele>
        <time>2015-12-26T06:29:04Z</time>
      </trkpt>
      <trkpt lat="41.622194190" lon="2.520639500">
        <ele>289.01</ele>
        <time>2015-12-26T06:29:05Z</time>
      </trkpt>
      <trkpt lat="41.622059580" lon="2.520754340">
        <ele>291.42</ele>
        <time>2015-12-26T06:29:16Z</time>
      </trkpt>
      <trkpt lat="41.621989260" lon="2.520804210">
        <ele>292.38</ele>
        <time>2015-12-26T06:29:22Z</time>
      </trkpt>
      <trkpt lat="41.621940810" lon="2.520848460">
        <ele>293.34</ele>
        <time>2015-12-26T06:29:26Z</time>
      </trkpt>
      <trkpt lat="41.621805110" lon="2.520977630">
        <ele>294.78</ele>
        <time>2015-12-26T06:29:36Z</time>
      </trkpt>
      <trkpt lat="41.621687510" lon="2.521034630">
        <ele>295.74</ele>
        <time>2015-12-26T06:29:43Z</time>
      </trkpt>
      <trkpt lat="41.621534960" lon="2.521000430">
        <ele>296.22</ele>
        <time>2015-12-26T06:29:52Z</time>
      </trkpt>
      <trkpt lat="41.621376120" lon="2.520975200">
        <ele>297.18</ele>
        <time>2015-12-26T06:30:01Z</time>
      </trkpt>
      <trkpt lat="41.621204460" lon="2.521014090">
        <ele>298.15</ele>
        <time>2015-12-26T06:30:10Z</time>
      </trkpt>
      <trkpt lat="41.621120720" lon="2.521046190">
        <ele>299.11</ele>
        <time>2015-12-26T06:30:15Z</time>
      </trkpt>
      <trkpt lat="41.621138070" lon="2.521131440">
        <ele>300.07</ele>
        <time>2015-12-26T06:30:21Z</time>
      </trkpt>
      <trkpt lat="41.621163470" lon="2.521131860">
        <ele>300.55</ele>
        <time>2015-12-26T06:30:23Z</time>
      </trkpt>
      <trkpt lat="41.621187610" lon="2.521130680">
        <ele>301.03</ele>
        <time>2015-12-26T06:30:25Z</time>
      </trkpt>
      <trkpt lat="41.621241760" lon="2.521137050">
        <ele>301.99</ele>
        <time>2015-12-26T06:30:29Z</time>
      </trkpt>
      <trkpt lat="41.621358600" lon="2.521244850">
        <ele>304.39</ele>
        <time>2015-12-26T06:30:39Z</time>
      </trkpt>
      <trkpt lat="41.621393220" lon="2.521307120">
        <ele>304.88</ele>
        <time>2015-12-26T06:30:43Z</time>
      </trkpt>
      <trkpt lat="41.621478130" lon="2.521429920">
        <ele>306.80</ele>
        <time>2015-12-26T06:30:51Z</time>
      </trkpt>
      <trkpt lat="41.621568740" lon="2.521582300">
        <ele>307.76</ele>
        <time>2015-12-26T06:31:00Z</time>
      </trkpt>
      <trkpt lat="41.621622880" lon="2.521694030">
        <ele>309.20</ele>
        <time>2015-12-26T06:31:07Z</time>
      </trkpt>
      <trkpt lat="41.621678370" lon="2.521811630">
        <ele>311.12</ele>
        <time>2015-12-26T06:31:15Z</time>
      </trkpt>
      <trkpt lat="41.621747100" lon="2.521944730">
        <ele>312.09</ele>
        <time>2015-12-26T06:31:23Z</time>
      </trkpt>
      <trkpt lat="41.621811640" lon="2.522093680">
        <ele>314.01</ele>
        <time>2015-12-26T06:31:32Z</time>
      </trkpt>
      <trkpt lat="41.621871490" lon="2.522240870">
        <ele>315.93</ele>
        <time>2015-12-26T06:31:41Z</time>
      </trkpt>
      <trkpt lat="41.621950620" lon="2.522214720">
        <ele>317.37</ele>
        <time>2015-12-26T06:31:48Z</time>
      </trkpt>
      <trkpt lat="41.621948770" lon="2.522024190">
        <ele>319.30</ele>
        <time>2015-12-26T06:31:59Z</time>
      </trkpt>
      <trkpt lat="41.621970400" lon="2.521828900">
        <ele>320.74</ele>
        <time>2015-12-26T06:32:08Z</time>
      </trkpt>
      <trkpt lat="41.622001490" lon="2.521714650">
        <ele>321.70</ele>
        <time>2015-12-26T06:32:14Z</time>
      </trkpt>
      <trkpt lat="41.622074920" lon="2.521600990">
        <ele>323.14</ele>
        <time>2015-12-26T06:32:22Z</time>
      </trkpt>
      <trkpt lat="41.622107190" lon="2.521568810">
        <ele>323.14</ele>
        <time>2015-12-26T06:32:25Z</time>
      </trkpt>
      <trkpt lat="41.622178100" lon="2.521556900">
        <ele>324.10</ele>
        <time>2015-12-26T06:32:30Z</time>
      </trkpt>
      <trkpt lat="41.622284720" lon="2.521619010">
        <ele>325.54</ele>
        <time>2015-12-26T06:32:39Z</time>
      </trkpt>
      <trkpt lat="41.622320090" lon="2.521644080">
        <ele>325.54</ele>
        <time>2015-12-26T06:32:42Z</time>
      </trkpt>
      <trkpt lat="41.622460150" lon="2.521750860">
        <ele>327.47</ele>
        <time>2015-12-26T06:32:52Z</time>
      </trkpt>
      <trkpt lat="41.622607000" lon="2.521846250">
        <ele>329.39</ele>
        <time>2015-12-26T06:33:03Z</time>
      </trkpt>
      <trkpt lat="41.622745140" lon="2.521861170">
        <ele>330.83</ele>
        <time>2015-12-26T06:33:11Z</time>
      </trkpt>
      <trkpt lat="41.622894170" lon="2.521858570">
        <ele>332.27</ele>
        <time>2015-12-26T06:33:20Z</time>
      </trkpt>
      <trkpt lat="41.623027360" lon="2.521848010">
        <ele>333.23</ele>
        <time>2015-12-26T06:33:28Z</time>
      </trkpt>
      <trkpt lat="41.623151240" lon="2.521830490">
        <ele>335.16</ele>
        <time>2015-12-26T06:33:36Z</time>
      </trkpt>
      <trkpt lat="41.623265990" lon="2.521921520">
        <ele>336.12</ele>
        <time>2015-12-26T06:33:44Z</time>
      </trkpt>
      <trkpt lat="41.623364560" lon="2.522063510">
        <ele>336.12</ele>
        <time>2015-12-26T06:33:52Z</time>
      </trkpt>
      <trkpt lat="41.623496740" lon="2.522199540">
        <ele>337.56</ele>
        <time>2015-12-26T06:34:01Z</time>
      </trkpt>
      <trkpt lat="41.623635380" lon="2.522330890">
        <ele>338.52</ele>
        <time>2015-12-26T06:34:10Z</time>
      </trkpt>
      <trkpt lat="41.623793040" lon="2.522463410">
        <ele>339.00</ele>
        <time>2015-12-26T06:34:19Z</time>
      </trkpt>
      <trkpt lat="41.623939810" lon="2.522616380">
        <ele>339.48</ele>
        <time>2015-12-26T06:34:28Z</time>
      </trkpt>
      <trkpt lat="41.624066880" lon="2.522838500">
        <ele>340.92</ele>
        <time>2015-12-26T06:34:39Z</time>
      </trkpt>
      <trkpt lat="41.624149860" lon="2.523047460">
        <ele>340.92</ele>
        <time>2015-12-26T06:34:47Z</time>
      </trkpt>
      <trkpt lat="41.624206100" lon="2.523259690">
        <ele>340.92</ele>
        <time>2015-12-26T06:34:55Z</time>
      </trkpt>
      <trkpt lat="41.624290010" lon="2.523544590">
        <ele>341.89</ele>
        <time>2015-12-26T06:35:05Z</time>
      </trkpt>
      <trkpt lat="41.624356980" lon="2.523726140">
        <ele>342.85</ele>
        <time>2015-12-26T06:35:13Z</time>
      </trkpt>
      <trkpt lat="41.624458310" lon="2.523929320">
        <ele>344.77</ele>
        <time>2015-12-26T06:35:22Z</time>
      </trkpt>
      <trkpt lat="41.624533670" lon="2.524103160">
        <ele>345.73</ele>
        <time>2015-12-26T06:35:30Z</time>
      </trkpt>
      <trkpt lat="41.624626870" lon="2.524339110">
        <ele>347.17</ele>
        <time>2015-12-26T06:35:40Z</time>
      </trkpt>
      <trkpt lat="41.624684040" lon="2.524523260">
        <ele>348.62</ele>
        <time>2015-12-26T06:35:48Z</time>
      </trkpt>
      <trkpt lat="41.624784620" lon="2.524762390">
        <ele>349.10</ele>
        <time>2015-12-26T06:35:58Z</time>
      </trkpt>
      <trkpt lat="41.624858130" lon="2.524981500">
        <ele>350.06</ele>
        <time>2015-12-26T06:36:07Z</time>
      </trkpt>
      <trkpt lat="41.624943380" lon="2.525143520">
        <ele>350.54</ele>
        <time>2015-12-26T06:36:14Z</time>
      </trkpt>
      <trkpt lat="41.625088720" lon="2.525335300">
        <ele>351.02</ele>
        <time>2015-12-26T06:36:23Z</time>
      </trkpt>
      <trkpt lat="41.625262310" lon="2.525513410">
        <ele>351.02</ele>
        <time>2015-12-26T06:36:33Z</time>
      </trkpt>
      <trkpt lat="41.625403290" lon="2.525724640">
        <ele>351.50</ele>
        <time>2015-12-26T06:36:43Z</time>
      </trkpt>
      <trkpt lat="41.625523240" lon="2.525931080">
        <ele>351.98</ele>
        <time>2015-12-26T06:36:51Z</time>
      </trkpt>
      <trkpt lat="41.625643180" lon="2.526089170">
        <ele>351.98</ele>
        <time>2015-12-26T06:36:58Z</time>
      </trkpt>
      <trkpt lat="41.625861700" lon="2.526238450">
        <ele>351.98</ele>
        <time>2015-12-26T06:37:08Z</time>
      </trkpt>
      <trkpt lat="41.626061440" lon="2.526419920">
        <ele>351.98</ele>
        <time>2015-12-26T06:37:18Z</time>
      </trkpt>
      <trkpt lat="41.626184150" lon="2.526592920">
        <ele>351.98</ele>
        <time>2015-12-26T06:37:26Z</time>
      </trkpt>
      <trkpt lat="41.626289010" lon="2.526800120">
        <ele>352.46</ele>
        <time>2015-12-26T06:37:35Z</time>
      </trkpt>
      <trkpt lat="41.626315740" lon="2.526927780">
        <ele>352.94</ele>
        <time>2015-12-26T06:37:40Z</time>
      </trkpt>
      <trkpt lat="41.626392860" lon="2.526999860">
        <ele>352.94</ele>
        <time>2015-12-26T06:37:44Z</time>
      </trkpt>
      <trkpt lat="41.626423620" lon="2.527138580">
        <ele>353.90</ele>
        <time>2015-12-26T06:37:51Z</time>
      </trkpt>
      <trkpt lat="41.626473410" lon="2.527286940">
        <ele>354.38</ele>
        <time>2015-12-26T06:37:57Z</time>
      </trkpt>
      <trkpt lat="41.626492600" lon="2.527289790">
        <ele>354.38</ele>
        <time>2015-12-26T06:37:58Z</time>
      </trkpt>
      <trkpt lat="41.626543230" lon="2.527299260">
        <ele>354.86</ele>
        <time>2015-12-26T06:38:01Z</time>
      </trkpt>
      <trkpt lat="41.626687650" lon="2.527300690">
        <ele>356.79</ele>
        <time>2015-12-26T06:38:10Z</time>
      </trkpt>
      <trkpt lat="41.626791170" lon="2.527293480">
        <ele>358.23</ele>
        <time>2015-12-26T06:38:17Z</time>
      </trkpt>
      <trkpt lat="41.626937510" lon="2.527345280">
        <ele>360.15</ele>
        <time>2015-12-26T06:38:26Z</time>
      </trkpt>
      <trkpt lat="41.627002720" lon="2.527358520">
        <ele>361.59</ele>
        <time>2015-12-26T06:38:30Z</time>
      </trkpt>
      <trkpt lat="41.627143040" lon="2.527398670">
        <ele>363.52</ele>
        <time>2015-12-26T06:38:39Z</time>
      </trkpt>
      <trkpt lat="41.627265580" lon="2.527455080">
        <ele>364.96</ele>
        <time>2015-12-26T06:38:47Z</time>
      </trkpt>
      <trkpt lat="41.627312020" lon="2.527483080">
        <ele>365.44</ele>
        <time>2015-12-26T06:38:50Z</time>
      </trkpt>
      <trkpt lat="41.627445210" lon="2.527572010">
        <ele>366.40</ele>
        <time>2015-12-26T06:38:59Z</time>
      </trkpt>
      <trkpt lat="41.627608650" lon="2.527673010">
        <ele>367.84</ele>
        <time>2015-12-26T06:39:08Z</time>
      </trkpt>
      <trkpt lat="41.627690380" lon="2.527741570">
        <ele>368.80</ele>
        <time>2015-12-26T06:39:13Z</time>
      </trkpt>
      <trkpt lat="41.627828170" lon="2.527811730">
        <ele>369.76</ele>
        <time>2015-12-26T06:39:21Z</time>
      </trkpt>
      <trkpt lat="41.628023310" lon="2.527939810">
        <ele>371.69</ele>
        <time>2015-12-26T06:39:33Z</time>
      </trkpt>
      <trkpt lat="41.628192790" lon="2.528093530">
        <ele>373.13</ele>
        <time>2015-12-26T06:39:44Z</time>
      </trkpt>
      <trkpt lat="41.628313150" lon="2.528212050">
        <ele>374.57</ele>
        <time>2015-12-26T06:39:52Z</time>
      </trkpt>
      <trkpt lat="41.628437540" lon="2.528350600">
        <ele>376.01</ele>
        <time>2015-12-26T06:40:00Z</time>
      </trkpt>
      <trkpt lat="41.628532090" lon="2.528475160">
        <ele>376.49</ele>
        <time>2015-12-26T06:40:07Z</time>
      </trkpt>
      <trkpt lat="41.628649770" lon="2.528657550">
        <ele>376.97</ele>
        <time>2015-12-26T06:40:15Z</time>
      </trkpt>
      <trkpt lat="41.628740460" lon="2.528857120">
        <ele>376.97</ele>
        <time>2015-12-26T06:40:22Z</time>
      </trkpt>
      <trkpt lat="41.628876580" lon="2.529134900">
        <ele>376.97</ele>
        <time>2015-12-26T06:40:31Z</time>
      </trkpt>
      <trkpt lat="41.628971210" lon="2.529344860">
        <ele>376.97</ele>
        <time>2015-12-26T06:40:37Z</time>
      </trkpt>
      <trkpt lat="41.629124770" lon="2.529617950">
        <ele>376.97</ele>
        <time>2015-12-26T06:40:45Z</time>
      </trkpt>
      <trkpt lat="41.629237260" lon="2.529870910">
        <ele>377.45</ele>
        <time>2015-12-26T06:40:53Z</time>
      </trkpt>
      <trkpt lat="41.629314030" lon="2.530112980">
        <ele>378.90</ele>
        <time>2015-12-26T06:41:01Z</time>
      </trkpt>
      <trkpt lat="41.629337840" lon="2.530297220">
        <ele>379.86</ele>
        <time>2015-12-26T06:41:07Z</time>
      </trkpt>
      <trkpt lat="41.629360720" lon="2.530508610">
        <ele>381.78</ele>
        <time>2015-12-26T06:41:14Z</time>
      </trkpt>
      <trkpt lat="41.629368520" lon="2.530718910">
        <ele>383.22</ele>
        <time>2015-12-26T06:41:21Z</time>
      </trkpt>
      <trkpt lat="41.629374050" lon="2.530897030">
        <ele>384.18</ele>
        <time>2015-12-26T06:41:27Z</time>
      </trkpt>
      <trkpt lat="41.629410260" lon="2.531106240">
        <ele>384.66</ele>
        <time>2015-12-26T06:41:35Z</time>
      </trkpt>
      <trkpt lat="41.629498600" lon="2.531238000">
        <ele>385.15</ele>
        <time>2015-12-26T06:41:41Z</time>
      </trkpt>
      <trkpt lat="41.629678060" lon="2.531369760">
        <ele>383.70</ele>
        <time>2015-12-26T06:41:47Z</time>
      </trkpt>
      <trkpt lat="41.630005790" lon="2.531536730">
        <ele>381.30</ele>
        <time>2015-12-26T06:41:54Z</time>
      </trkpt>
      <trkpt lat="41.630276860" lon="2.531621640">
        <ele>379.86</ele>
        <time>2015-12-26T06:41:59Z</time>
      </trkpt>
      <trkpt lat="41.630484900" lon="2.531596580">
        <ele>378.90</ele>
        <time>2015-12-26T06:42:03Z</time>
      </trkpt>
      <trkpt lat="41.630682130" lon="2.531505890">
        <ele>378.42</ele>
        <time>2015-12-26T06:42:07Z</time>
      </trkpt>
      <trkpt lat="41.630931830" lon="2.531423240">
        <ele>378.42</ele>
        <time>2015-12-26T06:42:12Z</time>
      </trkpt>
      <trkpt lat="41.631169450" lon="2.531478390">
        <ele>377.94</ele>
        <time>2015-12-26T06:42:17Z</time>
      </trkpt>
      <trkpt lat="41.631354360" lon="2.531468920">
        <ele>377.45</ele>
        <time>2015-12-26T06:42:22Z</time>
      </trkpt>
      <trkpt lat="41.631384780" lon="2.531441180">
        <ele>376.97</ele>
        <time>2015-12-26T06:42:23Z</time>
      </trkpt>
      <trkpt lat="41.631598350" lon="2.531134900">
        <ele>376.49</ele>
        <time>2015-12-26T06:42:30Z</time>
      </trkpt>
      <trkpt lat="41.631687870" lon="2.530987380">
        <ele>376.01</ele>
        <time>2015-12-26T06:42:33Z</time>
      </trkpt>
      <trkpt lat="41.631804970" lon="2.530782360">
        <ele>375.05</ele>
        <time>2015-12-26T06:42:37Z</time>
      </trkpt>
      <trkpt lat="41.631921640" lon="2.530600390">
        <ele>374.57</ele>
        <time>2015-12-26T06:42:41Z</time>
      </trkpt>
      <trkpt lat="41.632064300" lon="2.530517330">
        <ele>373.61</ele>
        <time>2015-12-26T06:42:46Z</time>
      </trkpt>
      <trkpt lat="41.632135470" lon="2.530576840">
        <ele>373.13</ele>
        <time>2015-12-26T06:42:48Z</time>
      </trkpt>
      <trkpt lat="41.632502760" lon="2.530964250">
        <ele>371.21</ele>
        <time>2015-12-26T06:42:56Z</time>
      </trkpt>
      <trkpt lat="41.632765620" lon="2.531246050">
        <ele>369.76</ele>
        <time>2015-12-26T06:43:02Z</time>
      </trkpt>
      <trkpt lat="41.633036190" lon="2.531655590">
        <ele>368.80</ele>
        <time>2015-12-26T06:43:09Z</time>
      </trkpt>
      <trkpt lat="41.633107680" lon="2.531766150">
        <ele>369.76</ele>
        <time>2015-12-26T06:43:12Z</time>
      </trkpt>
      <trkpt lat="41.633188070" lon="2.531978880">
        <ele>372.17</ele>
        <time>2015-12-26T06:43:19Z</time>
      </trkpt>
      <trkpt lat="41.633218580" lon="2.532215580">
        <ele>373.13</ele>
        <time>2015-12-26T06:43:27Z</time>
      </trkpt>
      <trkpt lat="41.633214800" lon="2.532425300">
        <ele>375.53</ele>
        <time>2015-12-26T06:43:35Z</time>
      </trkpt>
      <trkpt lat="41.633206840" lon="2.532604500">
        <ele>377.45</ele>
        <time>2015-12-26T06:43:42Z</time>
      </trkpt>
      <trkpt lat="41.633240870" lon="2.532712960">
        <ele>379.38</ele>
        <time>2015-12-26T06:43:48Z</time>
      </trkpt>
      <trkpt lat="41.633377670" lon="2.532890910">
        <ele>377.45</ele>
        <time>2015-12-26T06:43:54Z</time>
      </trkpt>
      <trkpt lat="41.633534320" lon="2.533094170">
        <ele>374.57</ele>
        <time>2015-12-26T06:43:58Z</time>
      </trkpt>
      <trkpt lat="41.633699530" lon="2.533369100">
        <ele>370.24</ele>
        <time>2015-12-26T06:44:02Z</time>
      </trkpt>
      <trkpt lat="41.633809330" lon="2.533487120">
        <ele>369.28</ele>
        <time>2015-12-26T06:44:04Z</time>
      </trkpt>
      <trkpt lat="41.633936400" lon="2.533561550">
        <ele>370.73</ele>
        <time>2015-12-26T06:44:07Z</time>
      </trkpt>
      <trkpt lat="41.633954000" lon="2.533563640">
        <ele>370.73</ele>
        <time>2015-12-26T06:44:08Z</time>
      </trkpt>
      <trkpt lat="41.634091890" lon="2.533528360">
        <ele>371.69</ele>
        <time>2015-12-26T06:44:13Z</time>
      </trkpt>
      <trkpt lat="41.634204200" lon="2.533488370">
        <ele>370.24</ele>
        <time>2015-12-26T06:44:16Z</time>
      </trkpt>
      <trkpt lat="41.634332360" lon="2.533449320">
        <ele>368.32</ele>
        <time>2015-12-26T06:44:19Z</time>
      </trkpt>
      <trkpt lat="41.634568570" lon="2.533483930">
        <ele>366.40</ele>
        <time>2015-12-26T06:44:24Z</time>
      </trkpt>
      <trkpt lat="41.634642910" lon="2.533341860">
        <ele>365.92</ele>
        <time>2015-12-26T06:44:27Z</time>
      </trkpt>
      <trkpt lat="41.634642160" lon="2.533079000">
        <ele>364.48</ele>
        <time>2015-12-26T06:44:31Z</time>
      </trkpt>
      <trkpt lat="41.634606030" lon="2.532821930">
        <ele>362.55</ele>
        <time>2015-12-26T06:44:34Z</time>
      </trkpt>
      <trkpt lat="41.634595390" lon="2.532539540">
        <ele>360.15</ele>
        <time>2015-12-26T06:44:37Z</time>
      </trkpt>
      <trkpt lat="41.634658670" lon="2.532158170">
        <ele>359.19</ele>
        <time>2015-12-26T06:44:41Z</time>
      </trkpt>
      <trkpt lat="41.634799400" lon="2.531901510">
        <ele>360.63</ele>
        <time>2015-12-26T06:44:46Z</time>
      </trkpt>
      <trkpt lat="41.634959000" lon="2.531779390">
        <ele>363.52</ele>
        <time>2015-12-26T06:44:53Z</time>
      </trkpt>
      <trkpt lat="41.635092100" lon="2.531870330">
        <ele>365.44</ele>
        <time>2015-12-26T06:44:59Z</time>
      </trkpt>
      <trkpt lat="41.635241300" lon="2.532038470">
        <ele>367.36</ele>
        <time>2015-12-26T06:45:07Z</time>
      </trkpt>
      <trkpt lat="41.635415470" lon="2.532168640">
        <ele>366.88</ele>
        <time>2015-12-26T06:45:14Z</time>
      </trkpt>
      <trkpt lat="41.635536510" lon="2.532088760">
        <ele>366.88</ele>
        <time>2015-12-26T06:45:18Z</time>
      </trkpt>
      <trkpt lat="41.635554700" lon="2.531855660">
        <ele>366.88</ele>
        <time>2015-12-26T06:45:23Z</time>
      </trkpt>
      <trkpt lat="41.635604900" lon="2.531589870">
        <ele>366.88</ele>
        <time>2015-12-26T06:45:29Z</time>
      </trkpt>
      <trkpt lat="41.635643130" lon="2.531393150">
        <ele>369.28</ele>
        <time>2015-12-26T06:45:35Z</time>
      </trkpt>
      <trkpt lat="41.635695680" lon="2.531151000">
        <ele>372.17</ele>
        <time>2015-12-26T06:45:43Z</time>
      </trkpt>
      <trkpt lat="41.635793250" lon="2.530976650">
        <ele>373.13</ele>
        <time>2015-12-26T06:45:49Z</time>
      </trkpt>
      <trkpt lat="41.635931630" lon="2.530918150">
        <ele>374.57</ele>
        <time>2015-12-26T06:45:55Z</time>
      </trkpt>
      <trkpt lat="41.636106310" lon="2.530889820">
        <ele>375.53</ele>
        <time>2015-12-26T06:46:02Z</time>
      </trkpt>
      <trkpt lat="41.636268330" lon="2.530940530">
        <ele>376.01</ele>
        <time>2015-12-26T06:46:09Z</time>
      </trkpt>
      <trkpt lat="41.636319960" lon="2.531128790">
        <ele>376.01</ele>
        <time>2015-12-26T06:46:14Z</time>
      </trkpt>
      <trkpt lat="41.636316950" lon="2.531450060">
        <ele>376.01</ele>
        <time>2015-12-26T06:46:22Z</time>
      </trkpt>
      <trkpt lat="41.636352320" lon="2.531777630">
        <ele>375.05</ele>
        <time>2015-12-26T06:46:29Z</time>
      </trkpt>
      <trkpt lat="41.636431190" lon="2.531995810">
        <ele>375.05</ele>
        <time>2015-12-26T06:46:34Z</time>
      </trkpt>
      <trkpt lat="41.636525240" lon="2.532247100">
        <ele>375.05</ele>
        <time>2015-12-26T06:46:40Z</time>
      </trkpt>
      <trkpt lat="41.636480060" lon="2.532520850">
        <ele>376.01</ele>
        <time>2015-12-26T06:46:46Z</time>
      </trkpt>
      <trkpt lat="41.636447450" lon="2.532618500">
        <ele>376.01</ele>
        <time>2015-12-26T06:46:48Z</time>
      </trkpt>
      <trkpt lat="41.636458430" lon="2.532896610">
        <ele>376.01</ele>
        <time>2015-12-26T06:46:53Z</time>
      </trkpt>
      <trkpt lat="41.636628330" lon="2.533068110">
        <ele>376.01</ele>
        <time>2015-12-26T06:46:58Z</time>
      </trkpt>
      <trkpt lat="41.636721790" lon="2.533332810">
        <ele>376.01</ele>
        <time>2015-12-26T06:47:04Z</time>
      </trkpt>
      <trkpt lat="41.636721460" lon="2.533371360">
        <ele>376.01</ele>
        <time>2015-12-26T06:47:05Z</time>
      </trkpt>
      <trkpt lat="41.636655160" lon="2.533717870">
        <ele>376.01</ele>
        <time>2015-12-26T06:47:12Z</time>
      </trkpt>
      <trkpt lat="41.636545100" lon="2.534013420">
        <ele>375.05</ele>
        <time>2015-12-26T06:47:19Z</time>
      </trkpt>
      <trkpt lat="41.636659350" lon="2.534137890">
        <ele>375.05</ele>
        <time>2015-12-26T06:47:24Z</time>
      </trkpt>
      <trkpt lat="41.636732190" lon="2.534157920">
        <ele>375.05</ele>
        <time>2015-12-26T06:47:26Z</time>
      </trkpt>
      <trkpt lat="41.636924300" lon="2.534262950">
        <ele>373.61</ele>
        <time>2015-12-26T06:47:30Z</time>
      </trkpt>
      <trkpt lat="41.637240550" lon="2.534499150">
        <ele>372.17</ele>
        <time>2015-12-26T06:47:36Z</time>
      </trkpt>
      <trkpt lat="41.637403580" lon="2.534566370">
        <ele>371.69</ele>
        <time>2015-12-26T06:47:39Z</time>
      </trkpt>
      <trkpt lat="41.637600300" lon="2.534692850">
        <ele>370.24</ele>
        <time>2015-12-26T06:47:43Z</time>
      </trkpt>
      <trkpt lat="41.637846900" lon="2.534967700">
        <ele>368.80</ele>
        <time>2015-12-26T06:47:50Z</time>
      </trkpt>
      <trkpt lat="41.638043620" lon="2.534826380">
        <ele>367.36</ele>
        <time>2015-12-26T06:47:55Z</time>
      </trkpt>
      <trkpt lat="41.638178230" lon="2.534692180">
        <ele>366.40</ele>
        <time>2015-12-26T06:47:58Z</time>
      </trkpt>
      <trkpt lat="41.638443770" lon="2.534633430">
        <ele>366.40</ele>
        <time>2015-12-26T06:48:03Z</time>
      </trkpt>
      <trkpt lat="41.638873090" lon="2.534872810">
        <ele>365.44</ele>
        <time>2015-12-26T06:48:13Z</time>
      </trkpt>
      <trkpt lat="41.639107450" lon="2.534957050">
        <ele>365.44</ele>
        <time>2015-12-26T06:48:20Z</time>
      </trkpt>
      <trkpt lat="41.639306100" lon="2.534978930">
        <ele>367.36</ele>
        <time>2015-12-26T06:48:26Z</time>
      </trkpt>
      <trkpt lat="41.639419420" lon="2.534998710">
        <ele>368.32</ele>
        <time>2015-12-26T06:48:30Z</time>
      </trkpt>
      <trkpt lat="41.639681020" lon="2.535039030">
        <ele>370.73</ele>
        <time>2015-12-26T06:48:40Z</time>
      </trkpt>
      <trkpt lat="41.639804150" lon="2.535053440">
        <ele>371.69</ele>
        <time>2015-12-26T06:48:46Z</time>
      </trkpt>
      <trkpt lat="41.639963910" lon="2.535129720">
        <ele>373.13</ele>
        <time>2015-12-26T06:48:53Z</time>
      </trkpt>
      <trkpt lat="41.640164070" lon="2.535266430">
        <ele>375.05</ele>
        <time>2015-12-26T06:49:02Z</time>
      </trkpt>
      <trkpt lat="41.640360210" lon="2.535242370">
        <ele>375.05</ele>
        <time>2015-12-26T06:49:09Z</time>
      </trkpt>
      <trkpt lat="41.640560370" lon="2.535229630">
        <ele>375.53</ele>
        <time>2015-12-26T06:49:16Z</time>
      </trkpt>
      <trkpt lat="41.640755670" lon="2.535264840">
        <ele>376.97</ele>
        <time>2015-12-26T06:49:24Z</time>
      </trkpt>
      <trkpt lat="41.640983150" lon="2.535441950">
        <ele>376.97</ele>
        <time>2015-12-26T06:49:32Z</time>
      </trkpt>
      <trkpt lat="41.641073430" lon="2.535602210">
        <ele>376.97</ele>
        <time>2015-12-26T06:49:37Z</time>
      </trkpt>
      <trkpt lat="41.641170570" lon="2.535859110">
        <ele>376.97</ele>
        <time>2015-12-26T06:49:46Z</time>
      </trkpt>
      <trkpt lat="41.641244580" lon="2.536083410">
        <ele>378.90</ele>
        <time>2015-12-26T06:49:54Z</time>
      </trkpt>
      <trkpt lat="41.641294290" lon="2.536283400">
        <ele>379.86</ele>
        <time>2015-12-26T06:50:01Z</time>
      </trkpt>
      <trkpt lat="41.641347770" lon="2.536503600">
        <ele>381.30</ele>
        <time>2015-12-26T06:50:09Z</time>
      </trkpt>
      <trkpt lat="41.641449610" lon="2.536731000">
        <ele>382.74</ele>
        <time>2015-12-26T06:50:17Z</time>
      </trkpt>
      <trkpt lat="41.641562260" lon="2.536903750">
        <ele>384.66</ele>
        <time>2015-12-26T06:50:24Z</time>
      </trkpt>
      <trkpt lat="41.641598720" lon="2.537149590">
        <ele>385.15</ele>
        <time>2015-12-26T06:50:31Z</time>
      </trkpt>
      <trkpt lat="41.641556810" lon="2.537514120">
        <ele>385.15</ele>
        <time>2015-12-26T06:50:39Z</time>
      </trkpt>
      <trkpt lat="41.641582290" lon="2.537833220">
        <ele>385.63</ele>
        <time>2015-12-26T06:50:47Z</time>
      </trkpt>
      <trkpt lat="41.641663430" lon="2.538130020">
        <ele>386.59</ele>
        <time>2015-12-26T06:50:55Z</time>
      </trkpt>
      <trkpt lat="41.641738450" lon="2.538250890">
        <ele>386.59</ele>
        <time>2015-12-26T06:50:58Z</time>
      </trkpt>
      <trkpt lat="41.641801560" lon="2.538343260">
        <ele>386.59</ele>
        <time>2015-12-26T06:51:00Z</time>
      </trkpt>
      <trkpt lat="41.642015050" lon="2.538501930">
        <ele>386.59</ele>
        <time>2015-12-26T06:51:05Z</time>
      </trkpt>
      <trkpt lat="41.642283100" lon="2.538546600">
        <ele>386.59</ele>
        <time>2015-12-26T06:51:12Z</time>
      </trkpt>
      <trkpt lat="41.642490390" lon="2.538628240">
        <ele>387.55</ele>
        <time>2015-12-26T06:51:19Z</time>
      </trkpt>
      <trkpt lat="41.642687450" lon="2.538813310">
        <ele>388.03</ele>
        <time>2015-12-26T06:51:26Z</time>
      </trkpt>
      <trkpt lat="41.642762970" lon="2.538879360">
        <ele>386.59</ele>
        <time>2015-12-26T06:51:28Z</time>
      </trkpt>
      <trkpt lat="41.643088270" lon="2.539075670">
        <ele>383.70</ele>
        <time>2015-12-26T06:51:35Z</time>
      </trkpt>
      <trkpt lat="41.643292450" lon="2.539268950">
        <ele>381.30</ele>
        <time>2015-12-26T06:51:40Z</time>
      </trkpt>
      <trkpt lat="41.643574000" lon="2.539537260">
        <ele>376.97</ele>
        <time>2015-12-26T06:51:46Z</time>
      </trkpt>
      <trkpt lat="41.643802070" lon="2.539673880">
        <ele>373.61</ele>
        <time>2015-12-26T06:51:50Z</time>
      </trkpt>
      <trkpt lat="41.644036760" lon="2.539928610">
        <ele>370.24</ele>
        <time>2015-12-26T06:51:55Z</time>
      </trkpt>
      <trkpt lat="41.644135840" lon="2.540054930">
        <ele>368.80</ele>
        <time>2015-12-26T06:51:57Z</time>
      </trkpt>
      <trkpt lat="41.644256290" lon="2.540331280">
        <ele>365.92</ele>
        <time>2015-12-26T06:52:01Z</time>
      </trkpt>
      <trkpt lat="41.644320410" lon="2.540489440">
        <ele>363.04</ele>
        <time>2015-12-26T06:52:04Z</time>
      </trkpt>
      <trkpt lat="41.644466590" lon="2.540400510">
        <ele>360.63</ele>
        <time>2015-12-26T06:52:07Z</time>
      </trkpt>
      <trkpt lat="41.644518470" lon="2.540247880">
        <ele>359.67</ele>
        <time>2015-12-26T06:52:09Z</time>
      </trkpt>
      <trkpt lat="41.644562640" lon="2.540044870">
        <ele>357.27</ele>
        <time>2015-12-26T06:52:11Z</time>
      </trkpt>
      <trkpt lat="41.644731710" lon="2.539873540">
        <ele>354.38</ele>
        <time>2015-12-26T06:52:15Z</time>
      </trkpt>
      <trkpt lat="41.644799010" lon="2.539904640">
        <ele>353.42</ele>
        <time>2015-12-26T06:52:16Z</time>
      </trkpt>
      <trkpt lat="41.645006130" lon="2.540019220">
        <ele>351.50</ele>
        <time>2015-12-26T06:52:19Z</time>
      </trkpt>
      <trkpt lat="41.645164300" lon="2.540100520">
        <ele>351.02</ele>
        <time>2015-12-26T06:52:21Z</time>
      </trkpt>
      <trkpt lat="41.645484820" lon="2.540179150">
        <ele>347.65</ele>
        <time>2015-12-26T06:52:25Z</time>
      </trkpt>
      <trkpt lat="41.645816330" lon="2.540332030">
        <ele>348.62</ele>
        <time>2015-12-26T06:52:30Z</time>
      </trkpt>
      <trkpt lat="41.645853040" lon="2.540358270">
        <ele>348.62</ele>
        <time>2015-12-26T06:52:31Z</time>
      </trkpt>
      <trkpt lat="41.645960580" lon="2.540481310">
        <ele>350.06</ele>
        <time>2015-12-26T06:52:36Z</time>
      </trkpt>
      <trkpt lat="41.646070300" lon="2.540621120">
        <ele>351.98</ele>
        <time>2015-12-26T06:52:43Z</time>
      </trkpt>
      <trkpt lat="41.646211700" lon="2.540694880">
        <ele>354.38</ele>
        <time>2015-12-26T06:52:51Z</time>
      </trkpt>
      <trkpt lat="41.646387130" lon="2.540765630">
        <ele>356.79</ele>
        <time>2015-12-26T06:53:01Z</time>
      </trkpt>
      <trkpt lat="41.646490570" lon="2.540804020">
        <ele>359.67</ele>
        <time>2015-12-26T06:53:08Z</time>
      </trkpt>
      <trkpt lat="41.646584190" lon="2.540840650">
        <ele>361.11</ele>
        <time>2015-12-26T06:53:15Z</time>
      </trkpt>
      <trkpt lat="41.646722410" lon="2.540839970">
        <ele>363.52</ele>
        <time>2015-12-26T06:53:24Z</time>
      </trkpt>
      <trkpt lat="41.646847640" lon="2.540796050">
        <ele>364.96</ele>
        <time>2015-12-26T06:53:32Z</time>
      </trkpt>
      <trkpt lat="41.647031370" lon="2.540790020">
        <ele>365.92</ele>
        <time>2015-12-26T06:53:42Z</time>
      </trkpt>
      <trkpt lat="41.647198250" lon="2.540782730">
        <ele>366.40</ele>
        <time>2015-12-26T06:53:50Z</time>
      </trkpt>
      <trkpt lat="41.647400000" lon="2.540810220">
        <ele>368.32</ele>
        <time>2015-12-26T06:54:00Z</time>
      </trkpt>
      <trkpt lat="41.647530090" lon="2.540875430">
        <ele>370.73</ele>
        <time>2015-12-26T06:54:08Z</time>
      </trkpt>
      <trkpt lat="41.647666040" lon="2.540999400">
        <ele>373.13</ele>
        <time>2015-12-26T06:54:18Z</time>
      </trkpt>
      <trkpt lat="41.647802920" lon="2.541130990">
        <ele>375.05</ele>
        <time>2015-12-26T06:54:29Z</time>
      </trkpt>
      <trkpt lat="41.647939210" lon="2.541239790">
        <ele>377.94</ele>
        <time>2015-12-26T06:54:39Z</time>
      </trkpt>
      <trkpt lat="41.648086650" lon="2.541272310">
        <ele>379.38</ele>
        <time>2015-12-26T06:54:48Z</time>
      </trkpt>
      <trkpt lat="41.648271220" lon="2.541340540">
        <ele>379.86</ele>
        <time>2015-12-26T06:54:57Z</time>
      </trkpt>
      <trkpt lat="41.648480930" lon="2.541383460">
        <ele>381.78</ele>
        <time>2015-12-26T06:55:08Z</time>
      </trkpt>
      <trkpt lat="41.648673880" lon="2.541415220">
        <ele>383.22</ele>
        <time>2015-12-26T06:55:18Z</time>
      </trkpt>
      <trkpt lat="41.648824340" lon="2.541494430">
        <ele>384.18</ele>
        <time>2015-12-26T06:55:26Z</time>
      </trkpt>
      <trkpt lat="41.648954510" lon="2.541614800">
        <ele>385.15</ele>
        <time>2015-12-26T06:55:34Z</time>
      </trkpt>
      <trkpt lat="41.649009910" lon="2.541783940">
        <ele>385.63</ele>
        <time>2015-12-26T06:55:41Z</time>
      </trkpt>
      <trkpt lat="41.649032210" lon="2.541941110">
        <ele>386.11</ele>
        <time>2015-12-26T06:55:47Z</time>
      </trkpt>
      <trkpt lat="41.649019220" lon="2.542100700">
        <ele>386.59</ele>
        <time>2015-12-26T06:55:53Z</time>
      </trkpt>
      <trkpt lat="41.649016700" lon="2.542299850">
        <ele>387.55</ele>
        <time>2015-12-26T06:56:00Z</time>
      </trkpt>
      <trkpt lat="41.649058110" lon="2.542522310">
        <ele>388.03</ele>
        <time>2015-12-26T06:56:08Z</time>
      </trkpt>
      <trkpt lat="41.649118710" lon="2.542717350">
        <ele>388.51</ele>
        <time>2015-12-26T06:56:15Z</time>
      </trkpt>
      <trkpt lat="41.649219130" lon="2.542968310">
        <ele>389.47</ele>
        <time>2015-12-26T06:56:25Z</time>
      </trkpt>
      <trkpt lat="41.649295400" lon="2.543219930">
        <ele>390.43</ele>
        <time>2015-12-26T06:56:34Z</time>
      </trkpt>
      <trkpt lat="41.649358850" lon="2.543484300">
        <ele>391.87</ele>
        <time>2015-12-26T06:56:44Z</time>
      </trkpt>
      <trkpt lat="41.649394560" lon="2.543678930">
        <ele>392.84</ele>
        <time>2015-12-26T06:56:51Z</time>
      </trkpt>
      <trkpt lat="41.649416350" lon="2.543893000">
        <ele>394.28</ele>
        <time>2015-12-26T06:56:59Z</time>
      </trkpt>
      <trkpt lat="41.649427670" lon="2.544098440">
        <ele>395.72</ele>
        <time>2015-12-26T06:57:06Z</time>
      </trkpt>
      <trkpt lat="41.649479800" lon="2.544327600">
        <ele>396.20</ele>
        <time>2015-12-26T06:57:14Z</time>
      </trkpt>
      <trkpt lat="41.649579130" lon="2.544507560">
        <ele>396.68</ele>
        <time>2015-12-26T06:57:21Z</time>
      </trkpt>
      <trkpt lat="41.649693880" lon="2.544687520">
        <ele>397.64</ele>
        <time>2015-12-26T06:57:29Z</time>
      </trkpt>
      <trkpt lat="41.649876850" lon="2.544742920">
        <ele>399.08</ele>
        <time>2015-12-26T06:57:38Z</time>
      </trkpt>
      <trkpt lat="41.650044410" lon="2.544671430">
        <ele>400.53</ele>
        <time>2015-12-26T06:57:47Z</time>
      </trkpt>
      <trkpt lat="41.650180700" lon="2.544625240">
        <ele>401.49</ele>
        <time>2015-12-26T06:57:54Z</time>
      </trkpt>
      <trkpt lat="41.650344820" lon="2.544644860">
        <ele>402.45</ele>
        <time>2015-12-26T06:58:02Z</time>
      </trkpt>
      <trkpt lat="41.650516560" lon="2.544679890">
        <ele>403.41</ele>
        <time>2015-12-26T06:58:10Z</time>
      </trkpt>
      <trkpt lat="41.650687220" lon="2.544787600">
        <ele>405.33</ele>
        <time>2015-12-26T06:58:19Z</time>
      </trkpt>
      <trkpt lat="41.650811350" lon="2.544917940">
        <ele>406.77</ele>
        <time>2015-12-26T06:58:27Z</time>
      </trkpt>
      <trkpt lat="41.650917720" lon="2.545031350">
        <ele>408.22</ele>
        <time>2015-12-26T06:58:34Z</time>
      </trkpt>
      <trkpt lat="41.651046380" lon="2.545039140">
        <ele>409.18</ele>
        <time>2015-12-26T06:58:41Z</time>
      </trkpt>
      <trkpt lat="41.651205390" lon="2.544957840">
        <ele>410.62</ele>
        <time>2015-12-26T06:58:50Z</time>
      </trkpt>
      <trkpt lat="41.651361540" lon="2.544899250">
        <ele>412.06</ele>
        <time>2015-12-26T06:58:59Z</time>
      </trkpt>
      <trkpt lat="41.651535210" lon="2.544955820">
        <ele>414.47</ele>
        <time>2015-12-26T06:59:08Z</time>
      </trkpt>
      <trkpt lat="41.651674690" lon="2.544937050">
        <ele>415.91</ele>
        <time>2015-12-26T06:59:16Z</time>
      </trkpt>
      <trkpt lat="41.651789520" lon="2.544804780">
        <ele>417.83</ele>
        <time>2015-12-26T06:59:24Z</time>
      </trkpt>
      <trkpt lat="41.651941990" lon="2.544678550">
        <ele>420.71</ele>
        <time>2015-12-26T06:59:35Z</time>
      </trkpt>
      <trkpt lat="41.652082220" lon="2.544637230">
        <ele>421.68</ele>
        <time>2015-12-26T06:59:42Z</time>
      </trkpt>
      <trkpt lat="41.652287830" lon="2.544637140">
        <ele>422.16</ele>
        <time>2015-12-26T06:59:51Z</time>
      </trkpt>
      <trkpt lat="41.652486230" lon="2.544658940">
        <ele>422.64</ele>
        <time>2015-12-26T06:59:58Z</time>
      </trkpt>
      <trkpt lat="41.652578260" lon="2.544730020">
        <ele>422.64</ele>
        <time>2015-12-26T07:00:01Z</time>
      </trkpt>
      <trkpt lat="41.652723350" lon="2.544962030">
        <ele>422.64</ele>
        <time>2015-12-26T07:00:08Z</time>
      </trkpt>
      <trkpt lat="41.652776160" lon="2.545089180">
        <ele>424.08</ele>
        <time>2015-12-26T07:00:13Z</time>
      </trkpt>
      <trkpt lat="41.652857040" lon="2.545241480">
        <ele>425.52</ele>
        <time>2015-12-26T07:00:19Z</time>
      </trkpt>
      <trkpt lat="41.652877910" lon="2.545292530">
        <ele>425.52</ele>
        <time>2015-12-26T07:00:21Z</time>
      </trkpt>
      <trkpt lat="41.652954860" lon="2.545353210">
        <ele>426.48</ele>
        <time>2015-12-26T07:00:25Z</time>
      </trkpt>
      <trkpt lat="41.653163400" lon="2.545448510">
        <ele>427.44</ele>
        <time>2015-12-26T07:00:34Z</time>
      </trkpt>
      <trkpt lat="41.653377560" lon="2.545604500">
        <ele>428.89</ele>
        <time>2015-12-26T07:00:44Z</time>
      </trkpt>
      <trkpt lat="41.653617360" lon="2.545722940">
        <ele>428.89</ele>
        <time>2015-12-26T07:00:51Z</time>
      </trkpt>
      <trkpt lat="41.653830850" lon="2.545821590">
        <ele>428.89</ele>
        <time>2015-12-26T07:00:58Z</time>
      </trkpt>
      <trkpt lat="41.654020620" lon="2.545937260">
        <ele>428.89</ele>
        <time>2015-12-26T07:01:04Z</time>
      </trkpt>
      <trkpt lat="41.654243240" lon="2.546063580">
        <ele>428.89</ele>
        <time>2015-12-26T07:01:10Z</time>
      </trkpt>
      <trkpt lat="41.654325630" lon="2.546079250">
        <ele>428.89</ele>
        <time>2015-12-26T07:01:12Z</time>
      </trkpt>
      <trkpt lat="41.654461170" lon="2.546185780">
        <ele>428.89</ele>
        <time>2015-12-26T07:01:16Z</time>
      </trkpt>
      <trkpt lat="41.654589080" lon="2.546330290">
        <ele>428.89</ele>
        <time>2015-12-26T07:01:23Z</time>
      </trkpt>
      <trkpt lat="41.654688820" lon="2.546439590">
        <ele>430.33</ele>
        <time>2015-12-26T07:01:29Z</time>
      </trkpt>
      <trkpt lat="41.654858220" lon="2.546555260">
        <ele>432.25</ele>
        <time>2015-12-26T07:01:38Z</time>
      </trkpt>
      <trkpt lat="41.654918740" lon="2.546646450">
        <ele>434.17</ele>
        <time>2015-12-26T07:01:44Z</time>
      </trkpt>
      <trkpt lat="41.655034160" lon="2.546781820">
        <ele>435.13</ele>
        <time>2015-12-26T07:01:52Z</time>
      </trkpt>
      <trkpt lat="41.655237750" lon="2.546925660">
        <ele>435.13</ele>
        <time>2015-12-26T07:02:00Z</time>
      </trkpt>
      <trkpt lat="41.655352920" lon="2.547005530">
        <ele>433.69</ele>
        <time>2015-12-26T07:02:03Z</time>
      </trkpt>
      <trkpt lat="41.655407570" lon="2.547256570">
        <ele>433.21</ele>
        <time>2015-12-26T07:02:09Z</time>
      </trkpt>
      <trkpt lat="41.655413690" lon="2.547304100">
        <ele>433.21</ele>
        <time>2015-12-26T07:02:10Z</time>
      </trkpt>
      <trkpt lat="41.655401370" lon="2.547451950">
        <ele>433.21</ele>
        <time>2015-12-26T07:02:13Z</time>
      </trkpt>
      <trkpt lat="41.655245040" lon="2.547599730">
        <ele>433.21</ele>
        <time>2015-12-26T07:02:20Z</time>
      </trkpt>
      <trkpt lat="41.655133060" lon="2.547662260">
        <ele>434.17</ele>
        <time>2015-12-26T07:02:25Z</time>
      </trkpt>
      <trkpt lat="41.655100620" lon="2.547670810">
        <ele>435.13</ele>
        <time>2015-12-26T07:02:27Z</time>
      </trkpt>
      <trkpt lat="41.655032310" lon="2.547704920">
        <ele>435.61</ele>
        <time>2015-12-26T07:02:31Z</time>
      </trkpt>
      <trkpt lat="41.654846320" lon="2.547831150">
        <ele>436.58</ele>
        <time>2015-12-26T07:02:40Z</time>
      </trkpt>
      <trkpt lat="41.654833830" lon="2.547840200">
        <ele>437.06</ele>
        <time>2015-12-26T07:02:41Z</time>
      </trkpt>
      <trkpt lat="41.654781190" lon="2.547880270">
        <ele>438.02</ele>
        <time>2015-12-26T07:02:47Z</time>
      </trkpt>
      <trkpt lat="41.654753450" lon="2.547873820">
        <ele>438.02</ele>
        <time>2015-12-26T07:02:55Z</time>
      </trkpt>
      <trkpt lat="41.654736680" lon="2.547860070">
        <ele>438.02</ele>
        <time>2015-12-26T07:03:03Z</time>
      </trkpt>
      <trkpt lat="41.654726710" lon="2.547856970">
        <ele>438.02</ele>
        <time>2015-12-26T07:03:11Z</time>
      </trkpt>
      <trkpt lat="41.654709780" lon="2.547847330">
        <ele>438.02</ele>
        <time>2015-12-26T07:03:19Z</time>
      </trkpt>
      <trkpt lat="41.654665860" lon="2.547877670">
        <ele>438.02</ele>
        <time>2015-12-26T07:03:24Z</time>
      </trkpt>
      <trkpt lat="41.654610200" lon="2.547923690">
        <ele>438.98</ele>
        <time>2015-12-26T07:03:28Z</time>
      </trkpt>
      <trkpt lat="41.654490340" lon="2.548037510">
        <ele>441.38</ele>
        <time>2015-12-26T07:03:37Z</time>
      </trkpt>
      <trkpt lat="41.654460750" lon="2.548052690">
        <ele>440.90</ele>
        <time>2015-12-26T07:03:39Z</time>
      </trkpt>
      <trkpt lat="41.654404170" lon="2.548135420">
        <ele>442.82</ele>
        <time>2015-12-26T07:03:44Z</time>
      </trkpt>
      <trkpt lat="41.654264700" lon="2.548323670">
        <ele>444.27</ele>
        <time>2015-12-26T07:03:54Z</time>
      </trkpt>
      <trkpt lat="41.654127400" lon="2.548454510">
        <ele>444.75</ele>
        <time>2015-12-26T07:04:00Z</time>
      </trkpt>
      <trkpt lat="41.653946440" lon="2.548664400">
        <ele>445.23</ele>
        <time>2015-12-26T07:04:09Z</time>
      </trkpt>
      <trkpt lat="41.653928500" lon="2.548737910">
        <ele>445.23</ele>
        <time>2015-12-26T07:04:11Z</time>
      </trkpt>
      <trkpt lat="41.653894380" lon="2.549005290">
        <ele>442.82</ele>
        <time>2015-12-26T07:04:15Z</time>
      </trkpt>
      <trkpt lat="41.653840150" lon="2.549366720">
        <ele>442.34</ele>
        <time>2015-12-26T07:04:20Z</time>
      </trkpt>
      <trkpt lat="41.653736970" lon="2.549510800">
        <ele>442.34</ele>
        <time>2015-12-26T07:04:24Z</time>
      </trkpt>
      <trkpt lat="41.653696990" lon="2.549529070">
        <ele>442.34</ele>
        <time>2015-12-26T07:04:25Z</time>
      </trkpt>
      <trkpt lat="41.653545110" lon="2.549711720">
        <ele>442.34</ele>
        <time>2015-12-26T07:04:30Z</time>
      </trkpt>
      <trkpt lat="41.653484260" lon="2.549941300">
        <ele>443.79</ele>
        <time>2015-12-26T07:04:36Z</time>
      </trkpt>
      <trkpt lat="41.653480070" lon="2.549966530">
        <ele>443.79</ele>
        <time>2015-12-26T07:04:37Z</time>
      </trkpt>
      <trkpt lat="41.653469000" lon="2.550034670">
        <ele>444.27</ele>
        <time>2015-12-26T07:04:40Z</time>
      </trkpt>
      <trkpt lat="41.653427180" lon="2.550153530">
        <ele>445.71</ele>
        <time>2015-12-26T07:04:46Z</time>
      </trkpt>
      <trkpt lat="41.653413680" lon="2.550180940">
        <ele>446.19</ele>
        <time>2015-12-26T07:04:48Z</time>
      </trkpt>
      <trkpt lat="41.653350650" lon="2.550408250">
        <ele>447.15</ele>
        <time>2015-12-26T07:04:58Z</time>
      </trkpt>
      <trkpt lat="41.653332130" lon="2.550628610">
        <ele>448.11</ele>
        <time>2015-12-26T07:05:05Z</time>
      </trkpt>
      <trkpt lat="41.653293320" lon="2.550856940">
        <ele>448.11</ele>
        <time>2015-12-26T07:05:12Z</time>
      </trkpt>
      <trkpt lat="41.653262390" lon="2.550936900">
        <ele>448.11</ele>
        <time>2015-12-26T07:05:15Z</time>
      </trkpt>
      <trkpt lat="41.653248140" lon="2.551034210">
        <ele>448.59</ele>
        <time>2015-12-26T07:05:22Z</time>
      </trkpt>
      <trkpt lat="41.653251660" lon="2.551037980">
        <ele>448.59</ele>
        <time>2015-12-26T07:05:38Z</time>
      </trkpt>
      <trkpt lat="41.653252160" lon="2.551037570">
        <ele>448.59</ele>
        <time>2015-12-26T07:05:56Z</time>
      </trkpt>
      <trkpt lat="41.653250320" lon="2.551037570">
        <ele>448.59</ele>
        <time>2015-12-26T07:06:11Z</time>
      </trkpt>
      <trkpt lat="41.653265570" lon="2.551070000">
        <ele>448.59</ele>
        <time>2015-12-26T07:06:16Z</time>
      </trkpt>
      <trkpt lat="41.653287450" lon="2.551128930">
        <ele>448.59</ele>
        <time>2015-12-26T07:06:20Z</time>
      </trkpt>
      <trkpt lat="41.653363560" lon="2.551290620">
        <ele>445.23</ele>
        <time>2015-12-26T07:06:28Z</time>
      </trkpt>
      <trkpt lat="41.653465320" lon="2.551476110">
        <ele>442.34</ele>
        <time>2015-12-26T07:06:35Z</time>
      </trkpt>
      <trkpt lat="41.653506470" lon="2.551544340">
        <ele>441.38</ele>
        <time>2015-12-26T07:06:37Z</time>
      </trkpt>
      <trkpt lat="41.653541260" lon="2.551617340">
        <ele>440.42</ele>
        <time>2015-12-26T07:06:39Z</time>
      </trkpt>
      <trkpt lat="41.653454750" lon="2.551841470">
        <ele>438.98</ele>
        <time>2015-12-26T07:06:44Z</time>
      </trkpt>
      <trkpt lat="41.653402530" lon="2.551905760">
        <ele>438.98</ele>
        <time>2015-12-26T07:06:46Z</time>
      </trkpt>
      <trkpt lat="41.653287540" lon="2.551984050">
        <ele>436.58</ele>
        <time>2015-12-26T07:06:49Z</time>
      </trkpt>
      <trkpt lat="41.653062980" lon="2.552073820">
        <ele>433.21</ele>
        <time>2015-12-26T07:06:54Z</time>
      </trkpt>
      <trkpt lat="41.652991490" lon="2.552128890">
        <ele>432.25</ele>
        <time>2015-12-26T07:06:56Z</time>
      </trkpt>
      <trkpt lat="41.652882690" lon="2.552223770">
        <ele>430.81</ele>
        <time>2015-12-26T07:06:59Z</time>
      </trkpt>
      <trkpt lat="41.652812200" lon="2.552280690">
        <ele>429.85</ele>
        <time>2015-12-26T07:07:01Z</time>
      </trkpt>
      <trkpt lat="41.652650760" lon="2.552468020">
        <ele>426.48</ele>
        <time>2015-12-26T07:07:06Z</time>
      </trkpt>
      <trkpt lat="41.652599380" lon="2.552551420">
        <ele>425.52</ele>
        <time>2015-12-26T07:07:08Z</time>
      </trkpt>
      <trkpt lat="41.652524870" lon="2.552699450">
        <ele>423.12</ele>
        <time>2015-12-26T07:07:13Z</time>
      </trkpt>
      <trkpt lat="41.652453540" lon="2.552862560">
        <ele>421.19</ele>
        <time>2015-12-26T07:07:18Z</time>
      </trkpt>
      <trkpt lat="41.652419920" lon="2.553085350">
        <ele>417.35</ele>
        <time>2015-12-26T07:07:24Z</time>
      </trkpt>
      <trkpt lat="41.652355470" lon="2.553402600">
        <ele>414.47</ele>
        <time>2015-12-26T07:07:30Z</time>
      </trkpt>
      <trkpt lat="41.652367370" lon="2.553607880">
        <ele>414.47</ele>
        <time>2015-12-26T07:07:35Z</time>
      </trkpt>
      <trkpt lat="41.652433750" lon="2.553785490">
        <ele>415.91</ele>
        <time>2015-12-26T07:07:42Z</time>
      </trkpt>
      <trkpt lat="41.652524450" lon="2.553916330">
        <ele>417.35</ele>
        <time>2015-12-26T07:07:48Z</time>
      </trkpt>
      <trkpt lat="41.652632410" lon="2.554111540">
        <ele>418.79</ele>
        <time>2015-12-26T07:07:56Z</time>
      </trkpt>
      <trkpt lat="41.652737430" lon="2.554246330">
        <ele>419.27</ele>
        <time>2015-12-26T07:08:02Z</time>
      </trkpt>
      <trkpt lat="41.652836840" lon="2.554408770">
        <ele>420.23</ele>
        <time>2015-12-26T07:08:09Z</time>
      </trkpt>
      <trkpt lat="41.652927780" lon="2.554521840">
        <ele>422.16</ele>
        <time>2015-12-26T07:08:16Z</time>
      </trkpt>
      <trkpt lat="41.652979500" lon="2.554566600">
        <ele>422.16</ele>
        <time>2015-12-26T07:08:20Z</time>
      </trkpt>
      <trkpt lat="41.653087540" lon="2.554641280">
        <ele>423.60</ele>
        <time>2015-12-26T07:08:28Z</time>
      </trkpt>
      <trkpt lat="41.653101460" lon="2.554649910">
        <ele>424.08</ele>
        <time>2015-12-26T07:08:29Z</time>
      </trkpt>
      <trkpt lat="41.653230290" lon="2.554710010">
        <ele>425.52</ele>
        <time>2015-12-26T07:08:37Z</time>
      </trkpt>
      <trkpt lat="41.653320060" lon="2.554757960">
        <ele>427.92</ele>
        <time>2015-12-26T07:08:44Z</time>
      </trkpt>
      <trkpt lat="41.653429690" lon="2.554788470">
        <ele>429.85</ele>
        <time>2015-12-26T07:08:52Z</time>
      </trkpt>
      <trkpt lat="41.653543020" lon="2.554871450">
        <ele>432.73</ele>
        <time>2015-12-26T07:09:01Z</time>
      </trkpt>
      <trkpt lat="41.653591380" lon="2.555010080">
        <ele>434.17</ele>
        <time>2015-12-26T07:09:09Z</time>
      </trkpt>
      <trkpt lat="41.653654490" lon="2.555125000">
        <ele>436.10</ele>
        <time>2015-12-26T07:09:16Z</time>
      </trkpt>
      <trkpt lat="41.653696570" lon="2.555189040">
        <ele>437.06</ele>
        <time>2015-12-26T07:09:21Z</time>
      </trkpt>
      <trkpt lat="41.653805200" lon="2.555252490">
        <ele>438.50</ele>
        <time>2015-12-26T07:09:30Z</time>
      </trkpt>
      <trkpt lat="41.653873600" lon="2.555272020">
        <ele>440.90</ele>
        <time>2015-12-26T07:09:37Z</time>
      </trkpt>
      <trkpt lat="41.653882820" lon="2.555276460">
        <ele>441.38</ele>
        <time>2015-12-26T07:09:38Z</time>
      </trkpt>
      <trkpt lat="41.653973590" lon="2.555347120">
        <ele>443.31</ele>
        <time>2015-12-26T07:09:47Z</time>
      </trkpt>
      <trkpt lat="41.654009220" lon="2.555399590">
        <ele>444.75</ele>
        <time>2015-12-26T07:09:53Z</time>
      </trkpt>
      <trkpt lat="41.654037210" lon="2.555469160">
        <ele>444.75</ele>
        <time>2015-12-26T07:09:59Z</time>
      </trkpt>
      <trkpt lat="41.654037130" lon="2.555687680">
        <ele>445.71</ele>
        <time>2015-12-26T07:10:07Z</time>
      </trkpt>
      <trkpt lat="41.653961610" lon="2.555753560">
        <ele>446.67</ele>
        <time>2015-12-26T07:10:14Z</time>
      </trkpt>
      <trkpt lat="41.653849880" lon="2.555819690">
        <ele>448.59</ele>
        <time>2015-12-26T07:10:24Z</time>
      </trkpt>
      <trkpt lat="41.653796230" lon="2.555879790">
        <ele>449.55</ele>
        <time>2015-12-26T07:10:29Z</time>
      </trkpt>
      <trkpt lat="41.653699590" lon="2.555957660">
        <ele>451.48</ele>
        <time>2015-12-26T07:10:37Z</time>
      </trkpt>
      <trkpt lat="41.653663210" lon="2.555991860">
        <ele>451.96</ele>
        <time>2015-12-26T07:10:40Z</time>
      </trkpt>
      <trkpt lat="41.653576120" lon="2.556029740">
        <ele>452.92</ele>
        <time>2015-12-26T07:10:47Z</time>
      </trkpt>
      <trkpt lat="41.653440670" lon="2.556038380">
        <ele>453.88</ele>
        <time>2015-12-26T07:10:55Z</time>
      </trkpt>
      <trkpt lat="41.653309080" lon="2.556043490">
        <ele>453.88</ele>
        <time>2015-12-26T07:11:01Z</time>
      </trkpt>
      <trkpt lat="41.653199530" lon="2.556085400">
        <ele>453.88</ele>
        <time>2015-12-26T07:11:06Z</time>
      </trkpt>
      <trkpt lat="41.653046890" lon="2.556196380">
        <ele>453.88</ele>
        <time>2015-12-26T07:11:14Z</time>
      </trkpt>
      <trkpt lat="41.652825360" lon="2.556347420">
        <ele>452.92</ele>
        <time>2015-12-26T07:11:21Z</time>
      </trkpt>
      <trkpt lat="41.652572730" lon="2.556644720">
        <ele>451.00</ele>
        <time>2015-12-26T07:11:28Z</time>
      </trkpt>
      <trkpt lat="41.652363930" lon="2.556883690">
        <ele>450.52</ele>
        <time>2015-12-26T07:11:35Z</time>
      </trkpt>
      <trkpt lat="41.652267370" lon="2.556994670">
        <ele>452.44</ele>
        <time>2015-12-26T07:11:41Z</time>
      </trkpt>
      <trkpt lat="41.652165870" lon="2.557109330">
        <ele>454.84</ele>
        <time>2015-12-26T07:11:50Z</time>
      </trkpt>
      <trkpt lat="41.652050620" lon="2.557224330">
        <ele>457.72</ele>
        <time>2015-12-26T07:12:00Z</time>
      </trkpt>
      <trkpt lat="41.651925390" lon="2.557330360">
        <ele>460.13</ele>
        <time>2015-12-26T07:12:11Z</time>
      </trkpt>
      <trkpt lat="41.651843330" lon="2.557407140">
        <ele>463.01</ele>
        <time>2015-12-26T07:12:19Z</time>
      </trkpt>
      <trkpt lat="41.651803940" lon="2.557496910">
        <ele>464.93</ele>
        <time>2015-12-26T07:12:25Z</time>
      </trkpt>
      <trkpt lat="41.651797570" lon="2.557523480">
        <ele>465.42</ele>
        <time>2015-12-26T07:12:27Z</time>
      </trkpt>
      <trkpt lat="41.651777790" lon="2.557646530">
        <ele>466.86</ele>
        <time>2015-12-26T07:12:36Z</time>
      </trkpt>
      <trkpt lat="41.651768400" lon="2.557705620">
        <ele>467.82</ele>
        <time>2015-12-26T07:12:40Z</time>
      </trkpt>
      <trkpt lat="41.651786250" lon="2.557887010">
        <ele>469.26</ele>
        <time>2015-12-26T07:12:51Z</time>
      </trkpt>
      <trkpt lat="41.651819860" lon="2.557956910">
        <ele>469.26</ele>
        <time>2015-12-26T07:12:55Z</time>
      </trkpt>
      <trkpt lat="41.651874850" lon="2.558005020">
        <ele>470.22</ele>
        <time>2015-12-26T07:13:00Z</time>
      </trkpt>
      <trkpt lat="41.651975180" lon="2.558163690">
        <ele>472.14</ele>
        <time>2015-12-26T07:13:11Z</time>
      </trkpt>
      <trkpt lat="41.652009130" lon="2.558290760">
        <ele>473.11</ele>
        <time>2015-12-26T07:13:18Z</time>
      </trkpt>
      <trkpt lat="41.652042150" lon="2.558435940">
        <ele>475.03</ele>
        <time>2015-12-26T07:13:26Z</time>
      </trkpt>
      <trkpt lat="41.652057160" lon="2.558519080">
        <ele>476.47</ele>
        <time>2015-12-26T07:13:32Z</time>
      </trkpt>
      <trkpt lat="41.652075930" lon="2.558642630">
        <ele>478.39</ele>
        <time>2015-12-26T07:13:40Z</time>
      </trkpt>
      <trkpt lat="41.652075090" lon="2.558723770">
        <ele>478.87</ele>
        <time>2015-12-26T07:13:44Z</time>
      </trkpt>
      <trkpt lat="41.652085740" lon="2.558844720">
        <ele>479.84</ele>
        <time>2015-12-26T07:13:51Z</time>
      </trkpt>
      <trkpt lat="41.652093280" lon="2.559038850">
        <ele>482.24</ele>
        <time>2015-12-26T07:14:02Z</time>
      </trkpt>
      <trkpt lat="41.652108290" lon="2.559207830">
        <ele>483.68</ele>
        <time>2015-12-26T07:14:10Z</time>
      </trkpt>
      <trkpt lat="41.652118680" lon="2.559341180">
        <ele>485.12</ele>
        <time>2015-12-26T07:14:17Z</time>
      </trkpt>
      <trkpt lat="41.652125800" lon="2.559421400">
        <ele>485.60</ele>
        <time>2015-12-26T07:14:21Z</time>
      </trkpt>
      <trkpt lat="41.652217670" lon="2.559598760">
        <ele>486.08</ele>
        <time>2015-12-26T07:14:29Z</time>
      </trkpt>
      <trkpt lat="41.652393440" lon="2.559811830">
        <ele>486.56</ele>
        <time>2015-12-26T07:14:38Z</time>
      </trkpt>
      <trkpt lat="41.652523110" lon="2.559945600">
        <ele>486.56</ele>
        <time>2015-12-26T07:14:45Z</time>
      </trkpt>
      <trkpt lat="41.652665180" lon="2.560082310">
        <ele>486.56</ele>
        <time>2015-12-26T07:14:53Z</time>
      </trkpt>
      <trkpt lat="41.652828120" lon="2.560199740">
        <ele>487.53</ele>
        <time>2015-12-26T07:15:01Z</time>
      </trkpt>
      <trkpt lat="41.652949240" lon="2.560268220">
        <ele>488.97</ele>
        <time>2015-12-26T07:15:09Z</time>
      </trkpt>
      <trkpt lat="41.653065250" lon="2.560308700">
        <ele>490.89</ele>
        <time>2015-12-26T07:15:17Z</time>
      </trkpt>
      <trkpt lat="41.653177230" lon="2.560376180">
        <ele>491.37</ele>
        <time>2015-12-26T07:15:25Z</time>
      </trkpt>
      <trkpt lat="41.653259460" lon="2.560414570">
        <ele>492.81</ele>
        <time>2015-12-26T07:15:32Z</time>
      </trkpt>
      <trkpt lat="41.653356350" lon="2.560451530">
        <ele>495.70</ele>
        <time>2015-12-26T07:15:40Z</time>
      </trkpt>
      <trkpt lat="41.653410750" lon="2.560471980">
        <ele>497.62</ele>
        <time>2015-12-26T07:15:46Z</time>
      </trkpt>
      <trkpt lat="41.653454000" lon="2.560513060">
        <ele>498.58</ele>
        <time>2015-12-26T07:15:50Z</time>
      </trkpt>
      <trkpt lat="41.653462300" lon="2.560651020">
        <ele>500.50</ele>
        <time>2015-12-26T07:15:57Z</time>
      </trkpt>
      <trkpt lat="41.653418460" lon="2.560766020">
        <ele>502.43</ele>
        <time>2015-12-26T07:16:04Z</time>
      </trkpt>
      <trkpt lat="41.653357270" lon="2.560851680">
        <ele>504.35</ele>
        <time>2015-12-26T07:16:12Z</time>
      </trkpt>
      <trkpt lat="41.653270180" lon="2.560928380">
        <ele>505.79</ele>
        <time>2015-12-26T07:16:21Z</time>
      </trkpt>
      <trkpt lat="41.653259040" lon="2.560940450">
        <ele>506.75</ele>
        <time>2015-12-26T07:16:26Z</time>
      </trkpt>
      <trkpt lat="41.653210510" lon="2.560960400">
        <ele>507.23</ele>
        <time>2015-12-26T07:16:35Z</time>
      </trkpt>
      <trkpt lat="41.653185860" lon="2.561012280">
        <ele>508.67</ele>
        <time>2015-12-26T07:16:43Z</time>
      </trkpt>
      <trkpt lat="41.653178320" lon="2.561033990">
        <ele>509.16</ele>
        <time>2015-12-26T07:16:52Z</time>
      </trkpt>
      <trkpt lat="41.653172370" lon="2.561058630">
        <ele>509.64</ele>
        <time>2015-12-26T07:16:54Z</time>
      </trkpt>
      <trkpt lat="41.653080750" lon="2.561174890">
        <ele>512.52</ele>
        <time>2015-12-26T07:17:06Z</time>
      </trkpt>
      <trkpt lat="41.653005060" lon="2.561270860">
        <ele>514.92</ele>
        <time>2015-12-26T07:17:16Z</time>
      </trkpt>
      <trkpt lat="41.652939940" lon="2.561406900">
        <ele>517.33</ele>
        <time>2015-12-26T07:17:27Z</time>
      </trkpt>
      <trkpt lat="41.652884780" lon="2.561542860">
        <ele>519.73</ele>
        <time>2015-12-26T07:17:37Z</time>
      </trkpt>
      <trkpt lat="41.652811110" lon="2.561648890">
        <ele>522.13</ele>
        <time>2015-12-26T07:17:47Z</time>
      </trkpt>
      <trkpt lat="41.652751260" lon="2.561768830">
        <ele>523.58</ele>
        <time>2015-12-26T07:17:56Z</time>
      </trkpt>
      <trkpt lat="41.652755540" lon="2.561857600">
        <ele>525.02</ele>
        <time>2015-12-26T07:18:02Z</time>
      </trkpt>
      <trkpt lat="41.652781940" lon="2.561977120">
        <ele>525.50</ele>
        <time>2015-12-26T07:18:09Z</time>
      </trkpt>
      <trkpt lat="41.652812620" lon="2.562146020">
        <ele>525.98</ele>
        <time>2015-12-26T07:18:18Z</time>
      </trkpt>
      <trkpt lat="41.652838180" lon="2.562349360">
        <ele>525.98</ele>
        <time>2015-12-26T07:18:23Z</time>
      </trkpt>
      <trkpt lat="41.652859220" lon="2.562526720">
        <ele>523.58</ele>
        <time>2015-12-26T07:18:26Z</time>
      </trkpt>
      <trkpt lat="41.652999530" lon="2.562832330">
        <ele>522.61</ele>
        <time>2015-12-26T07:18:31Z</time>
      </trkpt>
      <trkpt lat="41.653032640" lon="2.562874320">
        <ele>522.61</ele>
        <time>2015-12-26T07:18:32Z</time>
      </trkpt>
      <trkpt lat="41.653159960" lon="2.563037600">
        <ele>524.06</ele>
        <time>2015-12-26T07:18:38Z</time>
      </trkpt>
      <trkpt lat="41.653174460" lon="2.563048580">
        <ele>524.06</ele>
        <time>2015-12-26T07:18:39Z</time>
      </trkpt>
      <trkpt lat="41.653204220" lon="2.563074980">
        <ele>525.02</ele>
        <time>2015-12-26T07:18:41Z</time>
      </trkpt>
      <trkpt lat="41.653227520" lon="2.563093420">
        <ele>525.50</ele>
        <time>2015-12-26T07:18:43Z</time>
      </trkpt>
      <trkpt lat="41.653311840" lon="2.563162830">
        <ele>527.90</ele>
        <time>2015-12-26T07:18:51Z</time>
      </trkpt>
      <trkpt lat="41.653401030" lon="2.563234160">
        <ele>529.34</ele>
        <time>2015-12-26T07:18:59Z</time>
      </trkpt>
      <trkpt lat="41.653480490" lon="2.563321830">
        <ele>531.27</ele>
        <time>2015-12-26T07:19:08Z</time>
      </trkpt>
      <trkpt lat="41.653546870" lon="2.563408840">
        <ele>533.67</ele>
        <time>2015-12-26T07:19:16Z</time>
      </trkpt>
      <trkpt lat="41.653604710" lon="2.563515200">
        <ele>536.55</ele>
        <time>2015-12-26T07:19:25Z</time>
      </trkpt>
      <trkpt lat="41.653667240" lon="2.563633050">
        <ele>539.44</ele>
        <time>2015-12-26T07:19:35Z</time>
      </trkpt>
      <trkpt lat="41.653723980" lon="2.563745870">
        <ele>540.88</ele>
        <time>2015-12-26T07:19:44Z</time>
      </trkpt>
      <trkpt lat="41.653759270" lon="2.563844610">
        <ele>542.80</ele>
        <time>2015-12-26T07:19:52Z</time>
      </trkpt>
      <trkpt lat="41.653802440" lon="2.563958770">
        <ele>544.72</ele>
        <time>2015-12-26T07:20:01Z</time>
      </trkpt>
      <trkpt lat="41.653855830" lon="2.564072600">
        <ele>546.17</ele>
        <time>2015-12-26T07:20:09Z</time>
      </trkpt>
      <trkpt lat="41.653873850" lon="2.564103780">
        <ele>547.13</ele>
        <time>2015-12-26T07:20:12Z</time>
      </trkpt>
      <trkpt lat="41.653943500" lon="2.564192960">
        <ele>549.05</ele>
        <time>2015-12-26T07:20:21Z</time>
      </trkpt>
      <trkpt lat="41.653972500" lon="2.564218190">
        <ele>550.49</ele>
        <time>2015-12-26T07:20:25Z</time>
      </trkpt>
      <trkpt lat="41.654040150" lon="2.564280550">
        <ele>552.41</ele>
        <time>2015-12-26T07:20:33Z</time>
      </trkpt>
      <trkpt lat="41.654112650" lon="2.564330340">
        <ele>553.86</ele>
        <time>2015-12-26T07:20:41Z</time>
      </trkpt>
      <trkpt lat="41.654180210" lon="2.564374600">
        <ele>554.82</ele>
        <time>2015-12-26T07:20:48Z</time>
      </trkpt>
      <trkpt lat="41.654242320" lon="2.564423300">
        <ele>555.30</ele>
        <time>2015-12-26T07:20:54Z</time>
      </trkpt>
      <trkpt lat="41.654298640" lon="2.564471830">
        <ele>556.26</ele>
        <time>2015-12-26T07:21:00Z</time>
      </trkpt>
      <trkpt lat="41.654350530" lon="2.564518930">
        <ele>556.26</ele>
        <time>2015-12-26T07:21:05Z</time>
      </trkpt>
      <trkpt lat="41.654489840" lon="2.564684140">
        <ele>556.26</ele>
        <time>2015-12-26T07:21:13Z</time>
      </trkpt>
      <trkpt lat="41.654548760" lon="2.564832330">
        <ele>553.86</ele>
        <time>2015-12-26T07:21:17Z</time>
      </trkpt>
      <trkpt lat="41.654589830" lon="2.564981780">
        <ele>551.45</ele>
        <time>2015-12-26T07:21:20Z</time>
      </trkpt>
      <trkpt lat="41.654672730" lon="2.565118160">
        <ele>549.05</ele>
        <time>2015-12-26T07:21:23Z</time>
      </trkpt>
      <trkpt lat="41.654876240" lon="2.565324600">
        <ele>544.72</ele>
        <time>2015-12-26T07:21:27Z</time>
      </trkpt>
      <trkpt lat="41.654964670" lon="2.565507330">
        <ele>541.36</ele>
        <time>2015-12-26T07:21:30Z</time>
      </trkpt>
      <trkpt lat="41.654955700" lon="2.565588800">
        <ele>541.36</ele>
        <time>2015-12-26T07:21:32Z</time>
      </trkpt>
      <trkpt lat="41.654939940" lon="2.565631720">
        <ele>542.80</ele>
        <time>2015-12-26T07:21:34Z</time>
      </trkpt>
      <trkpt lat="41.654905580" lon="2.565720560">
        <ele>545.20</ele>
        <time>2015-12-26T07:21:39Z</time>
      </trkpt>
      <trkpt lat="41.654838770" lon="2.565814270">
        <ele>547.13</ele>
        <time>2015-12-26T07:21:47Z</time>
      </trkpt>
      <trkpt lat="41.654810610" lon="2.565867580">
        <ele>548.09</ele>
        <time>2015-12-26T07:21:51Z</time>
      </trkpt>
      <trkpt lat="41.654825950" lon="2.566007980">
        <ele>550.01</ele>
        <time>2015-12-26T07:22:00Z</time>
      </trkpt>
      <trkpt lat="41.654864340" lon="2.566074870">
        <ele>550.49</ele>
        <time>2015-12-26T07:22:08Z</time>
      </trkpt>
      <trkpt lat="41.654872550" lon="2.566083500">
        <ele>550.97</ele>
        <time>2015-12-26T07:22:22Z</time>
      </trkpt>
      <trkpt lat="41.654906420" lon="2.566097410">
        <ele>551.45</ele>
        <time>2015-12-26T07:22:30Z</time>
      </trkpt>
      <trkpt lat="41.654928540" lon="2.566139660">
        <ele>551.93</ele>
        <time>2015-12-26T07:22:36Z</time>
      </trkpt>
      <trkpt lat="41.654937260" lon="2.566182240">
        <ele>552.41</ele>
        <time>2015-12-26T07:22:41Z</time>
      </trkpt>
      <trkpt lat="41.654935670" lon="2.566193050">
        <ele>552.41</ele>
        <time>2015-12-26T07:22:42Z</time>
      </trkpt>
      <trkpt lat="41.654969280" lon="2.566271510">
        <ele>553.86</ele>
        <time>2015-12-26T07:22:50Z</time>
      </trkpt>
      <trkpt lat="41.654981770" lon="2.566292630">
        <ele>553.86</ele>
        <time>2015-12-26T07:22:52Z</time>
      </trkpt>
      <trkpt lat="41.654983610" lon="2.566382230">
        <ele>555.30</ele>
        <time>2015-12-26T07:22:59Z</time>
      </trkpt>
      <trkpt lat="41.654977240" lon="2.566505190">
        <ele>555.78</ele>
        <time>2015-12-26T07:23:07Z</time>
      </trkpt>
      <trkpt lat="41.654964500" lon="2.566582390">
        <ele>555.78</ele>
        <time>2015-12-26T07:23:13Z</time>
      </trkpt>
      <trkpt lat="41.654907090" lon="2.566617510">
        <ele>556.26</ele>
        <time>2015-12-26T07:23:20Z</time>
      </trkpt>
      <trkpt lat="41.654848080" lon="2.566667130">
        <ele>556.26</ele>
        <time>2015-12-26T07:23:28Z</time>
      </trkpt>
      <trkpt lat="41.654840110" lon="2.566673670">
        <ele>556.26</ele>
        <time>2015-12-26T07:23:29Z</time>
      </trkpt>
      <trkpt lat="41.654771970" lon="2.566720690">
        <ele>556.74</ele>
        <time>2015-12-26T07:23:36Z</time>
      </trkpt>
      <trkpt lat="41.654728800" lon="2.566781550">
        <ele>556.74</ele>
        <time>2015-12-26T07:23:41Z</time>
      </trkpt>
      <trkpt lat="41.654657560" lon="2.566851200">
        <ele>557.22</ele>
        <time>2015-12-26T07:23:49Z</time>
      </trkpt>
      <trkpt lat="41.654606850" lon="2.566913140">
        <ele>557.70</ele>
        <time>2015-12-26T07:23:55Z</time>
      </trkpt>
      <trkpt lat="41.654545160" lon="2.566986990">
        <ele>557.70</ele>
        <time>2015-12-26T07:24:01Z</time>
      </trkpt>
      <trkpt lat="41.654489500" lon="2.567075830">
        <ele>557.70</ele>
        <time>2015-12-26T07:24:07Z</time>
      </trkpt>
      <trkpt lat="41.654405930" lon="2.567272560">
        <ele>557.70</ele>
        <time>2015-12-26T07:24:16Z</time>
      </trkpt>
      <trkpt lat="41.654356810" lon="2.567467100">
        <ele>557.70</ele>
        <time>2015-12-26T07:24:24Z</time>
      </trkpt>
      <trkpt lat="41.654331080" lon="2.567684440">
        <ele>557.70</ele>
        <time>2015-12-26T07:24:33Z</time>
      </trkpt>
      <trkpt lat="41.654415570" lon="2.567815290">
        <ele>559.62</ele>
        <time>2015-12-26T07:24:41Z</time>
      </trkpt>
      <trkpt lat="41.654492940" lon="2.567911430">
        <ele>561.07</ele>
        <time>2015-12-26T07:24:48Z</time>
      </trkpt>
      <trkpt lat="41.654601400" lon="2.568010580">
        <ele>562.99</ele>
        <time>2015-12-26T07:24:56Z</time>
      </trkpt>
      <trkpt lat="41.654685720" lon="2.568097920">
        <ele>564.43</ele>
        <time>2015-12-26T07:25:04Z</time>
      </trkpt>
      <trkpt lat="41.654777500" lon="2.568169000">
        <ele>565.39</ele>
        <time>2015-12-26T07:25:12Z</time>
      </trkpt>
      <trkpt lat="41.654831980" lon="2.568193310">
        <ele>566.35</ele>
        <time>2015-12-26T07:25:16Z</time>
      </trkpt>
      <trkpt lat="41.655008000" lon="2.568249300">
        <ele>568.76</ele>
        <time>2015-12-26T07:25:29Z</time>
      </trkpt>
      <trkpt lat="41.655167010" lon="2.568265310">
        <ele>571.16</ele>
        <time>2015-12-26T07:25:41Z</time>
      </trkpt>
      <trkpt lat="41.655276310" lon="2.568262710">
        <ele>572.60</ele>
        <time>2015-12-26T07:25:49Z</time>
      </trkpt>
      <trkpt lat="41.655410340" lon="2.568288440">
        <ele>574.53</ele>
        <time>2015-12-26T07:25:59Z</time>
      </trkpt>
      <trkpt lat="41.655488370" lon="2.568334880">
        <ele>575.49</ele>
        <time>2015-12-26T07:26:05Z</time>
      </trkpt>
      <trkpt lat="41.655574620" lon="2.568390200">
        <ele>575.97</ele>
        <time>2015-12-26T07:26:11Z</time>
      </trkpt>
      <trkpt lat="41.655718200" lon="2.568467650">
        <ele>576.93</ele>
        <time>2015-12-26T07:26:20Z</time>
      </trkpt>
      <trkpt lat="41.655733120" lon="2.568474350">
        <ele>576.93</ele>
        <time>2015-12-26T07:26:21Z</time>
      </trkpt>
      <trkpt lat="41.655825580" lon="2.568481730">
        <ele>577.41</ele>
        <time>2015-12-26T07:26:26Z</time>
      </trkpt>
      <trkpt lat="41.656028420" lon="2.568428250">
        <ele>577.89</ele>
        <time>2015-12-26T07:26:37Z</time>
      </trkpt>
      <trkpt lat="41.656199830" lon="2.568388440">
        <ele>578.37</ele>
        <time>2015-12-26T07:26:46Z</time>
      </trkpt>
      <trkpt lat="41.656338800" lon="2.568416100">
        <ele>578.37</ele>
        <time>2015-12-26T07:26:54Z</time>
      </trkpt>
      <trkpt lat="41.656392610" lon="2.568369410">
        <ele>578.85</ele>
        <time>2015-12-26T07:26:58Z</time>
      </trkpt>
      <trkpt lat="41.656383310" lon="2.568269500">
        <ele>579.81</ele>
        <time>2015-12-26T07:27:03Z</time>
      </trkpt>
      <trkpt lat="41.656333690" lon="2.568093650">
        <ele>581.73</ele>
        <time>2015-12-26T07:27:13Z</time>
      </trkpt>
      <trkpt lat="41.656285660" lon="2.567945540">
        <ele>584.14</ele>
        <time>2015-12-26T07:27:22Z</time>
      </trkpt>
      <trkpt lat="41.656255320" lon="2.567800200">
        <ele>585.58</ele>
        <time>2015-12-26T07:27:31Z</time>
      </trkpt>
      <trkpt lat="41.656227820" lon="2.567632900">
        <ele>587.50</ele>
        <time>2015-12-26T07:27:40Z</time>
      </trkpt>
      <trkpt lat="41.656199320" lon="2.567403230">
        <ele>589.43</ele>
        <time>2015-12-26T07:27:51Z</time>
      </trkpt>
      <trkpt lat="41.656171580" lon="2.567220250">
        <ele>590.87</ele>
        <time>2015-12-26T07:28:00Z</time>
      </trkpt>
      <trkpt lat="41.656122710" lon="2.567056140">
        <ele>591.83</ele>
        <time>2015-12-26T07:28:08Z</time>
      </trkpt>
      <trkpt lat="41.656073010" lon="2.566872740">
        <ele>592.79</ele>
        <time>2015-12-26T07:28:17Z</time>
      </trkpt>
      <trkpt lat="41.656014080" lon="2.566678530">
        <ele>593.75</ele>
        <time>2015-12-26T07:28:26Z</time>
      </trkpt>
      <trkpt lat="41.655940580" lon="2.566451210">
        <ele>594.71</ele>
        <time>2015-12-26T07:28:37Z</time>
      </trkpt>
      <trkpt lat="41.655891790" lon="2.566281060">
        <ele>595.67</ele>
        <time>2015-12-26T07:28:45Z</time>
      </trkpt>
      <trkpt lat="41.655872010" lon="2.566101770">
        <ele>597.12</ele>
        <time>2015-12-26T07:28:53Z</time>
      </trkpt>
      <trkpt lat="41.655884080" lon="2.566034720">
        <ele>597.60</ele>
        <time>2015-12-26T07:28:56Z</time>
      </trkpt>
      <trkpt lat="41.656012990" lon="2.565904040">
        <ele>600.48</ele>
        <time>2015-12-26T07:29:07Z</time>
      </trkpt>
      <trkpt lat="41.656113410" lon="2.565866660">
        <ele>601.92</ele>
        <time>2015-12-26T07:29:16Z</time>
      </trkpt>
      <trkpt lat="41.656225900" lon="2.565817120">
        <ele>603.36</ele>
        <time>2015-12-26T07:29:26Z</time>
      </trkpt>
      <trkpt lat="41.656341730" lon="2.565803380">
        <ele>604.33</ele>
        <time>2015-12-26T07:29:35Z</time>
      </trkpt>
      <trkpt lat="41.656402920" lon="2.565809580">
        <ele>605.29</ele>
        <time>2015-12-26T07:29:40Z</time>
      </trkpt>
      <trkpt lat="41.656516830" lon="2.565827430">
        <ele>607.69</ele>
        <time>2015-12-26T07:29:50Z</time>
      </trkpt>
      <trkpt lat="41.656576260" lon="2.565835480">
        <ele>608.65</ele>
        <time>2015-12-26T07:29:56Z</time>
      </trkpt>
      <trkpt lat="41.656664600" lon="2.565842520">
        <ele>610.57</ele>
        <time>2015-12-26T07:30:04Z</time>
      </trkpt>
      <trkpt lat="41.656740880" lon="2.565846040">
        <ele>612.02</ele>
        <time>2015-12-26T07:30:11Z</time>
      </trkpt>
      <trkpt lat="41.656856550" lon="2.565858110">
        <ele>614.42</ele>
        <time>2015-12-26T07:30:21Z</time>
      </trkpt>
      <trkpt lat="41.656915560" lon="2.565856520">
        <ele>615.38</ele>
        <time>2015-12-26T07:30:26Z</time>
      </trkpt>
      <trkpt lat="41.657004410" lon="2.565806230">
        <ele>616.34</ele>
        <time>2015-12-26T07:30:34Z</time>
      </trkpt>
      <trkpt lat="41.657042210" lon="2.565770190">
        <ele>617.30</ele>
        <time>2015-12-26T07:30:38Z</time>
      </trkpt>
      <trkpt lat="41.657125360" lon="2.565715700">
        <ele>619.23</ele>
        <time>2015-12-26T07:30:47Z</time>
      </trkpt>
      <trkpt lat="41.657215800" lon="2.565687120">
        <ele>621.15</ele>
        <time>2015-12-26T07:30:56Z</time>
      </trkpt>
      <trkpt lat="41.657239270" lon="2.565702290">
        <ele>621.63</ele>
        <time>2015-12-26T07:30:59Z</time>
      </trkpt>
      <trkpt lat="41.657250420" lon="2.565737830">
        <ele>622.59</ele>
        <time>2015-12-26T07:31:02Z</time>
      </trkpt>
      <trkpt lat="41.657184950" lon="2.565827100">
        <ele>622.59</ele>
        <time>2015-12-26T07:31:10Z</time>
      </trkpt>
      <trkpt lat="41.657084200" lon="2.565946960">
        <ele>623.55</ele>
        <time>2015-12-26T07:31:19Z</time>
      </trkpt>
      <trkpt lat="41.657061240" lon="2.565973700">
        <ele>623.55</ele>
        <time>2015-12-26T07:31:21Z</time>
      </trkpt>
      <trkpt lat="41.656944390" lon="2.566155920">
        <ele>624.03</ele>
        <time>2015-12-26T07:31:29Z</time>
      </trkpt>
      <trkpt lat="41.656839120" lon="2.566307720">
        <ele>622.11</ele>
        <time>2015-12-26T07:31:35Z</time>
      </trkpt>
      <trkpt lat="41.656731240" lon="2.566501090">
        <ele>621.63</ele>
        <time>2015-12-26T07:31:42Z</time>
      </trkpt>
      <trkpt lat="41.656721100" lon="2.566690100">
        <ele>620.19</ele>
        <time>2015-12-26T07:31:46Z</time>
      </trkpt>
      <trkpt lat="41.656870130" lon="2.567073240">
        <ele>619.23</ele>
        <time>2015-12-26T07:31:54Z</time>
      </trkpt>
      <trkpt lat="41.657028970" lon="2.567329050">
        <ele>619.23</ele>
        <time>2015-12-26T07:32:02Z</time>
      </trkpt>
      <trkpt lat="41.657157540" lon="2.567538770">
        <ele>620.67</ele>
        <time>2015-12-26T07:32:10Z</time>
      </trkpt>
      <trkpt lat="41.657269690" lon="2.567801710">
        <ele>620.67</ele>
        <time>2015-12-26T07:32:19Z</time>
      </trkpt>
      <trkpt lat="41.657311520" lon="2.568038750">
        <ele>621.15</ele>
        <time>2015-12-26T07:32:27Z</time>
      </trkpt>
      <trkpt lat="41.657356610" lon="2.568309570">
        <ele>621.15</ele>
        <time>2015-12-26T07:32:35Z</time>
      </trkpt>
      <trkpt lat="41.657445380" lon="2.568474020">
        <ele>621.15</ele>
        <time>2015-12-26T07:32:39Z</time>
      </trkpt>
      <trkpt lat="41.657498770" lon="2.568716260">
        <ele>621.15</ele>
        <time>2015-12-26T07:32:44Z</time>
      </trkpt>
      <trkpt lat="41.657479410" lon="2.568786080">
        <ele>621.15</ele>
        <time>2015-12-26T07:32:47Z</time>
      </trkpt>
      <trkpt lat="41.657404560" lon="2.569002410">
        <ele>622.11</ele>
        <time>2015-12-26T07:32:56Z</time>
      </trkpt>
      <trkpt lat="41.657400790" lon="2.569158320">
        <ele>619.71</ele>
        <time>2015-12-26T07:33:00Z</time>
      </trkpt>
      <trkpt lat="41.657353510" lon="2.569423100">
        <ele>617.78</ele>
        <time>2015-12-26T07:33:04Z</time>
      </trkpt>
      <trkpt lat="41.657295510" lon="2.569541870">
        <ele>617.78</ele>
        <time>2015-12-26T07:33:06Z</time>
      </trkpt>
      <trkpt lat="41.657200630" lon="2.569809840">
        <ele>617.78</ele>
        <time>2015-12-26T07:33:13Z</time>
      </trkpt>
      <trkpt lat="41.657181930" lon="2.569959040">
        <ele>619.23</ele>
        <time>2015-12-26T07:33:18Z</time>
      </trkpt>
      <trkpt lat="41.657186380" lon="2.570155680">
        <ele>621.15</ele>
        <time>2015-12-26T07:33:26Z</time>
      </trkpt>
      <trkpt lat="41.657243460" lon="2.570314520">
        <ele>623.07</ele>
        <time>2015-12-26T07:33:33Z</time>
      </trkpt>
      <trkpt lat="41.657377320" lon="2.570436560">
        <ele>623.55</ele>
        <time>2015-12-26T07:33:40Z</time>
      </trkpt>
      <trkpt lat="41.657565160" lon="2.570425660">
        <ele>623.07</ele>
        <time>2015-12-26T07:33:48Z</time>
      </trkpt>
      <trkpt lat="41.657777050" lon="2.570407050">
        <ele>624.03</ele>
        <time>2015-12-26T07:33:58Z</time>
      </trkpt>
      <trkpt lat="41.657938570" lon="2.570419040">
        <ele>625.96</ele>
        <time>2015-12-26T07:34:07Z</time>
      </trkpt>
      <trkpt lat="41.658098660" lon="2.570415100">
        <ele>628.36</ele>
        <time>2015-12-26T07:34:16Z</time>
      </trkpt>
      <trkpt lat="41.658227330" lon="2.570467150">
        <ele>629.32</ele>
        <time>2015-12-26T07:34:24Z</time>
      </trkpt>
      <trkpt lat="41.658239140" lon="2.570471850">
        <ele>629.32</ele>
        <time>2015-12-26T07:34:25Z</time>
      </trkpt>
      <trkpt lat="41.658350200" lon="2.570571510">
        <ele>630.76</ele>
        <time>2015-12-26T07:34:33Z</time>
      </trkpt>
      <trkpt lat="41.658402760" lon="2.570629850">
        <ele>631.24</ele>
        <time>2015-12-26T07:34:37Z</time>
      </trkpt>
      <trkpt lat="41.658455310" lon="2.570814500">
        <ele>631.24</ele>
        <time>2015-12-26T07:34:44Z</time>
      </trkpt>
      <trkpt lat="41.658409880" lon="2.570986750">
        <ele>632.20</ele>
        <time>2015-12-26T07:34:51Z</time>
      </trkpt>
      <trkpt lat="41.658364370" lon="2.571083560">
        <ele>632.68</ele>
        <time>2015-12-26T07:34:56Z</time>
      </trkpt>
      <trkpt lat="41.658274770" lon="2.571275000">
        <ele>633.65</ele>
        <time>2015-12-26T07:35:05Z</time>
      </trkpt>
      <trkpt lat="41.658234370" lon="2.571462340">
        <ele>634.61</ele>
        <time>2015-12-26T07:35:13Z</time>
      </trkpt>
      <trkpt lat="41.658183910" lon="2.571678500">
        <ele>634.61</ele>
        <time>2015-12-26T07:35:21Z</time>
      </trkpt>
      <trkpt lat="41.658127580" lon="2.571988550">
        <ele>635.09</ele>
        <time>2015-12-26T07:35:31Z</time>
      </trkpt>
      <trkpt lat="41.658117190" lon="2.572212940">
        <ele>635.57</ele>
        <time>2015-12-26T07:35:39Z</time>
      </trkpt>
      <trkpt lat="41.658142920" lon="2.572413850">
        <ele>637.01</ele>
        <time>2015-12-26T07:35:47Z</time>
      </trkpt>
      <trkpt lat="41.658157420" lon="2.572539750">
        <ele>637.97</ele>
        <time>2015-12-26T07:35:53Z</time>
      </trkpt>
      <trkpt lat="41.658168650" lon="2.572702100">
        <ele>638.93</ele>
        <time>2015-12-26T07:36:00Z</time>
      </trkpt>
      <trkpt lat="41.658181560" lon="2.572771250">
        <ele>639.89</ele>
        <time>2015-12-26T07:36:03Z</time>
      </trkpt>
      <trkpt lat="41.658258170" lon="2.572953730">
        <ele>640.86</ele>
        <time>2015-12-26T07:36:11Z</time>
      </trkpt>
      <trkpt lat="41.658324050" lon="2.573088090">
        <ele>642.30</ele>
        <time>2015-12-26T07:36:18Z</time>
      </trkpt>
      <trkpt lat="41.658330000" lon="2.573252120">
        <ele>643.74</ele>
        <time>2015-12-26T07:36:26Z</time>
      </trkpt>
      <trkpt lat="41.658301170" lon="2.573336860">
        <ele>644.70</ele>
        <time>2015-12-26T07:36:31Z</time>
      </trkpt>
      <trkpt lat="41.658284570" lon="2.573503410">
        <ele>646.62</ele>
        <time>2015-12-26T07:36:39Z</time>
      </trkpt>
      <trkpt lat="41.658321120" lon="2.573711870">
        <ele>647.59</ele>
        <time>2015-12-26T07:36:48Z</time>
      </trkpt>
      <trkpt lat="41.658424050" lon="2.573923510">
        <ele>648.55</ele>
        <time>2015-12-26T07:36:57Z</time>
      </trkpt>
      <trkpt lat="41.658499320" lon="2.574064920">
        <ele>650.47</ele>
        <time>2015-12-26T07:37:05Z</time>
      </trkpt>
      <trkpt lat="41.658554810" lon="2.574203720">
        <ele>651.43</ele>
        <time>2015-12-26T07:37:12Z</time>
      </trkpt>
      <trkpt lat="41.658658240" lon="2.574371690">
        <ele>652.39</ele>
        <time>2015-12-26T07:37:22Z</time>
      </trkpt>
      <trkpt lat="41.658790760" lon="2.574488120">
        <ele>653.35</ele>
        <time>2015-12-26T07:37:31Z</time>
      </trkpt>
      <trkpt lat="41.658912380" lon="2.574565480">
        <ele>654.31</ele>
        <time>2015-12-26T07:37:39Z</time>
      </trkpt>
      <trkpt lat="41.659049840" lon="2.574635980">
        <ele>655.76</ele>
        <time>2015-12-26T07:37:49Z</time>
      </trkpt>
      <trkpt lat="41.659059060" lon="2.574639160">
        <ele>655.76</ele>
        <time>2015-12-26T07:37:50Z</time>
      </trkpt>
      <trkpt lat="41.659155030" lon="2.574708060">
        <ele>656.72</ele>
        <time>2015-12-26T07:37:58Z</time>
      </trkpt>
      <trkpt lat="41.659253190" lon="2.574824570">
        <ele>657.20</ele>
        <time>2015-12-26T07:38:06Z</time>
      </trkpt>
      <trkpt lat="41.659299370" lon="2.574977040">
        <ele>658.16</ele>
        <time>2015-12-26T07:38:13Z</time>
      </trkpt>
      <trkpt lat="41.659326110" lon="2.575166720">
        <ele>658.64</ele>
        <time>2015-12-26T07:38:21Z</time>
      </trkpt>
      <trkpt lat="41.659319070" lon="2.575391860">
        <ele>659.60</ele>
        <time>2015-12-26T07:38:30Z</time>
      </trkpt>
      <trkpt lat="41.659301890" lon="2.575562680">
        <ele>660.08</ele>
        <time>2015-12-26T07:38:37Z</time>
      </trkpt>
      <trkpt lat="41.659264170" lon="2.575831740">
        <ele>660.08</ele>
        <time>2015-12-26T07:38:46Z</time>
      </trkpt>
      <trkpt lat="41.659224600" lon="2.575981610">
        <ele>660.56</ele>
        <time>2015-12-26T07:38:52Z</time>
      </trkpt>
      <trkpt lat="41.659182780" lon="2.576150000">
        <ele>661.52</ele>
        <time>2015-12-26T07:38:58Z</time>
      </trkpt>
      <trkpt lat="41.659145650" lon="2.576340940">
        <ele>662.49</ele>
        <time>2015-12-26T07:39:06Z</time>
      </trkpt>
      <trkpt lat="41.659176830" lon="2.576580330">
        <ele>663.93</ele>
        <time>2015-12-26T07:39:15Z</time>
      </trkpt>
      <trkpt lat="41.659250670" lon="2.576777550">
        <ele>665.85</ele>
        <time>2015-12-26T07:39:24Z</time>
      </trkpt>
      <trkpt lat="41.659321580" lon="2.576905960">
        <ele>667.29</ele>
        <time>2015-12-26T07:39:31Z</time>
      </trkpt>
      <trkpt lat="41.659423170" lon="2.577055660">
        <ele>669.22</ele>
        <time>2015-12-26T07:39:39Z</time>
      </trkpt>
      <trkpt lat="41.659539680" lon="2.577174180">
        <ele>671.62</ele>
        <time>2015-12-26T07:39:47Z</time>
      </trkpt>
      <trkpt lat="41.659555350" lon="2.577180050">
        <ele>671.62</ele>
        <time>2015-12-26T07:39:48Z</time>
      </trkpt>
      <trkpt lat="41.659704300" lon="2.577154650">
        <ele>673.54</ele>
        <time>2015-12-26T07:39:57Z</time>
      </trkpt>
      <trkpt lat="41.659717290" lon="2.577149460">
        <ele>674.02</ele>
        <time>2015-12-26T07:39:58Z</time>
      </trkpt>
      <trkpt lat="41.659840090" lon="2.577096150">
        <ele>676.42</ele>
        <time>2015-12-26T07:40:07Z</time>
      </trkpt>
      <trkpt lat="41.659849890" lon="2.577091960">
        <ele>676.42</ele>
        <time>2015-12-26T07:40:08Z</time>
      </trkpt>
      <trkpt lat="41.659915360" lon="2.577084830">
        <ele>677.39</ele>
        <time>2015-12-26T07:40:13Z</time>
      </trkpt>
      <trkpt lat="41.659997500" lon="2.577105200">
        <ele>678.83</ele>
        <time>2015-12-26T07:40:20Z</time>
      </trkpt>
      <trkpt lat="41.660090620" lon="2.577153560">
        <ele>679.79</ele>
        <time>2015-12-26T07:40:28Z</time>
      </trkpt>
      <trkpt lat="41.660132950" lon="2.577295890">
        <ele>680.27</ele>
        <time>2015-12-26T07:40:34Z</time>
      </trkpt>
      <trkpt lat="41.660122390" lon="2.577430250">
        <ele>680.27</ele>
        <time>2015-12-26T07:40:40Z</time>
      </trkpt>
      <trkpt lat="41.660118030" lon="2.577613140">
        <ele>680.27</ele>
        <time>2015-12-26T07:40:46Z</time>
      </trkpt>
      <trkpt lat="41.660150970" lon="2.577900810">
        <ele>680.27</ele>
        <time>2015-12-26T07:40:52Z</time>
      </trkpt>
      <trkpt lat="41.660203110" lon="2.578154450">
        <ele>680.27</ele>
        <time>2015-12-26T07:40:59Z</time>
      </trkpt>
      <trkpt lat="41.660292120" lon="2.578336170">
        <ele>680.75</ele>
        <time>2015-12-26T07:41:05Z</time>
      </trkpt>
      <trkpt lat="41.660401930" lon="2.578553010">
        <ele>681.71</ele>
        <time>2015-12-26T07:41:12Z</time>
      </trkpt>
      <trkpt lat="41.660503930" lon="2.578734890">
        <ele>682.67</ele>
        <time>2015-12-26T07:41:19Z</time>
      </trkpt>
      <trkpt lat="41.660547440" lon="2.578809910">
        <ele>682.67</ele>
        <time>2015-12-26T07:41:22Z</time>
      </trkpt>
      <trkpt lat="41.660620360" lon="2.578920300">
        <ele>683.63</ele>
        <time>2015-12-26T07:41:28Z</time>
      </trkpt>
      <trkpt lat="41.660699900" lon="2.579122810">
        <ele>685.08</ele>
        <time>2015-12-26T07:41:36Z</time>
      </trkpt>
      <trkpt lat="41.660743660" lon="2.579264550">
        <ele>686.52</ele>
        <time>2015-12-26T07:41:42Z</time>
      </trkpt>
      <trkpt lat="41.660788330" lon="2.579416090">
        <ele>687.48</ele>
        <time>2015-12-26T07:41:48Z</time>
      </trkpt>
      <trkpt lat="41.660796460" lon="2.579439310">
        <ele>687.48</ele>
        <time>2015-12-26T07:41:49Z</time>
      </trkpt>
      <trkpt lat="41.660850020" lon="2.579583060">
        <ele>689.40</ele>
        <time>2015-12-26T07:41:56Z</time>
      </trkpt>
      <trkpt lat="41.660887740" lon="2.579705430">
        <ele>690.36</ele>
        <time>2015-12-26T07:42:02Z</time>
      </trkpt>
      <trkpt lat="41.660895960" lon="2.579897040">
        <ele>692.77</ele>
        <time>2015-12-26T07:42:11Z</time>
      </trkpt>
      <trkpt lat="41.660892520" lon="2.579916570">
        <ele>693.25</ele>
        <time>2015-12-26T07:42:12Z</time>
      </trkpt>
      <trkpt lat="41.660818680" lon="2.580077090">
        <ele>694.21</ele>
        <time>2015-12-26T07:42:20Z</time>
      </trkpt>
      <trkpt lat="41.660808780" lon="2.580096790">
        <ele>694.69</ele>
        <time>2015-12-26T07:42:21Z</time>
      </trkpt>
      <trkpt lat="41.660740720" lon="2.580266520">
        <ele>696.13</ele>
        <time>2015-12-26T07:42:30Z</time>
      </trkpt>
      <trkpt lat="41.660718510" lon="2.580314040">
        <ele>696.61</ele>
        <time>2015-12-26T07:42:33Z</time>
      </trkpt>
      <trkpt lat="41.660674930" lon="2.580362910">
        <ele>697.57</ele>
        <time>2015-12-26T07:42:37Z</time>
      </trkpt>
      <trkpt lat="41.660543160" lon="2.580518900">
        <ele>699.02</ele>
        <time>2015-12-26T07:42:48Z</time>
      </trkpt>
      <trkpt lat="41.660519020" lon="2.580562320">
        <ele>699.50</ele>
        <time>2015-12-26T07:42:51Z</time>
      </trkpt>
      <trkpt lat="41.660518520" lon="2.580613280">
        <ele>699.98</ele>
        <time>2015-12-26T07:42:55Z</time>
      </trkpt>
      <trkpt lat="41.660603850" lon="2.580607660">
        <ele>700.46</ele>
        <time>2015-12-26T07:43:02Z</time>
      </trkpt>
      <trkpt lat="41.660698480" lon="2.580566760">
        <ele>702.86</ele>
        <time>2015-12-26T07:43:10Z</time>
      </trkpt>
      <trkpt lat="41.660754800" lon="2.580568350">
        <ele>703.82</ele>
        <time>2015-12-26T07:43:14Z</time>
      </trkpt>
      <trkpt lat="41.660893780" lon="2.580564750">
        <ele>706.23</ele>
        <time>2015-12-26T07:43:24Z</time>
      </trkpt>
      <trkpt lat="41.660983460" lon="2.580595760">
        <ele>707.67</ele>
        <time>2015-12-26T07:43:31Z</time>
      </trkpt>
      <trkpt lat="41.661034090" lon="2.580608670">
        <ele>708.15</ele>
        <time>2015-12-26T07:43:35Z</time>
      </trkpt>
      <trkpt lat="41.661108860" lon="2.580590140">
        <ele>709.59</ele>
        <time>2015-12-26T07:43:40Z</time>
      </trkpt>
      <trkpt lat="41.661196110" lon="2.580557040">
        <ele>710.55</ele>
        <time>2015-12-26T07:43:46Z</time>
      </trkpt>
      <trkpt lat="41.661301310" lon="2.580488890">
        <ele>711.03</ele>
        <time>2015-12-26T07:43:55Z</time>
      </trkpt>
      <trkpt lat="41.661323770" lon="2.580478080">
        <ele>711.51</ele>
        <time>2015-12-26T07:43:57Z</time>
      </trkpt>
      <trkpt lat="41.661386720" lon="2.580449500">
        <ele>712.95</ele>
        <time>2015-12-26T07:44:03Z</time>
      </trkpt>
      <trkpt lat="41.661449750" lon="2.580377240">
        <ele>714.40</ele>
        <time>2015-12-26T07:44:10Z</time>
      </trkpt>
      <trkpt lat="41.661539690" lon="2.580291920">
        <ele>716.32</ele>
        <time>2015-12-26T07:44:19Z</time>
      </trkpt>
      <trkpt lat="41.661583440" lon="2.580213550">
        <ele>717.76</ele>
        <time>2015-12-26T07:44:26Z</time>
      </trkpt>
      <trkpt lat="41.661623000" lon="2.580059820">
        <ele>719.68</ele>
        <time>2015-12-26T07:44:35Z</time>
      </trkpt>
      <trkpt lat="41.661628200" lon="2.579910710">
        <ele>719.68</ele>
        <time>2015-12-26T07:44:43Z</time>
      </trkpt>
      <trkpt lat="41.661628450" lon="2.579764280">
        <ele>720.65</ele>
        <time>2015-12-26T07:44:51Z</time>
      </trkpt>
      <trkpt lat="41.661623090" lon="2.579611390">
        <ele>722.57</ele>
        <time>2015-12-26T07:44:59Z</time>
      </trkpt>
      <trkpt lat="41.661605480" lon="2.579455570">
        <ele>723.05</ele>
        <time>2015-12-26T07:45:06Z</time>
      </trkpt>
      <trkpt lat="41.661604140" lon="2.579368060">
        <ele>724.49</ele>
        <time>2015-12-26T07:45:11Z</time>
      </trkpt>
      <trkpt lat="41.661605230" lon="2.579249290">
        <ele>725.45</ele>
        <time>2015-12-26T07:45:18Z</time>
      </trkpt>
      <trkpt lat="41.661605230" lon="2.579138310">
        <ele>727.86</ele>
        <time>2015-12-26T07:45:25Z</time>
      </trkpt>
      <trkpt lat="41.661616630" lon="2.578993480">
        <ele>729.30</ele>
        <time>2015-12-26T07:45:33Z</time>
      </trkpt>
      <trkpt lat="41.661634900" lon="2.578865740">
        <ele>731.22</ele>
        <time>2015-12-26T07:45:40Z</time>
      </trkpt>
      <trkpt lat="41.661625350" lon="2.578725670">
        <ele>733.62</ele>
        <time>2015-12-26T07:45:48Z</time>
      </trkpt>
      <trkpt lat="41.661606070" lon="2.578601540">
        <ele>735.07</ele>
        <time>2015-12-26T07:45:56Z</time>
      </trkpt>
      <trkpt lat="41.661596010" lon="2.578501120">
        <ele>736.51</ele>
        <time>2015-12-26T07:46:03Z</time>
      </trkpt>
      <trkpt lat="41.661556280" lon="2.578334320">
        <ele>739.39</ele>
        <time>2015-12-26T07:46:13Z</time>
      </trkpt>
      <trkpt lat="41.661505820" lon="2.578184450">
        <ele>741.31</ele>
        <time>2015-12-26T07:46:23Z</time>
      </trkpt>
      <trkpt lat="41.661484200" lon="2.578082110">
        <ele>743.24</ele>
        <time>2015-12-26T07:46:30Z</time>
      </trkpt>
      <trkpt lat="41.661479340" lon="2.577961240">
        <ele>744.20</ele>
        <time>2015-12-26T07:46:37Z</time>
      </trkpt>
      <trkpt lat="41.661476320" lon="2.577807440">
        <ele>745.16</ele>
        <time>2015-12-26T07:46:46Z</time>
      </trkpt>
      <trkpt lat="41.661480430" lon="2.577676430">
        <ele>747.08</ele>
        <time>2015-12-26T07:46:54Z</time>
      </trkpt>
      <trkpt lat="41.661474730" lon="2.577571900">
        <ele>747.56</ele>
        <time>2015-12-26T07:46:59Z</time>
      </trkpt>
      <trkpt lat="41.661519490" lon="2.577350460">
        <ele>749.49</ele>
        <time>2015-12-26T07:47:11Z</time>
      </trkpt>
      <trkpt lat="41.661552680" lon="2.577222040">
        <ele>751.41</ele>
        <time>2015-12-26T07:47:19Z</time>
      </trkpt>
      <trkpt lat="41.661590310" lon="2.577056920">
        <ele>753.81</ele>
        <time>2015-12-26T07:47:29Z</time>
      </trkpt>
      <trkpt lat="41.661609840" lon="2.576948210">
        <ele>755.25</ele>
        <time>2015-12-26T07:47:36Z</time>
      </trkpt>
      <trkpt lat="41.661620820" lon="2.576798510">
        <ele>756.69</ele>
        <time>2015-12-26T07:47:45Z</time>
      </trkpt>
      <trkpt lat="41.661607830" lon="2.576690040">
        <ele>758.14</ele>
        <time>2015-12-26T07:47:52Z</time>
      </trkpt>
      <trkpt lat="41.661587380" lon="2.576604470">
        <ele>758.14</ele>
        <time>2015-12-26T07:47:58Z</time>
      </trkpt>
      <trkpt lat="41.661528540" lon="2.576541940">
        <ele>759.58</ele>
        <time>2015-12-26T07:48:04Z</time>
      </trkpt>
      <trkpt lat="41.661486130" lon="2.576638920">
        <ele>759.58</ele>
        <time>2015-12-26T07:48:13Z</time>
      </trkpt>
      <trkpt lat="41.661476820" lon="2.576633220">
        <ele>759.58</ele>
        <time>2015-12-26T07:48:22Z</time>
      </trkpt>
      <trkpt lat="41.661492410" lon="2.576582590">
        <ele>759.58</ele>
        <time>2015-12-26T07:48:32Z</time>
      </trkpt>
      <trkpt lat="41.661502140" lon="2.576547800">
        <ele>759.58</ele>
        <time>2015-12-26T07:48:54Z</time>
      </trkpt>
      <trkpt lat="41.661511770" lon="2.576550230">
        <ele>759.58</ele>
        <time>2015-12-26T07:49:10Z</time>
      </trkpt>
      <trkpt lat="41.661509260" lon="2.576527690">
        <ele>759.58</ele>
        <time>2015-12-26T07:49:21Z</time>
      </trkpt>
      <trkpt lat="41.661506240" lon="2.576524170">
        <ele>759.58</ele>
        <time>2015-12-26T07:49:41Z</time>
      </trkpt>
      <trkpt lat="41.661504400" lon="2.576516540">
        <ele>759.58</ele>
        <time>2015-12-26T07:50:02Z</time>
      </trkpt>
      <trkpt lat="41.661516800" lon="2.576525840">
        <ele>759.58</ele>
        <time>2015-12-26T07:50:15Z</time>
      </trkpt>
      <trkpt lat="41.661516800" lon="2.576552750">
        <ele>759.58</ele>
        <time>2015-12-26T07:50:38Z</time>
      </trkpt>
      <trkpt lat="41.661489650" lon="2.576539090">
        <ele>759.58</ele>
        <time>2015-12-26T07:50:56Z</time>
      </trkpt>
      <trkpt lat="41.661486800" lon="2.576541600">
        <ele>759.58</ele>
        <time>2015-12-26T07:51:11Z</time>
      </trkpt>
      <trkpt lat="41.661481600" lon="2.576511010">
        <ele>759.58</ele>
        <time>2015-12-26T07:51:22Z</time>
      </trkpt>
      <trkpt lat="41.661482860" lon="2.576492650">
        <ele>759.58</ele>
        <time>2015-12-26T07:51:34Z</time>
      </trkpt>
      <trkpt lat="41.661482690" lon="2.576479320">
        <ele>760.06</ele>
        <time>2015-12-26T07:51:49Z</time>
      </trkpt>
      <trkpt lat="41.661468860" lon="2.576474710">
        <ele>760.06</ele>
        <time>2015-12-26T07:52:01Z</time>
      </trkpt>
      <trkpt lat="41.661469780" lon="2.576475890">
        <ele>760.06</ele>
        <time>2015-12-26T07:52:09Z</time>
      </trkpt>
      <trkpt lat="41.661483110" lon="2.576504220">
        <ele>760.06</ele>
        <time>2015-12-26T07:52:24Z</time>
      </trkpt>
      <trkpt lat="41.661462910" lon="2.576496510">
        <ele>760.06</ele>
        <time>2015-12-26T07:52:38Z</time>
      </trkpt>
      <trkpt lat="41.661448740" lon="2.576507570">
        <ele>760.06</ele>
        <time>2015-12-26T07:52:48Z</time>
      </trkpt>
      <trkpt lat="41.661439770" lon="2.576517040">
        <ele>760.06</ele>
        <time>2015-12-26T07:52:58Z</time>
      </trkpt>
      <trkpt lat="41.661446480" lon="2.576526930">
        <ele>760.06</ele>
        <time>2015-12-26T07:53:14Z</time>
      </trkpt>
      <trkpt lat="41.661455110" lon="2.576518970">
        <ele>760.06</ele>
        <time>2015-12-26T07:53:34Z</time>
      </trkpt>
      <trkpt lat="41.661456200" lon="2.576513020">
        <ele>760.06</ele>
        <time>2015-12-26T07:53:48Z</time>
      </trkpt>
      <trkpt lat="41.661465670" lon="2.576528530">
        <ele>760.06</ele>
        <time>2015-12-26T07:54:06Z</time>
      </trkpt>
      <trkpt lat="41.661477580" lon="2.576540760">
        <ele>760.54</ele>
        <time>2015-12-26T07:54:23Z</time>
      </trkpt>
      <trkpt lat="41.661471210" lon="2.576532130">
        <ele>760.54</ele>
        <time>2015-12-26T07:54:40Z</time>
      </trkpt>
      <trkpt lat="41.661476400" lon="2.576526930">
        <ele>760.54</ele>
        <time>2015-12-26T07:54:54Z</time>
      </trkpt>
      <trkpt lat="41.661466180" lon="2.576531120">
        <ele>760.54</ele>
        <time>2015-12-26T07:55:09Z</time>
      </trkpt>
      <trkpt lat="41.661451170" lon="2.576538420">
        <ele>760.54</ele>
        <time>2015-12-26T07:55:23Z</time>
      </trkpt>
      <trkpt lat="41.661451090" lon="2.576510000">
        <ele>760.54</ele>
        <time>2015-12-26T07:55:37Z</time>
      </trkpt>
      <trkpt lat="41.661454360" lon="2.576510170">
        <ele>760.54</ele>
        <time>2015-12-26T07:55:48Z</time>
      </trkpt>
      <trkpt lat="41.661469280" lon="2.576519890">
        <ele>760.54</ele>
        <time>2015-12-26T07:56:03Z</time>
      </trkpt>
      <trkpt lat="41.661486130" lon="2.576519390">
        <ele>760.54</ele>
        <time>2015-12-26T07:56:15Z</time>
      </trkpt>
      <trkpt lat="41.661469030" lon="2.576532800">
        <ele>760.54</ele>
        <time>2015-12-26T07:56:32Z</time>
      </trkpt>
      <trkpt lat="41.661457960" lon="2.576533140">
        <ele>760.54</ele>
        <time>2015-12-26T07:56:50Z</time>
      </trkpt>
      <trkpt lat="41.661458970" lon="2.576529620">
        <ele>760.54</ele>
        <time>2015-12-26T07:56:58Z</time>
      </trkpt>
      <trkpt lat="41.661468020" lon="2.576540010">
        <ele>760.54</ele>
        <time>2015-12-26T07:57:13Z</time>
      </trkpt>
      <trkpt lat="41.661478330" lon="2.576533810">
        <ele>760.54</ele>
        <time>2015-12-26T07:57:31Z</time>
      </trkpt>
      <trkpt lat="41.661485460" lon="2.576527860">
        <ele>760.54</ele>
        <time>2015-12-26T07:57:49Z</time>
      </trkpt>
      <trkpt lat="41.661485040" lon="2.576541850">
        <ele>760.54</ele>
        <time>2015-12-26T07:58:09Z</time>
      </trkpt>
      <trkpt lat="41.661481770" lon="2.576547800">
        <ele>760.54</ele>
        <time>2015-12-26T07:58:27Z</time>
      </trkpt>
      <trkpt lat="41.661476150" lon="2.576562640">
        <ele>760.54</ele>
        <time>2015-12-26T07:58:40Z</time>
      </trkpt>
      <trkpt lat="41.661482190" lon="2.576567000">
        <ele>760.54</ele>
        <time>2015-12-26T07:58:44Z</time>
      </trkpt>
      <trkpt lat="41.661478160" lon="2.576558030">
        <ele>760.54</ele>
        <time>2015-12-26T07:58:51Z</time>
      </trkpt>
      <trkpt lat="41.661487970" lon="2.576499860">
        <ele>760.54</ele>
        <time>2015-12-26T07:58:55Z</time>
      </trkpt>
      <trkpt lat="41.661497020" lon="2.576411010">
        <ele>760.54</ele>
        <time>2015-12-26T07:59:02Z</time>
      </trkpt>
      <trkpt lat="41.661499960" lon="2.576421070">
        <ele>760.54</ele>
        <time>2015-12-26T07:59:11Z</time>
      </trkpt>
      <trkpt lat="41.661496690" lon="2.576401040">
        <ele>760.54</ele>
        <time>2015-12-26T07:59:23Z</time>
      </trkpt>
      <trkpt lat="41.661495260" lon="2.576406820">
        <ele>760.54</ele>
        <time>2015-12-26T07:59:33Z</time>
      </trkpt>
      <trkpt lat="41.661483360" lon="2.576401200">
        <ele>760.54</ele>
        <time>2015-12-26T07:59:46Z</time>
      </trkpt>
      <trkpt lat="41.661500380" lon="2.576400790">
        <ele>760.54</ele>
        <time>2015-12-26T07:59:59Z</time>
      </trkpt>
      <trkpt lat="41.661505150" lon="2.576320570">
        <ele>760.54</ele>
        <time>2015-12-26T08:00:09Z</time>
      </trkpt>
      <trkpt lat="41.661410610" lon="2.576089980">
        <ele>759.10</ele>
        <time>2015-12-26T08:00:16Z</time>
      </trkpt>
      <trkpt lat="41.661369620" lon="2.575982780">
        <ele>758.14</ele>
        <time>2015-12-26T08:00:18Z</time>
      </trkpt>
      <trkpt lat="41.661255620" lon="2.575762670">
        <ele>756.69</ele>
        <time>2015-12-26T08:00:22Z</time>
      </trkpt>
      <trkpt lat="41.661176500" lon="2.575352880">
        <ele>756.21</ele>
        <time>2015-12-26T08:00:28Z</time>
      </trkpt>
      <trkpt lat="41.661116570" lon="2.575083820">
        <ele>756.21</ele>
        <time>2015-12-26T08:00:33Z</time>
      </trkpt>
      <trkpt lat="41.660997630" lon="2.574708730">
        <ele>753.33</ele>
        <time>2015-12-26T08:00:38Z</time>
      </trkpt>
      <trkpt lat="41.660884980" lon="2.574419470">
        <ele>753.33</ele>
        <time>2015-12-26T08:00:43Z</time>
      </trkpt>
      <trkpt lat="41.660865610" lon="2.574363650">
        <ele>753.33</ele>
        <time>2015-12-26T08:00:44Z</time>
      </trkpt>
      <trkpt lat="41.660824210" lon="2.574154020">
        <ele>752.37</ele>
        <time>2015-12-26T08:00:47Z</time>
      </trkpt>
      <trkpt lat="41.660788580" lon="2.573991070">
        <ele>751.89</ele>
        <time>2015-12-26T08:00:49Z</time>
      </trkpt>
      <trkpt lat="41.660811050" lon="2.573635010">
        <ele>751.41</ele>
        <time>2015-12-26T08:00:54Z</time>
      </trkpt>
      <trkpt lat="41.660842480" lon="2.573265700">
        <ele>749.49</ele>
        <time>2015-12-26T08:01:01Z</time>
      </trkpt>
      <trkpt lat="41.660813310" lon="2.573096640">
        <ele>748.52</ele>
        <time>2015-12-26T08:01:04Z</time>
      </trkpt>
      <trkpt lat="41.660782130" lon="2.572975690">
        <ele>747.08</ele>
        <time>2015-12-26T08:01:06Z</time>
      </trkpt>
      <trkpt lat="41.660765280" lon="2.572701770">
        <ele>745.64</ele>
        <time>2015-12-26T08:01:10Z</time>
      </trkpt>
      <trkpt lat="41.660838120" lon="2.572322990">
        <ele>745.64</ele>
        <time>2015-12-26T08:01:17Z</time>
      </trkpt>
      <trkpt lat="41.660854720" lon="2.572227850">
        <ele>747.08</ele>
        <time>2015-12-26T08:01:19Z</time>
      </trkpt>
      <trkpt lat="41.660877600" lon="2.571986460">
        <ele>748.52</ele>
        <time>2015-12-26T08:01:25Z</time>
      </trkpt>
      <trkpt lat="41.660953460" lon="2.571792420">
        <ele>749.00</ele>
        <time>2015-12-26T08:01:30Z</time>
      </trkpt>
      <trkpt lat="41.661019840" lon="2.571546320">
        <ele>749.97</ele>
        <time>2015-12-26T08:01:36Z</time>
      </trkpt>
      <trkpt lat="41.661085720" lon="2.571380440">
        <ele>750.45</ele>
        <time>2015-12-26T08:01:41Z</time>
      </trkpt>
      <trkpt lat="41.661217820" lon="2.571122110">
        <ele>747.08</ele>
        <time>2015-12-26T08:01:46Z</time>
      </trkpt>
      <trkpt lat="41.661312870" lon="2.570845510">
        <ele>744.68</ele>
        <time>2015-12-26T08:01:51Z</time>
      </trkpt>
      <trkpt lat="41.661203740" lon="2.570720790">
        <ele>741.79</ele>
        <time>2015-12-26T08:01:56Z</time>
      </trkpt>
      <trkpt lat="41.661159650" lon="2.570734700">
        <ele>740.35</ele>
        <time>2015-12-26T08:01:57Z</time>
      </trkpt>
      <trkpt lat="41.661051270" lon="2.570784160">
        <ele>738.43</ele>
        <time>2015-12-26T08:01:59Z</time>
      </trkpt>
      <trkpt lat="41.660762180" lon="2.570778120">
        <ele>736.51</ele>
        <time>2015-12-26T08:02:04Z</time>
      </trkpt>
      <trkpt lat="41.660718090" lon="2.570748950">
        <ele>735.07</ele>
        <time>2015-12-26T08:02:05Z</time>
      </trkpt>
      <trkpt lat="41.660611640" lon="2.570642000">
        <ele>732.66</ele>
        <time>2015-12-26T08:02:08Z</time>
      </trkpt>
      <trkpt lat="41.660549450" lon="2.570554580">
        <ele>730.74</ele>
        <time>2015-12-26T08:02:10Z</time>
      </trkpt>
      <trkpt lat="41.660493540" lon="2.570451390">
        <ele>728.82</ele>
        <time>2015-12-26T08:02:12Z</time>
      </trkpt>
      <trkpt lat="41.660410560" lon="2.570078650">
        <ele>724.01</ele>
        <time>2015-12-26T08:02:17Z</time>
      </trkpt>
      <trkpt lat="41.660430590" lon="2.569729800">
        <ele>723.05</ele>
        <time>2015-12-26T08:02:21Z</time>
      </trkpt>
      <trkpt lat="41.660463280" lon="2.569457130">
        <ele>724.49</ele>
        <time>2015-12-26T08:02:26Z</time>
      </trkpt>
      <trkpt lat="41.660501000" lon="2.569269290">
        <ele>726.89</ele>
        <time>2015-12-26T08:02:33Z</time>
      </trkpt>
      <trkpt lat="41.660539810" lon="2.569068720">
        <ele>727.86</ele>
        <time>2015-12-26T08:02:39Z</time>
      </trkpt>
      <trkpt lat="41.660549280" lon="2.568855900">
        <ele>728.34</ele>
        <time>2015-12-26T08:02:45Z</time>
      </trkpt>
      <trkpt lat="41.660515500" lon="2.568592040">
        <ele>726.41</ele>
        <time>2015-12-26T08:02:50Z</time>
      </trkpt>
      <trkpt lat="41.660450460" lon="2.568432860">
        <ele>723.05</ele>
        <time>2015-12-26T08:02:54Z</time>
      </trkpt>
      <trkpt lat="41.660391620" lon="2.568307890">
        <ele>720.16</ele>
        <time>2015-12-26T08:02:58Z</time>
      </trkpt>
      <trkpt lat="41.660332110" lon="2.568121480">
        <ele>716.80</ele>
        <time>2015-12-26T08:03:02Z</time>
      </trkpt>
      <trkpt lat="41.660323640" lon="2.568012180">
        <ele>715.84</ele>
        <time>2015-12-26T08:03:04Z</time>
      </trkpt>
      <trkpt lat="41.660405200" lon="2.567815200">
        <ele>712.95</ele>
        <time>2015-12-26T08:03:09Z</time>
      </trkpt>
      <trkpt lat="41.660455400" lon="2.567750330">
        <ele>712.47</ele>
        <time>2015-12-26T08:03:11Z</time>
      </trkpt>
      <trkpt lat="41.660514750" lon="2.567692660">
        <ele>711.51</ele>
        <time>2015-12-26T08:03:14Z</time>
      </trkpt>
      <trkpt lat="41.660538220" lon="2.567623510">
        <ele>711.51</ele>
        <time>2015-12-26T08:03:17Z</time>
      </trkpt>
      <trkpt lat="41.660502840" lon="2.567541450">
        <ele>714.88</ele>
        <time>2015-12-26T08:03:23Z</time>
      </trkpt>
      <trkpt lat="41.660437130" lon="2.567437930">
        <ele>716.80</ele>
        <time>2015-12-26T08:03:30Z</time>
      </trkpt>
      <trkpt lat="41.660370910" lon="2.567243050">
        <ele>718.72</ele>
        <time>2015-12-26T08:03:39Z</time>
      </trkpt>
      <trkpt lat="41.660303440" lon="2.567079190">
        <ele>715.36</ele>
        <time>2015-12-26T08:03:43Z</time>
      </trkpt>
      <trkpt lat="41.660231940" lon="2.566955970">
        <ele>711.99</ele>
        <time>2015-12-26T08:03:47Z</time>
      </trkpt>
      <trkpt lat="41.660180900" lon="2.566904090">
        <ele>711.51</ele>
        <time>2015-12-26T08:03:49Z</time>
      </trkpt>
      <trkpt lat="41.659979650" lon="2.566794870">
        <ele>706.23</ele>
        <time>2015-12-26T08:03:53Z</time>
      </trkpt>
      <trkpt lat="41.659917200" lon="2.566763110">
        <ele>705.26</ele>
        <time>2015-12-26T08:03:54Z</time>
      </trkpt>
      <trkpt lat="41.659792230" lon="2.566682810">
        <ele>702.86</ele>
        <time>2015-12-26T08:03:56Z</time>
      </trkpt>
      <trkpt lat="41.659543620" lon="2.566440570">
        <ele>698.05</ele>
        <time>2015-12-26T08:04:00Z</time>
      </trkpt>
      <trkpt lat="41.659416470" lon="2.566331440">
        <ele>696.13</ele>
        <time>2015-12-26T08:04:03Z</time>
      </trkpt>
      <trkpt lat="41.659163750" lon="2.566038660">
        <ele>693.25</ele>
        <time>2015-12-26T08:04:08Z</time>
      </trkpt>
      <trkpt lat="41.659117320" lon="2.565990800">
        <ele>693.25</ele>
        <time>2015-12-26T08:04:09Z</time>
      </trkpt>
      <trkpt lat="41.659051020" lon="2.565908070">
        <ele>694.69</ele>
        <time>2015-12-26T08:04:11Z</time>
      </trkpt>
      <trkpt lat="41.658966110" lon="2.565668760">
        <ele>696.13</ele>
        <time>2015-12-26T08:04:17Z</time>
      </trkpt>
      <trkpt lat="41.659021340" lon="2.565488300">
        <ele>697.09</ele>
        <time>2015-12-26T08:04:23Z</time>
      </trkpt>
      <trkpt lat="41.659113540" lon="2.565273730">
        <ele>698.05</ele>
        <time>2015-12-26T08:04:30Z</time>
      </trkpt>
      <trkpt lat="41.659238520" lon="2.565078430">
        <ele>699.02</ele>
        <time>2015-12-26T08:04:38Z</time>
      </trkpt>
      <trkpt lat="41.659249670" lon="2.565015060">
        <ele>699.50</ele>
        <time>2015-12-26T08:04:40Z</time>
      </trkpt>
      <trkpt lat="41.659239440" lon="2.564934840">
        <ele>699.98</ele>
        <time>2015-12-26T08:04:43Z</time>
      </trkpt>
      <trkpt lat="41.659147490" lon="2.564816160">
        <ele>701.90</ele>
        <time>2015-12-26T08:04:52Z</time>
      </trkpt>
      <trkpt lat="41.659124110" lon="2.564773740">
        <ele>702.86</ele>
        <time>2015-12-26T08:04:55Z</time>
      </trkpt>
      <trkpt lat="41.658985220" lon="2.564617250">
        <ele>706.71</ele>
        <time>2015-12-26T08:05:06Z</time>
      </trkpt>
      <trkpt lat="41.658957050" lon="2.564586580">
        <ele>707.67</ele>
        <time>2015-12-26T08:05:09Z</time>
      </trkpt>
      <trkpt lat="41.658899810" lon="2.564544330">
        <ele>709.59</ele>
        <time>2015-12-26T08:05:14Z</time>
      </trkpt>
      <trkpt lat="41.658825210" lon="2.564465460">
        <ele>711.51</ele>
        <time>2015-12-26T08:05:23Z</time>
      </trkpt>
      <trkpt lat="41.658811800" lon="2.564448690">
        <ele>711.51</ele>
        <time>2015-12-26T08:05:25Z</time>
      </trkpt>
      <trkpt lat="41.658768210" lon="2.564328410">
        <ele>711.99</ele>
        <time>2015-12-26T08:05:33Z</time>
      </trkpt>
      <trkpt lat="41.658757060" lon="2.564299500">
        <ele>711.99</ele>
        <time>2015-12-26T08:05:34Z</time>
      </trkpt>
      <trkpt lat="41.658682880" lon="2.564183070">
        <ele>710.07</ele>
        <time>2015-12-26T08:05:38Z</time>
      </trkpt>
      <trkpt lat="41.658588250" lon="2.563751910">
        <ele>706.71</ele>
        <time>2015-12-26T08:05:44Z</time>
      </trkpt>
      <trkpt lat="41.658556650" lon="2.563601950">
        <ele>706.71</ele>
        <time>2015-12-26T08:05:46Z</time>
      </trkpt>
      <trkpt lat="41.658336040" lon="2.563174060">
        <ele>705.26</ele>
        <time>2015-12-26T08:05:53Z</time>
      </trkpt>
      <trkpt lat="41.658053400" lon="2.562746330">
        <ele>704.30</ele>
        <time>2015-12-26T08:06:00Z</time>
      </trkpt>
      <trkpt lat="41.657965060" lon="2.562639800">
        <ele>706.23</ele>
        <time>2015-12-26T08:06:03Z</time>
      </trkpt>
      <trkpt lat="41.657827680" lon="2.562526720">
        <ele>709.11</ele>
        <time>2015-12-26T08:06:09Z</time>
      </trkpt>
      <trkpt lat="41.657667160" lon="2.562436620">
        <ele>710.55</ele>
        <time>2015-12-26T08:06:16Z</time>
      </trkpt>
      <trkpt lat="41.657483930" lon="2.562380540">
        <ele>712.95</ele>
        <time>2015-12-26T08:06:24Z</time>
      </trkpt>
      <trkpt lat="41.657387120" lon="2.562230420">
        <ele>714.40</ele>
        <time>2015-12-26T08:06:31Z</time>
      </trkpt>
      <trkpt lat="41.657374890" lon="2.561979640">
        <ele>714.40</ele>
        <time>2015-12-26T08:06:38Z</time>
      </trkpt>
      <trkpt lat="41.657346390" lon="2.561709740">
        <ele>715.36</ele>
        <time>2015-12-26T08:06:45Z</time>
      </trkpt>
      <trkpt lat="41.657319230" lon="2.561490390">
        <ele>716.32</ele>
        <time>2015-12-26T08:06:52Z</time>
      </trkpt>
      <trkpt lat="41.657327530" lon="2.561415790">
        <ele>717.28</ele>
        <time>2015-12-26T08:06:55Z</time>
      </trkpt>
      <trkpt lat="41.657424260" lon="2.561244630">
        <ele>719.20</ele>
        <time>2015-12-26T08:07:03Z</time>
      </trkpt>
      <trkpt lat="41.657513690" lon="2.561134240">
        <ele>720.16</ele>
        <time>2015-12-26T08:07:09Z</time>
      </trkpt>
      <trkpt lat="41.657617630" lon="2.561046980">
        <ele>721.13</ele>
        <time>2015-12-26T08:07:16Z</time>
      </trkpt>
      <trkpt lat="41.657749560" lon="2.560961400">
        <ele>721.61</ele>
        <time>2015-12-26T08:07:23Z</time>
      </trkpt>
      <trkpt lat="41.657855920" lon="2.560894010">
        <ele>722.57</ele>
        <time>2015-12-26T08:07:29Z</time>
      </trkpt>
      <trkpt lat="41.657970840" lon="2.560829980">
        <ele>723.53</ele>
        <time>2015-12-26T08:07:35Z</time>
      </trkpt>
      <trkpt lat="41.658140240" lon="2.560760490">
        <ele>724.97</ele>
        <time>2015-12-26T08:07:43Z</time>
      </trkpt>
      <trkpt lat="41.658276530" lon="2.560704080">
        <ele>725.93</ele>
        <time>2015-12-26T08:07:50Z</time>
      </trkpt>
      <trkpt lat="41.658427150" lon="2.560660910">
        <ele>727.86</ele>
        <time>2015-12-26T08:07:57Z</time>
      </trkpt>
      <trkpt lat="41.658516250" lon="2.560622770">
        <ele>728.34</ele>
        <time>2015-12-26T08:08:02Z</time>
      </trkpt>
      <trkpt lat="41.658669390" lon="2.560501740">
        <ele>729.30</ele>
        <time>2015-12-26T08:08:10Z</time>
      </trkpt>
      <trkpt lat="41.658783050" lon="2.560394950">
        <ele>731.70</ele>
        <time>2015-12-26T08:08:18Z</time>
      </trkpt>
      <trkpt lat="41.658793770" lon="2.560382550">
        <ele>731.70</ele>
        <time>2015-12-26T08:08:19Z</time>
      </trkpt>
      <trkpt lat="41.658858570" lon="2.560320860">
        <ele>732.18</ele>
        <time>2015-12-26T08:08:24Z</time>
      </trkpt>
      <trkpt lat="41.659011120" lon="2.560157580">
        <ele>732.18</ele>
        <time>2015-12-26T08:08:32Z</time>
      </trkpt>
      <trkpt lat="41.659059900" lon="2.560054060">
        <ele>732.18</ele>
        <time>2015-12-26T08:08:35Z</time>
      </trkpt>
      <trkpt lat="41.659092840" lon="2.559959930">
        <ele>732.18</ele>
        <time>2015-12-26T08:08:39Z</time>
      </trkpt>
      <trkpt lat="41.659111780" lon="2.559917610">
        <ele>732.18</ele>
        <time>2015-12-26T08:08:41Z</time>
      </trkpt>
      <trkpt lat="41.659207670" lon="2.559762710">
        <ele>730.74</ele>
        <time>2015-12-26T08:08:48Z</time>
      </trkpt>
      <trkpt lat="41.659319910" lon="2.559551230">
        <ele>729.30</ele>
        <time>2015-12-26T08:08:54Z</time>
      </trkpt>
      <trkpt lat="41.659359640" lon="2.559452580">
        <ele>728.82</ele>
        <time>2015-12-26T08:08:56Z</time>
      </trkpt>
      <trkpt lat="41.659428030" lon="2.559203050">
        <ele>728.82</ele>
        <time>2015-12-26T08:09:01Z</time>
      </trkpt>
      <trkpt lat="41.659502130" lon="2.558929210">
        <ele>728.82</ele>
        <time>2015-12-26T08:09:08Z</time>
      </trkpt>
      <trkpt lat="41.659515040" lon="2.558896690">
        <ele>728.34</ele>
        <time>2015-12-26T08:09:09Z</time>
      </trkpt>
      <trkpt lat="41.659640930" lon="2.558811030">
        <ele>723.53</ele>
        <time>2015-12-26T08:09:14Z</time>
      </trkpt>
      <trkpt lat="41.659758030" lon="2.558763330">
        <ele>720.16</ele>
        <time>2015-12-26T08:09:18Z</time>
      </trkpt>
      <trkpt lat="41.659839670" lon="2.558711450">
        <ele>717.76</ele>
        <time>2015-12-26T08:09:21Z</time>
      </trkpt>
      <trkpt lat="41.659897920" lon="2.558674740">
        <ele>716.80</ele>
        <time>2015-12-26T08:09:23Z</time>
      </trkpt>
      <trkpt lat="41.659995660" lon="2.558610030">
        <ele>713.44</ele>
        <time>2015-12-26T08:09:27Z</time>
      </trkpt>
      <trkpt lat="41.660102610" lon="2.558568370">
        <ele>710.07</ele>
        <time>2015-12-26T08:09:31Z</time>
      </trkpt>
      <trkpt lat="41.660124230" lon="2.558562920">
        <ele>710.07</ele>
        <time>2015-12-26T08:09:32Z</time>
      </trkpt>
      <trkpt lat="41.660216850" lon="2.558519590">
        <ele>706.71</ele>
        <time>2015-12-26T08:09:36Z</time>
      </trkpt>
      <trkpt lat="41.660352980" lon="2.558461170">
        <ele>702.86</ele>
        <time>2015-12-26T08:09:41Z</time>
      </trkpt>
      <trkpt lat="41.660404610" lon="2.558445240">
        <ele>702.38</ele>
        <time>2015-12-26T08:09:43Z</time>
      </trkpt>
      <trkpt lat="41.660481390" lon="2.558445410">
        <ele>700.46</ele>
        <time>2015-12-26T08:09:46Z</time>
      </trkpt>
      <trkpt lat="41.660619860" lon="2.558443310">
        <ele>698.53</ele>
        <time>2015-12-26T08:09:50Z</time>
      </trkpt>
      <trkpt lat="41.660789090" lon="2.558371810">
        <ele>695.17</ele>
        <time>2015-12-26T08:09:55Z</time>
      </trkpt>
      <trkpt lat="41.660872240" lon="2.558359660">
        <ele>694.69</ele>
        <time>2015-12-26T08:09:57Z</time>
      </trkpt>
      <trkpt lat="41.661122850" lon="2.558312890">
        <ele>692.29</ele>
        <time>2015-12-26T08:10:03Z</time>
      </trkpt>
      <trkpt lat="41.661261320" lon="2.558266030">
        <ele>691.33</ele>
        <time>2015-12-26T08:10:07Z</time>
      </trkpt>
      <trkpt lat="41.661328800" lon="2.558191770">
        <ele>689.88</ele>
        <time>2015-12-26T08:10:13Z</time>
      </trkpt>
      <trkpt lat="41.661353520" lon="2.558187830">
        <ele>689.88</ele>
        <time>2015-12-26T08:10:18Z</time>
      </trkpt>
      <trkpt lat="41.661312030" lon="2.558139130">
        <ele>689.40</ele>
        <time>2015-12-26T08:10:23Z</time>
      </trkpt>
      <trkpt lat="41.661177170" lon="2.558093700">
        <ele>687.48</ele>
        <time>2015-12-26T08:10:29Z</time>
      </trkpt>
      <trkpt lat="41.661108190" lon="2.558065880">
        <ele>686.52</ele>
        <time>2015-12-26T08:10:31Z</time>
      </trkpt>
      <trkpt lat="41.661025960" lon="2.558031760">
        <ele>684.60</ele>
        <time>2015-12-26T08:10:33Z</time>
      </trkpt>
      <trkpt lat="41.660748940" lon="2.557908040">
        <ele>682.67</ele>
        <time>2015-12-26T08:10:39Z</time>
      </trkpt>
      <trkpt lat="41.660557750" lon="2.557760440">
        <ele>681.71</ele>
        <time>2015-12-26T08:10:43Z</time>
      </trkpt>
      <trkpt lat="41.660395220" lon="2.557630850">
        <ele>679.79</ele>
        <time>2015-12-26T08:10:48Z</time>
      </trkpt>
      <trkpt lat="41.660382650" lon="2.557525750">
        <ele>679.31</ele>
        <time>2015-12-26T08:10:52Z</time>
      </trkpt>
      <trkpt lat="41.660459340" lon="2.557329020">
        <ele>675.94</ele>
        <time>2015-12-26T08:11:01Z</time>
      </trkpt>
      <trkpt lat="41.660554230" lon="2.557212850">
        <ele>673.54</ele>
        <time>2015-12-26T08:11:07Z</time>
      </trkpt>
      <trkpt lat="41.660726560" lon="2.557154430">
        <ele>673.06</ele>
        <time>2015-12-26T08:11:13Z</time>
      </trkpt>
      <trkpt lat="41.660820020" lon="2.557012020">
        <ele>673.54</ele>
        <time>2015-12-26T08:11:19Z</time>
      </trkpt>
      <trkpt lat="41.660844490" lon="2.556970950">
        <ele>674.98</ele>
        <time>2015-12-26T08:11:21Z</time>
      </trkpt>
      <trkpt lat="41.660867630" lon="2.556933230">
        <ele>675.46</ele>
        <time>2015-12-26T08:11:23Z</time>
      </trkpt>
      <trkpt lat="41.660977680" lon="2.556758210">
        <ele>675.94</ele>
        <time>2015-12-26T08:11:30Z</time>
      </trkpt>
      <trkpt lat="41.661097460" lon="2.556489160">
        <ele>676.42</ele>
        <time>2015-12-26T08:11:38Z</time>
      </trkpt>
      <trkpt lat="41.661157050" lon="2.556298630">
        <ele>676.91</ele>
        <time>2015-12-26T08:11:43Z</time>
      </trkpt>
      <trkpt lat="41.661198290" lon="2.556009380">
        <ele>676.91</ele>
        <time>2015-12-26T08:11:50Z</time>
      </trkpt>
      <trkpt lat="41.661199210" lon="2.555824390">
        <ele>677.87</ele>
        <time>2015-12-26T08:11:55Z</time>
      </trkpt>
      <trkpt lat="41.661210950" lon="2.555686090">
        <ele>677.87</ele>
        <time>2015-12-26T08:11:58Z</time>
      </trkpt>
      <trkpt lat="41.661348240" lon="2.555476450">
        <ele>677.87</ele>
        <time>2015-12-26T08:12:04Z</time>
      </trkpt>
      <trkpt lat="41.661458630" lon="2.555272610">
        <ele>674.98</ele>
        <time>2015-12-26T08:12:09Z</time>
      </trkpt>
      <trkpt lat="41.661486630" lon="2.555147460">
        <ele>673.54</ele>
        <time>2015-12-26T08:12:12Z</time>
      </trkpt>
      <trkpt lat="41.661505150" lon="2.554862980">
        <ele>670.18</ele>
        <time>2015-12-26T08:12:18Z</time>
      </trkpt>
      <trkpt lat="41.661509340" lon="2.554782600">
        <ele>668.73</ele>
        <time>2015-12-26T08:12:20Z</time>
      </trkpt>
      <trkpt lat="41.661532560" lon="2.554436260">
        <ele>666.33</ele>
        <time>2015-12-26T08:12:28Z</time>
      </trkpt>
      <trkpt lat="41.661560720" lon="2.554204670">
        <ele>663.93</ele>
        <time>2015-12-26T08:12:34Z</time>
      </trkpt>
      <trkpt lat="41.661656700" lon="2.554019510">
        <ele>660.08</ele>
        <time>2015-12-26T08:12:40Z</time>
      </trkpt>
      <trkpt lat="41.661737000" lon="2.553850870">
        <ele>657.68</ele>
        <time>2015-12-26T08:12:47Z</time>
      </trkpt>
      <trkpt lat="41.661794080" lon="2.553678620">
        <ele>654.31</ele>
        <time>2015-12-26T08:12:52Z</time>
      </trkpt>
      <trkpt lat="41.661847470" lon="2.553484330">
        <ele>651.43</ele>
        <time>2015-12-26T08:12:58Z</time>
      </trkpt>
      <trkpt lat="41.661833970" lon="2.553261540">
        <ele>648.55</ele>
        <time>2015-12-26T08:13:03Z</time>
      </trkpt>
      <trkpt lat="41.661743450" lon="2.553131280">
        <ele>645.18</ele>
        <time>2015-12-26T08:13:07Z</time>
      </trkpt>
      <trkpt lat="41.661623090" lon="2.553013600">
        <ele>641.82</ele>
        <time>2015-12-26T08:13:13Z</time>
      </trkpt>
      <trkpt lat="41.661586540" lon="2.552987450">
        <ele>641.34</ele>
        <time>2015-12-26T08:13:15Z</time>
      </trkpt>
      <trkpt lat="41.661482020" lon="2.552930030">
        <ele>637.97</ele>
        <time>2015-12-26T08:13:20Z</time>
      </trkpt>
      <trkpt lat="41.661313120" lon="2.552858200">
        <ele>635.09</ele>
        <time>2015-12-26T08:13:28Z</time>
      </trkpt>
      <trkpt lat="41.661290160" lon="2.552847220">
        <ele>635.09</ele>
        <time>2015-12-26T08:13:29Z</time>
      </trkpt>
      <trkpt lat="41.661090840" lon="2.552766000">
        <ele>632.20</ele>
        <time>2015-12-26T08:13:37Z</time>
      </trkpt>
      <trkpt lat="41.661055130" lon="2.552697350">
        <ele>631.72</ele>
        <time>2015-12-26T08:13:39Z</time>
      </trkpt>
      <trkpt lat="41.661083630" lon="2.552586290">
        <ele>631.72</ele>
        <time>2015-12-26T08:13:43Z</time>
      </trkpt>
      <trkpt lat="41.661184040" lon="2.552304240">
        <ele>629.80</ele>
        <time>2015-12-26T08:13:51Z</time>
      </trkpt>
      <trkpt lat="41.661234920" lon="2.552108610">
        <ele>628.84</ele>
        <time>2015-12-26T08:13:57Z</time>
      </trkpt>
      <trkpt lat="41.661238360" lon="2.552079600">
        <ele>628.84</ele>
        <time>2015-12-26T08:13:58Z</time>
      </trkpt>
      <trkpt lat="41.661343300" lon="2.551785650">
        <ele>627.88</ele>
        <time>2015-12-26T08:14:07Z</time>
      </trkpt>
      <trkpt lat="41.661464840" lon="2.551463790">
        <ele>625.96</ele>
        <time>2015-12-26T08:14:15Z</time>
      </trkpt>
      <trkpt lat="41.661512860" lon="2.551329590">
        <ele>625.96</ele>
        <time>2015-12-26T08:14:20Z</time>
      </trkpt>
      <trkpt lat="41.661518980" lon="2.551265130">
        <ele>626.44</ele>
        <time>2015-12-26T08:14:22Z</time>
      </trkpt>
      <trkpt lat="41.661631890" lon="2.551047880">
        <ele>626.44</ele>
        <time>2015-12-26T08:14:28Z</time>
      </trkpt>
      <trkpt lat="41.661789220" lon="2.550855760">
        <ele>626.44</ele>
        <time>2015-12-26T08:14:34Z</time>
      </trkpt>
      <trkpt lat="41.661833220" lon="2.550678990">
        <ele>625.47</ele>
        <time>2015-12-26T08:14:38Z</time>
      </trkpt>
      <trkpt lat="41.661943190" lon="2.550388300">
        <ele>625.96</ele>
        <time>2015-12-26T08:14:44Z</time>
      </trkpt>
      <trkpt lat="41.661956940" lon="2.550353100">
        <ele>625.96</ele>
        <time>2015-12-26T08:14:45Z</time>
      </trkpt>
      <trkpt lat="41.662089200" lon="2.550104990">
        <ele>624.51</ele>
        <time>2015-12-26T08:14:51Z</time>
      </trkpt>
      <trkpt lat="41.662107140" lon="2.550074740">
        <ele>624.51</ele>
        <time>2015-12-26T08:14:52Z</time>
      </trkpt>
      <trkpt lat="41.662260530" lon="2.549916990">
        <ele>621.15</ele>
        <time>2015-12-26T08:14:57Z</time>
      </trkpt>
      <trkpt lat="41.662304200" lon="2.549877680">
        <ele>620.19</ele>
        <time>2015-12-26T08:14:58Z</time>
      </trkpt>
      <trkpt lat="41.662526070" lon="2.549627060">
        <ele>616.82</ele>
        <time>2015-12-26T08:15:04Z</time>
      </trkpt>
      <trkpt lat="41.662612650" lon="2.549413320">
        <ele>613.94</ele>
        <time>2015-12-26T08:15:09Z</time>
      </trkpt>
      <trkpt lat="41.662624720" lon="2.549135040">
        <ele>611.06</ele>
        <time>2015-12-26T08:15:16Z</time>
      </trkpt>
      <trkpt lat="41.662640310" lon="2.548918370">
        <ele>607.69</ele>
        <time>2015-12-26T08:15:21Z</time>
      </trkpt>
      <trkpt lat="41.662691700" lon="2.548702030">
        <ele>604.33</ele>
        <time>2015-12-26T08:15:26Z</time>
      </trkpt>
      <trkpt lat="41.662747270" lon="2.548418720">
        <ele>601.92</ele>
        <time>2015-12-26T08:15:30Z</time>
      </trkpt>
      <trkpt lat="41.662814070" lon="2.548190320">
        <ele>600.96</ele>
        <time>2015-12-26T08:15:33Z</time>
      </trkpt>
      <trkpt lat="41.662825300" lon="2.548122000">
        <ele>600.00</ele>
        <time>2015-12-26T08:15:34Z</time>
      </trkpt>
      <trkpt lat="41.662839550" lon="2.547848920">
        <ele>598.08</ele>
        <time>2015-12-26T08:15:40Z</time>
      </trkpt>
      <trkpt lat="41.662853970" lon="2.547819500">
        <ele>598.08</ele>
        <time>2015-12-26T08:15:46Z</time>
      </trkpt>
      <trkpt lat="41.662840140" lon="2.547804500">
        <ele>597.60</ele>
        <time>2015-12-26T08:15:53Z</time>
      </trkpt>
      <trkpt lat="41.662828570" lon="2.547794690">
        <ele>597.60</ele>
        <time>2015-12-26T08:15:59Z</time>
      </trkpt>
      <trkpt lat="41.662785570" lon="2.547764600">
        <ele>597.12</ele>
        <time>2015-12-26T08:16:03Z</time>
      </trkpt>
      <trkpt lat="41.662762610" lon="2.547764260">
        <ele>596.15</ele>
        <time>2015-12-26T08:16:05Z</time>
      </trkpt>
      <trkpt lat="41.662736960" lon="2.547781360">
        <ele>595.67</ele>
        <time>2015-12-26T08:16:07Z</time>
      </trkpt>
      <trkpt lat="41.662591620" lon="2.547827300">
        <ele>593.75</ele>
        <time>2015-12-26T08:16:14Z</time>
      </trkpt>
      <trkpt lat="41.662421880" lon="2.547827130">
        <ele>591.83</ele>
        <time>2015-12-26T08:16:19Z</time>
      </trkpt>
      <trkpt lat="41.662239830" lon="2.547756130">
        <ele>590.87</ele>
        <time>2015-12-26T08:16:25Z</time>
      </trkpt>
      <trkpt lat="41.661995830" lon="2.547621350">
        <ele>589.91</ele>
        <time>2015-12-26T08:16:32Z</time>
      </trkpt>
      <trkpt lat="41.661765910" lon="2.547599310">
        <ele>589.43</ele>
        <time>2015-12-26T08:16:38Z</time>
      </trkpt>
      <trkpt lat="41.661594920" lon="2.547606430">
        <ele>589.43</ele>
        <time>2015-12-26T08:16:43Z</time>
      </trkpt>
      <trkpt lat="41.661382690" lon="2.547589330">
        <ele>588.46</ele>
        <time>2015-12-26T08:16:49Z</time>
      </trkpt>
      <trkpt lat="41.661128810" lon="2.547626970">
        <ele>585.58</ele>
        <time>2015-12-26T08:16:55Z</time>
      </trkpt>
      <trkpt lat="41.660885310" lon="2.547663350">
        <ele>582.22</ele>
        <time>2015-12-26T08:17:01Z</time>
      </trkpt>
      <trkpt lat="41.660811050" lon="2.547675580">
        <ele>581.73</ele>
        <time>2015-12-26T08:17:03Z</time>
      </trkpt>
      <trkpt lat="41.660656070" lon="2.547683380">
        <ele>579.33</ele>
        <time>2015-12-26T08:17:09Z</time>
      </trkpt>
      <trkpt lat="41.660501250" lon="2.547663180">
        <ele>577.89</ele>
        <time>2015-12-26T08:17:15Z</time>
      </trkpt>
      <trkpt lat="41.660428750" lon="2.547673990">
        <ele>577.41</ele>
        <time>2015-12-26T08:17:18Z</time>
      </trkpt>
      <trkpt lat="41.660397320" lon="2.547658900">
        <ele>576.93</ele>
        <time>2015-12-26T08:17:20Z</time>
      </trkpt>
      <trkpt lat="41.660358840" lon="2.547578350">
        <ele>575.97</ele>
        <time>2015-12-26T08:17:24Z</time>
      </trkpt>
      <trkpt lat="41.660305700" lon="2.547516500">
        <ele>574.53</ele>
        <time>2015-12-26T08:17:30Z</time>
      </trkpt>
      <trkpt lat="41.660270580" lon="2.547506940">
        <ele>573.56</ele>
        <time>2015-12-26T08:17:38Z</time>
      </trkpt>
      <trkpt lat="41.660229430" lon="2.547485400">
        <ele>572.12</ele>
        <time>2015-12-26T08:17:46Z</time>
      </trkpt>
      <trkpt lat="41.660189360" lon="2.547457490">
        <ele>571.16</ele>
        <time>2015-12-26T08:17:52Z</time>
      </trkpt>
      <trkpt lat="41.660116770" lon="2.547425550">
        <ele>568.76</ele>
        <time>2015-12-26T08:18:01Z</time>
      </trkpt>
      <trkpt lat="41.660053910" lon="2.547429490">
        <ele>567.80</ele>
        <time>2015-12-26T08:18:08Z</time>
      </trkpt>
      <trkpt lat="41.660006550" lon="2.547486240">
        <ele>565.87</ele>
        <time>2015-12-26T08:18:16Z</time>
      </trkpt>
      <trkpt lat="41.659961630" lon="2.547538200">
        <ele>564.43</ele>
        <time>2015-12-26T08:18:26Z</time>
      </trkpt>
      <trkpt lat="41.659929440" lon="2.547577180">
        <ele>562.51</ele>
        <time>2015-12-26T08:18:34Z</time>
      </trkpt>
      <trkpt lat="41.659924580" lon="2.547612640">
        <ele>561.55</ele>
        <time>2015-12-26T08:18:41Z</time>
      </trkpt>
      <trkpt lat="41.659906560" lon="2.547644740">
        <ele>560.59</ele>
        <time>2015-12-26T08:18:50Z</time>
      </trkpt>
      <trkpt lat="41.659896000" lon="2.547670470">
        <ele>559.62</ele>
        <time>2015-12-26T08:18:58Z</time>
      </trkpt>
      <trkpt lat="41.659883670" lon="2.547722940">
        <ele>558.18</ele>
        <time>2015-12-26T08:19:06Z</time>
      </trkpt>
      <trkpt lat="41.659863720" lon="2.547765690">
        <ele>557.70</ele>
        <time>2015-12-26T08:19:12Z</time>
      </trkpt>
      <trkpt lat="41.659822320" lon="2.547827720">
        <ele>555.78</ele>
        <time>2015-12-26T08:19:22Z</time>
      </trkpt>
      <trkpt lat="41.659803960" lon="2.547857220">
        <ele>555.30</ele>
        <time>2015-12-26T08:19:30Z</time>
      </trkpt>
      <trkpt lat="41.659763640" lon="2.547888900">
        <ele>553.86</ele>
        <time>2015-12-26T08:19:39Z</time>
      </trkpt>
      <trkpt lat="41.659714530" lon="2.547916480">
        <ele>551.93</ele>
        <time>2015-12-26T08:19:47Z</time>
      </trkpt>
      <trkpt lat="41.659673040" lon="2.547945730">
        <ele>551.45</ele>
        <time>2015-12-26T08:19:55Z</time>
      </trkpt>
      <trkpt lat="41.659626770" lon="2.548001980">
        <ele>550.49</ele>
        <time>2015-12-26T08:20:02Z</time>
      </trkpt>
      <trkpt lat="41.659619980" lon="2.548001560">
        <ele>550.49</ele>
        <time>2015-12-26T08:20:08Z</time>
      </trkpt>
      <trkpt lat="41.659606570" lon="2.548020420">
        <ele>550.49</ele>
        <time>2015-12-26T08:20:11Z</time>
      </trkpt>
      <trkpt lat="41.659530630" lon="2.548057300">
        <ele>549.53</ele>
        <time>2015-12-26T08:20:17Z</time>
      </trkpt>
      <trkpt lat="41.659451000" lon="2.548057880">
        <ele>549.05</ele>
        <time>2015-12-26T08:20:23Z</time>
      </trkpt>
      <trkpt lat="41.659347230" lon="2.547983870">
        <ele>545.69</ele>
        <time>2015-12-26T08:20:31Z</time>
      </trkpt>
      <trkpt lat="41.659216060" lon="2.547863590">
        <ele>542.80</ele>
        <time>2015-12-26T08:20:38Z</time>
      </trkpt>
      <trkpt lat="41.659074320" lon="2.547828050">
        <ele>541.84</ele>
        <time>2015-12-26T08:20:44Z</time>
      </trkpt>
      <trkpt lat="41.658896030" lon="2.547801310">
        <ele>540.88</ele>
        <time>2015-12-26T08:20:49Z</time>
      </trkpt>
      <trkpt lat="41.658741300" lon="2.547763010">
        <ele>538.96</ele>
        <time>2015-12-26T08:20:55Z</time>
      </trkpt>
      <trkpt lat="41.658674080" lon="2.547681790">
        <ele>535.59</ele>
        <time>2015-12-26T08:20:59Z</time>
      </trkpt>
      <trkpt lat="41.658629240" lon="2.547568550">
        <ele>532.23</ele>
        <time>2015-12-26T08:21:04Z</time>
      </trkpt>
      <trkpt lat="41.658631170" lon="2.547513140">
        <ele>531.75</ele>
        <time>2015-12-26T08:21:06Z</time>
      </trkpt>
      <trkpt lat="41.658625050" lon="2.547335200">
        <ele>528.86</ele>
        <time>2015-12-26T08:21:12Z</time>
      </trkpt>
      <trkpt lat="41.658590680" lon="2.547275260">
        <ele>528.38</ele>
        <time>2015-12-26T08:21:19Z</time>
      </trkpt>
      <trkpt lat="41.658514150" lon="2.547177530">
        <ele>525.98</ele>
        <time>2015-12-26T08:21:23Z</time>
      </trkpt>
      <trkpt lat="41.658390940" lon="2.547011490">
        <ele>522.13</ele>
        <time>2015-12-26T08:21:28Z</time>
      </trkpt>
      <trkpt lat="41.658320700" lon="2.546855670">
        <ele>518.77</ele>
        <time>2015-12-26T08:21:33Z</time>
      </trkpt>
      <trkpt lat="41.658303350" lon="2.546744440">
        <ele>516.85</ele>
        <time>2015-12-26T08:21:36Z</time>
      </trkpt>
      <trkpt lat="41.658266050" lon="2.546629690">
        <ele>515.40</ele>
        <time>2015-12-26T08:21:38Z</time>
      </trkpt>
      <trkpt lat="41.658199920" lon="2.546483340">
        <ele>514.44</ele>
        <time>2015-12-26T08:21:41Z</time>
      </trkpt>
      <trkpt lat="41.658265970" lon="2.546428690">
        <ele>512.52</ele>
        <time>2015-12-26T08:21:45Z</time>
      </trkpt>
      <trkpt lat="41.658360510" lon="2.546525590">
        <ele>511.56</ele>
        <time>2015-12-26T08:21:49Z</time>
      </trkpt>
      <trkpt lat="41.658500320" lon="2.546633710">
        <ele>509.64</ele>
        <time>2015-12-26T08:21:54Z</time>
      </trkpt>
      <trkpt lat="41.658642230" lon="2.546619880">
        <ele>505.79</ele>
        <time>2015-12-26T08:21:58Z</time>
      </trkpt>
      <trkpt lat="41.658835350" lon="2.546576800">
        <ele>503.39</ele>
        <time>2015-12-26T08:22:02Z</time>
      </trkpt>
      <trkpt lat="41.658984550" lon="2.546619130">
        <ele>501.46</ele>
        <time>2015-12-26T08:22:06Z</time>
      </trkpt>
      <trkpt lat="41.659006170" lon="2.546461970">
        <ele>499.54</ele>
        <time>2015-12-26T08:22:10Z</time>
      </trkpt>
      <trkpt lat="41.658961580" lon="2.546300280">
        <ele>495.70</ele>
        <time>2015-12-26T08:22:13Z</time>
      </trkpt>
      <trkpt lat="41.658958480" lon="2.545948410">
        <ele>492.81</ele>
        <time>2015-12-26T08:22:18Z</time>
      </trkpt>
      <trkpt lat="41.658965100" lon="2.545894350">
        <ele>491.85</ele>
        <time>2015-12-26T08:22:19Z</time>
      </trkpt>
      <trkpt lat="41.659004240" lon="2.545637610">
        <ele>487.53</ele>
        <time>2015-12-26T08:22:25Z</time>
      </trkpt>
      <trkpt lat="41.659006840" lon="2.545608360">
        <ele>487.53</ele>
        <time>2015-12-26T08:22:26Z</time>
      </trkpt>
      <trkpt lat="41.658999720" lon="2.545433930">
        <ele>485.12</ele>
        <time>2015-12-26T08:22:31Z</time>
      </trkpt>
      <trkpt lat="41.658997120" lon="2.545413480">
        <ele>485.12</ele>
        <time>2015-12-26T08:22:37Z</time>
      </trkpt>
      <trkpt lat="41.659009270" lon="2.545413390">
        <ele>485.60</ele>
        <time>2015-12-26T08:22:45Z</time>
      </trkpt>
      <trkpt lat="41.659021260" lon="2.545424960">
        <ele>485.60</ele>
        <time>2015-12-26T08:22:51Z</time>
      </trkpt>
      <trkpt lat="41.658969630" lon="2.545531490">
        <ele>485.12</ele>
        <time>2015-12-26T08:22:58Z</time>
      </trkpt>
      <trkpt lat="41.658942890" lon="2.545578520">
        <ele>485.12</ele>
        <time>2015-12-26T08:23:01Z</time>
      </trkpt>
      <trkpt lat="41.658828730" lon="2.545768370">
        <ele>485.12</ele>
        <time>2015-12-26T08:23:10Z</time>
      </trkpt>
      <trkpt lat="41.658723120" lon="2.545831900">
        <ele>485.12</ele>
        <time>2015-12-26T08:23:15Z</time>
      </trkpt>
      <trkpt lat="41.658528820" lon="2.545786720">
        <ele>486.08</ele>
        <time>2015-12-26T08:23:23Z</time>
      </trkpt>
      <trkpt lat="41.658370910" lon="2.545719920">
        <ele>488.49</ele>
        <time>2015-12-26T08:23:31Z</time>
      </trkpt>
      <trkpt lat="41.658256490" lon="2.545657980">
        <ele>489.45</ele>
        <time>2015-12-26T08:23:37Z</time>
      </trkpt>
      <trkpt lat="41.658117860" lon="2.545533590">
        <ele>489.93</ele>
        <time>2015-12-26T08:23:44Z</time>
      </trkpt>
      <trkpt lat="41.657928930" lon="2.545354220">
        <ele>488.01</ele>
        <time>2015-12-26T08:23:51Z</time>
      </trkpt>
      <trkpt lat="41.657895650" lon="2.545340890">
        <ele>488.01</ele>
        <time>2015-12-26T08:23:52Z</time>
      </trkpt>
      <trkpt lat="41.657725750" lon="2.545397800">
        <ele>487.05</ele>
        <time>2015-12-26T08:23:57Z</time>
      </trkpt>
      <trkpt lat="41.657511340" lon="2.545591090">
        <ele>487.05</ele>
        <time>2015-12-26T08:24:05Z</time>
      </trkpt>
      <trkpt lat="41.657401040" lon="2.545645150">
        <ele>488.49</ele>
        <time>2015-12-26T08:24:09Z</time>
      </trkpt>
      <trkpt lat="41.657223930" lon="2.545668290">
        <ele>489.45</ele>
        <time>2015-12-26T08:24:16Z</time>
      </trkpt>
      <trkpt lat="41.657175310" lon="2.545641130">
        <ele>487.53</ele>
        <time>2015-12-26T08:24:19Z</time>
      </trkpt>
      <trkpt lat="41.657166180" lon="2.545505170">
        <ele>483.20</ele>
        <time>2015-12-26T08:24:24Z</time>
      </trkpt>
      <trkpt lat="41.657179500" lon="2.545444150">
        <ele>481.28</ele>
        <time>2015-12-26T08:24:26Z</time>
      </trkpt>
      <trkpt lat="41.657107420" lon="2.545249690">
        <ele>476.95</ele>
        <time>2015-12-26T08:24:32Z</time>
      </trkpt>
      <trkpt lat="41.657056210" lon="2.545151120">
        <ele>476.47</ele>
        <time>2015-12-26T08:24:35Z</time>
      </trkpt>
      <trkpt lat="41.657031650" lon="2.544904780">
        <ele>475.51</ele>
        <time>2015-12-26T08:24:41Z</time>
      </trkpt>
      <trkpt lat="41.657041040" lon="2.544765390">
        <ele>473.59</ele>
        <time>2015-12-26T08:24:44Z</time>
      </trkpt>
      <trkpt lat="41.657025110" lon="2.544641500">
        <ele>472.14</ele>
        <time>2015-12-26T08:24:46Z</time>
      </trkpt>
      <trkpt lat="41.656928210" lon="2.544376890">
        <ele>468.78</ele>
        <time>2015-12-26T08:24:51Z</time>
      </trkpt>
      <trkpt lat="41.656859400" lon="2.544144040">
        <ele>465.90</ele>
        <time>2015-12-26T08:24:55Z</time>
      </trkpt>
      <trkpt lat="41.656862500" lon="2.544074220">
        <ele>464.93</ele>
        <time>2015-12-26T08:24:56Z</time>
      </trkpt>
      <trkpt lat="41.656880610" lon="2.543854110">
        <ele>463.49</ele>
        <time>2015-12-26T08:24:59Z</time>
      </trkpt>
      <trkpt lat="41.656822600" lon="2.543657640">
        <ele>461.09</ele>
        <time>2015-12-26T08:25:03Z</time>
      </trkpt>
      <trkpt lat="41.656672820" lon="2.543625200">
        <ele>459.65</ele>
        <time>2015-12-26T08:25:06Z</time>
      </trkpt>
      <trkpt lat="41.656456570" lon="2.543708760">
        <ele>457.24</ele>
        <time>2015-12-26T08:25:10Z</time>
      </trkpt>
      <trkpt lat="41.656402000" lon="2.543706420">
        <ele>457.24</ele>
        <time>2015-12-26T08:25:11Z</time>
      </trkpt>
      <trkpt lat="41.656197980" lon="2.543578850">
        <ele>454.36</ele>
        <time>2015-12-26T08:25:15Z</time>
      </trkpt>
      <trkpt lat="41.655915010" lon="2.543293020">
        <ele>451.48</ele>
        <time>2015-12-26T08:25:21Z</time>
      </trkpt>
      <trkpt lat="41.655858600" lon="2.543226640">
        <ele>451.48</ele>
        <time>2015-12-26T08:25:22Z</time>
      </trkpt>
      <trkpt lat="41.655624490" lon="2.542985410">
        <ele>449.55</ele>
        <time>2015-12-26T08:25:26Z</time>
      </trkpt>
      <trkpt lat="41.655425340" lon="2.542866890">
        <ele>448.11</ele>
        <time>2015-12-26T08:25:30Z</time>
      </trkpt>
      <trkpt lat="41.655367090" lon="2.542889180">
        <ele>448.11</ele>
        <time>2015-12-26T08:25:33Z</time>
      </trkpt>
      <trkpt lat="41.655266500" lon="2.543059920">
        <ele>448.11</ele>
        <time>2015-12-26T08:25:41Z</time>
      </trkpt>
      <trkpt lat="41.655163660" lon="2.543230070">
        <ele>446.67</ele>
        <time>2015-12-26T08:25:47Z</time>
      </trkpt>
      <trkpt lat="41.655013290" lon="2.543322190">
        <ele>445.23</ele>
        <time>2015-12-26T08:25:53Z</time>
      </trkpt>
      <trkpt lat="41.654997950" lon="2.543334760">
        <ele>445.23</ele>
        <time>2015-12-26T08:25:54Z</time>
      </trkpt>
      <trkpt lat="41.654951340" lon="2.543387320">
        <ele>445.23</ele>
        <time>2015-12-26T08:25:57Z</time>
      </trkpt>
      <trkpt lat="41.654933990" lon="2.543419920">
        <ele>445.23</ele>
        <time>2015-12-26T08:26:04Z</time>
      </trkpt>
      <trkpt lat="41.654903310" lon="2.543464100">
        <ele>445.23</ele>
        <time>2015-12-26T08:26:10Z</time>
      </trkpt>
      <trkpt lat="41.654857380" lon="2.543510370">
        <ele>446.67</ele>
        <time>2015-12-26T08:26:14Z</time>
      </trkpt>
      <trkpt lat="41.654751100" lon="2.543586220">
        <ele>447.63</ele>
        <time>2015-12-26T08:26:20Z</time>
      </trkpt>
      <trkpt lat="41.654561580" lon="2.543685130">
        <ele>446.19</ele>
        <time>2015-12-26T08:26:26Z</time>
      </trkpt>
      <trkpt lat="41.654379030" lon="2.543753190">
        <ele>446.19</ele>
        <time>2015-12-26T08:26:32Z</time>
      </trkpt>
      <trkpt lat="41.654241060" lon="2.543799710">
        <ele>446.19</ele>
        <time>2015-12-26T08:26:37Z</time>
      </trkpt>
      <trkpt lat="41.654163860" lon="2.543816220">
        <ele>447.63</ele>
        <time>2015-12-26T08:26:40Z</time>
      </trkpt>
      <trkpt lat="41.654039980" lon="2.543872800">
        <ele>448.11</ele>
        <time>2015-12-26T08:26:46Z</time>
      </trkpt>
      <trkpt lat="41.653923720" lon="2.544035740">
        <ele>448.11</ele>
        <time>2015-12-26T08:26:52Z</time>
      </trkpt>
      <trkpt lat="41.653817860" lon="2.544278400">
        <ele>448.11</ele>
        <time>2015-12-26T08:26:59Z</time>
      </trkpt>
      <trkpt lat="41.653743850" lon="2.544498420">
        <ele>448.11</ele>
        <time>2015-12-26T08:27:05Z</time>
      </trkpt>
      <trkpt lat="41.653726750" lon="2.544586940">
        <ele>445.71</ele>
        <time>2015-12-26T08:27:07Z</time>
      </trkpt>
      <trkpt lat="41.653620550" lon="2.544580150">
        <ele>444.27</ele>
        <time>2015-12-26T08:27:12Z</time>
      </trkpt>
      <trkpt lat="41.653533710" lon="2.544502450">
        <ele>443.31</ele>
        <time>2015-12-26T08:27:15Z</time>
      </trkpt>
      <trkpt lat="41.653460790" lon="2.544438070">
        <ele>442.34</ele>
        <time>2015-12-26T08:27:17Z</time>
      </trkpt>
      <trkpt lat="41.653347630" lon="2.544353420">
        <ele>440.42</ele>
        <time>2015-12-26T08:27:20Z</time>
      </trkpt>
      <trkpt lat="41.653307740" lon="2.544348560">
        <ele>439.46</ele>
        <time>2015-12-26T08:27:21Z</time>
      </trkpt>
      <trkpt lat="41.653152250" lon="2.544362640">
        <ele>436.58</ele>
        <time>2015-12-26T08:27:24Z</time>
      </trkpt>
      <trkpt lat="41.652999870" lon="2.544409240">
        <ele>435.13</ele>
        <time>2015-12-26T08:27:27Z</time>
      </trkpt>
      <trkpt lat="41.652627290" lon="2.544419050">
        <ele>430.81</ele>
        <time>2015-12-26T08:27:33Z</time>
      </trkpt>
      <trkpt lat="41.652564090" lon="2.544426000">
        <ele>430.81</ele>
        <time>2015-12-26T08:27:34Z</time>
      </trkpt>
      <trkpt lat="41.652494610" lon="2.544431370">
        <ele>430.33</ele>
        <time>2015-12-26T08:27:35Z</time>
      </trkpt>
      <trkpt lat="41.652305850" lon="2.544471940">
        <ele>429.37</ele>
        <time>2015-12-26T08:27:38Z</time>
      </trkpt>
      <trkpt lat="41.652098560" lon="2.544569670">
        <ele>427.44</ele>
        <time>2015-12-26T08:27:42Z</time>
      </trkpt>
      <trkpt lat="41.651864710" lon="2.544731520">
        <ele>423.60</ele>
        <time>2015-12-26T08:27:47Z</time>
      </trkpt>
      <trkpt lat="41.651669490" lon="2.544927830">
        <ele>420.23</ele>
        <time>2015-12-26T08:27:51Z</time>
      </trkpt>
      <trkpt lat="41.651566980" lon="2.544963450">
        <ele>419.27</ele>
        <time>2015-12-26T08:27:53Z</time>
      </trkpt>
      <trkpt lat="41.651378140" lon="2.544919280">
        <ele>416.39</ele>
        <time>2015-12-26T08:27:56Z</time>
      </trkpt>
      <trkpt lat="41.651259370" lon="2.544938390">
        <ele>415.43</ele>
        <time>2015-12-26T08:27:58Z</time>
      </trkpt>
      <trkpt lat="41.650951410" lon="2.545047770">
        <ele>412.06</ele>
        <time>2015-12-26T08:28:03Z</time>
      </trkpt>
      <trkpt lat="41.650902880" lon="2.545032600">
        <ele>412.06</ele>
        <time>2015-12-26T08:28:04Z</time>
      </trkpt>
      <trkpt lat="41.650814290" lon="2.544943250">
        <ele>411.10</ele>
        <time>2015-12-26T08:28:06Z</time>
      </trkpt>
      <trkpt lat="41.650718980" lon="2.544831440">
        <ele>409.66</ele>
        <time>2015-12-26T08:28:08Z</time>
      </trkpt>
      <trkpt lat="41.650561570" lon="2.544707800">
        <ele>408.22</ele>
        <time>2015-12-26T08:28:11Z</time>
      </trkpt>
      <trkpt lat="41.650448840" lon="2.544667740">
        <ele>406.77</ele>
        <time>2015-12-26T08:28:13Z</time>
      </trkpt>
      <trkpt lat="41.650261170" lon="2.544633960">
        <ele>406.29</ele>
        <time>2015-12-26T08:28:16Z</time>
      </trkpt>
      <trkpt lat="41.649877780" lon="2.544747700">
        <ele>402.93</ele>
        <time>2015-12-26T08:28:22Z</time>
      </trkpt>
      <trkpt lat="41.649766210" lon="2.544738480">
        <ele>401.97</ele>
        <time>2015-12-26T08:28:24Z</time>
      </trkpt>
      <trkpt lat="41.649583910" lon="2.544533710">
        <ele>400.05</ele>
        <time>2015-12-26T08:28:28Z</time>
      </trkpt>
      <trkpt lat="41.649488770" lon="2.544355340">
        <ele>399.08</ele>
        <time>2015-12-26T08:28:31Z</time>
      </trkpt>
      <trkpt lat="41.649436300" lon="2.544054850">
        <ele>398.12</ele>
        <time>2015-12-26T08:28:36Z</time>
      </trkpt>
      <trkpt lat="41.649414090" lon="2.543742460">
        <ele>396.20</ele>
        <time>2015-12-26T08:28:40Z</time>
      </trkpt>
      <trkpt lat="41.649272520" lon="2.543076850">
        <ele>393.32</ele>
        <time>2015-12-26T08:28:47Z</time>
      </trkpt>
      <trkpt lat="41.649065240" lon="2.542474030">
        <ele>390.91</ele>
        <time>2015-12-26T08:28:53Z</time>
      </trkpt>
      <trkpt lat="41.649053000" lon="2.541957700">
        <ele>389.47</ele>
        <time>2015-12-26T08:28:58Z</time>
      </trkpt>
      <trkpt lat="41.649022820" lon="2.541768190">
        <ele>388.51</ele>
        <time>2015-12-26T08:29:00Z</time>
      </trkpt>
      <trkpt lat="41.648845380" lon="2.541499380">
        <ele>387.07</ele>
        <time>2015-12-26T08:29:05Z</time>
      </trkpt>
      <trkpt lat="41.648751840" lon="2.541437270">
        <ele>386.59</ele>
        <time>2015-12-26T08:29:07Z</time>
      </trkpt>
      <trkpt lat="41.648549250" lon="2.541389410">
        <ele>385.63</ele>
        <time>2015-12-26T08:29:11Z</time>
      </trkpt>
      <trkpt lat="41.648129400" lon="2.541283460">
        <ele>382.26</ele>
        <time>2015-12-26T08:29:18Z</time>
      </trkpt>
      <trkpt lat="41.648016580" lon="2.541265190">
        <ele>382.26</ele>
        <time>2015-12-26T08:29:20Z</time>
      </trkpt>
      <trkpt lat="41.647820100" lon="2.541150100">
        <ele>378.90</ele>
        <time>2015-12-26T08:29:24Z</time>
      </trkpt>
      <trkpt lat="41.647740810" lon="2.541077940">
        <ele>377.94</ele>
        <time>2015-12-26T08:29:26Z</time>
      </trkpt>
      <trkpt lat="41.647578030" lon="2.540914410">
        <ele>374.57</ele>
        <time>2015-12-26T08:29:30Z</time>
      </trkpt>
      <trkpt lat="41.647534030" lon="2.540877270">
        <ele>374.09</ele>
        <time>2015-12-26T08:29:31Z</time>
      </trkpt>
      <trkpt lat="41.647269660" lon="2.540787250">
        <ele>370.73</ele>
        <time>2015-12-26T08:29:35Z</time>
      </trkpt>
      <trkpt lat="41.647102110" lon="2.540783820">
        <ele>369.76</ele>
        <time>2015-12-26T08:29:37Z</time>
      </trkpt>
      <trkpt lat="41.647015860" lon="2.540785830">
        <ele>368.80</ele>
        <time>2015-12-26T08:29:38Z</time>
      </trkpt>
      <trkpt lat="41.646740770" lon="2.540848610">
        <ele>366.40</ele>
        <time>2015-12-26T08:29:42Z</time>
      </trkpt>
      <trkpt lat="41.646504560" lon="2.540823130">
        <ele>363.04</ele>
        <time>2015-12-26T08:29:46Z</time>
      </trkpt>
      <trkpt lat="41.646278080" lon="2.540724220">
        <ele>358.71</ele>
        <time>2015-12-26T08:29:49Z</time>
      </trkpt>
      <trkpt lat="41.646130810" lon="2.540647110">
        <ele>355.83</ele>
        <time>2015-12-26T08:29:51Z</time>
      </trkpt>
      <trkpt lat="41.645960160" lon="2.540461620">
        <ele>352.94</ele>
        <time>2015-12-26T08:29:54Z</time>
      </trkpt>
      <trkpt lat="41.645747010" lon="2.540280060">
        <ele>350.06</ele>
        <time>2015-12-26T08:29:58Z</time>
      </trkpt>
      <trkpt lat="41.645654140" lon="2.540239240">
        <ele>349.10</ele>
        <time>2015-12-26T08:30:00Z</time>
      </trkpt>
      <trkpt lat="41.645436540" lon="2.540170850">
        <ele>348.13</ele>
        <time>2015-12-26T08:30:06Z</time>
      </trkpt>
      <trkpt lat="41.645281900" lon="2.540139750">
        <ele>351.02</ele>
        <time>2015-12-26T08:30:12Z</time>
      </trkpt>
      <trkpt lat="41.645099670" lon="2.540053580">
        <ele>352.46</ele>
        <time>2015-12-26T08:30:20Z</time>
      </trkpt>
      <trkpt lat="41.644953740" lon="2.539982760">
        <ele>353.90</ele>
        <time>2015-12-26T08:30:27Z</time>
      </trkpt>
      <trkpt lat="41.644814860" lon="2.539918470">
        <ele>355.34</ele>
        <time>2015-12-26T08:30:34Z</time>
      </trkpt>
      <trkpt lat="41.644693320" lon="2.539864490">
        <ele>356.79</ele>
        <time>2015-12-26T08:30:41Z</time>
      </trkpt>
      <trkpt lat="41.644597930" lon="2.539937080">
        <ele>357.27</ele>
        <time>2015-12-26T08:30:47Z</time>
      </trkpt>
      <trkpt lat="41.644553510" lon="2.540120890">
        <ele>359.19</ele>
        <time>2015-12-26T08:30:55Z</time>
      </trkpt>
      <trkpt lat="41.644521820" lon="2.540257180">
        <ele>361.11</ele>
        <time>2015-12-26T08:31:01Z</time>
      </trkpt>
      <trkpt lat="41.644444040" lon="2.540432780">
        <ele>363.04</ele>
        <time>2015-12-26T08:31:09Z</time>
      </trkpt>
      <trkpt lat="41.644314620" lon="2.540479220">
        <ele>364.48</ele>
        <time>2015-12-26T08:31:16Z</time>
      </trkpt>
      <trkpt lat="41.644284030" lon="2.540362120">
        <ele>365.92</ele>
        <time>2015-12-26T08:31:22Z</time>
      </trkpt>
      <trkpt lat="41.644250080" lon="2.540199180">
        <ele>367.84</ele>
        <time>2015-12-26T08:31:30Z</time>
      </trkpt>
      <trkpt lat="41.644189150" lon="2.540077050">
        <ele>369.28</ele>
        <time>2015-12-26T08:31:37Z</time>
      </trkpt>
      <trkpt lat="41.644085300" lon="2.539943190">
        <ele>370.73</ele>
        <time>2015-12-26T08:31:46Z</time>
      </trkpt>
      <trkpt lat="41.644024530" lon="2.539881500">
        <ele>372.17</ele>
        <time>2015-12-26T08:31:51Z</time>
      </trkpt>
      <trkpt lat="41.643931570" lon="2.539760300">
        <ele>374.09</ele>
        <time>2015-12-26T08:31:59Z</time>
      </trkpt>
      <trkpt lat="41.643830740" lon="2.539656700">
        <ele>375.05</ele>
        <time>2015-12-26T08:32:07Z</time>
      </trkpt>
      <trkpt lat="41.643703830" lon="2.539589810">
        <ele>376.49</ele>
        <time>2015-12-26T08:32:15Z</time>
      </trkpt>
      <trkpt lat="41.643576430" lon="2.539519660">
        <ele>377.94</ele>
        <time>2015-12-26T08:32:23Z</time>
      </trkpt>
      <trkpt lat="41.643466460" lon="2.539462660">
        <ele>379.86</ele>
        <time>2015-12-26T08:32:31Z</time>
      </trkpt>
      <trkpt lat="41.643375600" lon="2.539359400">
        <ele>380.82</ele>
        <time>2015-12-26T08:32:38Z</time>
      </trkpt>
      <trkpt lat="41.643280460" lon="2.539191090">
        <ele>382.74</ele>
        <time>2015-12-26T08:32:47Z</time>
      </trkpt>
      <trkpt lat="41.643158510" lon="2.539101400">
        <ele>385.15</ele>
        <time>2015-12-26T08:32:56Z</time>
      </trkpt>
      <trkpt lat="41.643059180" lon="2.539047760">
        <ele>385.63</ele>
        <time>2015-12-26T08:33:02Z</time>
      </trkpt>
      <trkpt lat="41.642918370" lon="2.538981870">
        <ele>387.07</ele>
        <time>2015-12-26T08:33:11Z</time>
      </trkpt>
      <trkpt lat="41.642786180" lon="2.538881120">
        <ele>388.03</ele>
        <time>2015-12-26T08:33:19Z</time>
      </trkpt>
      <trkpt lat="41.642626010" lon="2.538744500">
        <ele>388.99</ele>
        <time>2015-12-26T08:33:28Z</time>
      </trkpt>
      <trkpt lat="41.642469180" lon="2.538582060">
        <ele>389.47</ele>
        <time>2015-12-26T08:33:36Z</time>
      </trkpt>
      <trkpt lat="41.642433470" lon="2.538566630">
        <ele>389.47</ele>
        <time>2015-12-26T08:33:37Z</time>
      </trkpt>
      <trkpt lat="41.642200370" lon="2.538553310">
        <ele>388.03</ele>
        <time>2015-12-26T08:33:42Z</time>
      </trkpt>
      <trkpt lat="41.641958140" lon="2.538464710">
        <ele>387.07</ele>
        <time>2015-12-26T08:33:47Z</time>
      </trkpt>
      <trkpt lat="41.641874650" lon="2.538404950">
        <ele>387.07</ele>
        <time>2015-12-26T08:33:49Z</time>
      </trkpt>
      <trkpt lat="41.641673070" lon="2.538090960">
        <ele>387.07</ele>
        <time>2015-12-26T08:33:57Z</time>
      </trkpt>
      <trkpt lat="41.641603250" lon="2.537618310">
        <ele>387.07</ele>
        <time>2015-12-26T08:34:04Z</time>
      </trkpt>
      <trkpt lat="41.641597800" lon="2.537537920">
        <ele>387.07</ele>
        <time>2015-12-26T08:34:05Z</time>
      </trkpt>
      <trkpt lat="41.641649600" lon="2.537088150">
        <ele>386.59</ele>
        <time>2015-12-26T08:34:11Z</time>
      </trkpt>
      <trkpt lat="41.641548260" lon="2.536820770">
        <ele>386.59</ele>
        <time>2015-12-26T08:34:16Z</time>
      </trkpt>
      <trkpt lat="41.641406770" lon="2.536549110">
        <ele>384.66</ele>
        <time>2015-12-26T08:34:20Z</time>
      </trkpt>
      <trkpt lat="41.641386410" lon="2.536461850">
        <ele>384.18</ele>
        <time>2015-12-26T08:34:21Z</time>
      </trkpt>
      <trkpt lat="41.641212150" lon="2.535893140">
        <ele>379.86</ele>
        <time>2015-12-26T08:34:27Z</time>
      </trkpt>
      <trkpt lat="41.641141400" lon="2.535705140">
        <ele>378.90</ele>
        <time>2015-12-26T08:34:29Z</time>
      </trkpt>
      <trkpt lat="41.641075270" lon="2.535516540">
        <ele>377.45</ele>
        <time>2015-12-26T08:34:32Z</time>
      </trkpt>
      <trkpt lat="41.640997070" lon="2.535552590">
        <ele>375.53</ele>
        <time>2015-12-26T08:34:36Z</time>
      </trkpt>
      <trkpt lat="41.640996820" lon="2.535649560">
        <ele>374.09</ele>
        <time>2015-12-26T08:34:38Z</time>
      </trkpt>
      <trkpt lat="41.641017350" lon="2.536083240">
        <ele>371.21</ele>
        <time>2015-12-26T08:34:43Z</time>
      </trkpt>
      <trkpt lat="41.641052140" lon="2.536516090">
        <ele>368.32</ele>
        <time>2015-12-26T08:34:47Z</time>
      </trkpt>
      <trkpt lat="41.641212060" lon="2.537240620">
        <ele>366.88</ele>
        <time>2015-12-26T08:34:55Z</time>
      </trkpt>
      <trkpt lat="41.641199490" lon="2.537653590">
        <ele>366.88</ele>
        <time>2015-12-26T08:35:00Z</time>
      </trkpt>
      <trkpt lat="41.641162440" lon="2.538135970">
        <ele>365.44</ele>
        <time>2015-12-26T08:35:06Z</time>
      </trkpt>
      <trkpt lat="41.641154730" lon="2.538223730">
        <ele>364.96</ele>
        <time>2015-12-26T08:35:07Z</time>
      </trkpt>
      <trkpt lat="41.641037640" lon="2.538581390">
        <ele>362.07</ele>
        <time>2015-12-26T08:35:11Z</time>
      </trkpt>
      <trkpt lat="41.640946100" lon="2.538734360">
        <ele>359.67</ele>
        <time>2015-12-26T08:35:13Z</time>
      </trkpt>
      <trkpt lat="41.640795900" lon="2.538904590">
        <ele>356.79</ele>
        <time>2015-12-26T08:35:16Z</time>
      </trkpt>
      <trkpt lat="41.640666900" lon="2.539089830">
        <ele>354.86</ele>
        <time>2015-12-26T08:35:19Z</time>
      </trkpt>
      <trkpt lat="41.640448970" lon="2.539380520">
        <ele>350.06</ele>
        <time>2015-12-26T08:35:23Z</time>
      </trkpt>
      <trkpt lat="41.640237160" lon="2.539626860">
        <ele>346.69</ele>
        <time>2015-12-26T08:35:26Z</time>
      </trkpt>
      <trkpt lat="41.640077490" lon="2.539813360">
        <ele>342.37</ele>
        <time>2015-12-26T08:35:29Z</time>
      </trkpt>
      <trkpt lat="41.640050670" lon="2.539845130">
        <ele>341.41</ele>
        <time>2015-12-26T08:35:30Z</time>
      </trkpt>
      <trkpt lat="41.639983190" lon="2.539875130">
        <ele>340.44</ele>
        <time>2015-12-26T08:35:37Z</time>
      </trkpt>
      <trkpt lat="41.639944470" lon="2.539953500">
        <ele>341.41</ele>
        <time>2015-12-26T08:35:45Z</time>
      </trkpt>
      <trkpt lat="41.639902810" lon="2.540019640">
        <ele>340.44</ele>
        <time>2015-12-26T08:35:52Z</time>
      </trkpt>
      <trkpt lat="41.639806000" lon="2.540172520">
        <ele>339.48</ele>
        <time>2015-12-26T08:35:56Z</time>
      </trkpt>
      <trkpt lat="41.639680440" lon="2.540317030">
        <ele>338.04</ele>
        <time>2015-12-26T08:35:59Z</time>
      </trkpt>
      <trkpt lat="41.639594940" lon="2.540434790">
        <ele>337.08</ele>
        <time>2015-12-26T08:36:01Z</time>
      </trkpt>
      <trkpt lat="41.639391180" lon="2.540808630">
        <ele>334.68</ele>
        <time>2015-12-26T08:36:06Z</time>
      </trkpt>
      <trkpt lat="41.639215240" lon="2.540996800">
        <ele>331.31</ele>
        <time>2015-12-26T08:36:09Z</time>
      </trkpt>
      <trkpt lat="41.639098230" lon="2.541156980">
        <ele>330.35</ele>
        <time>2015-12-26T08:36:11Z</time>
      </trkpt>
      <trkpt lat="41.638905110" lon="2.541497370">
        <ele>329.39</ele>
        <time>2015-12-26T08:36:15Z</time>
      </trkpt>
      <trkpt lat="41.638641250" lon="2.541886620">
        <ele>326.02</ele>
        <time>2015-12-26T08:36:20Z</time>
      </trkpt>
      <trkpt lat="41.638604370" lon="2.541986280">
        <ele>326.02</ele>
        <time>2015-12-26T08:36:21Z</time>
      </trkpt>
      <trkpt lat="41.638478720" lon="2.542486260">
        <ele>324.10</ele>
        <time>2015-12-26T08:36:26Z</time>
      </trkpt>
      <trkpt lat="41.638204470" lon="2.542863450">
        <ele>317.85</ele>
        <time>2015-12-26T08:36:31Z</time>
      </trkpt>
      <trkpt lat="41.638036080" lon="2.542974590">
        <ele>316.41</ele>
        <time>2015-12-26T08:36:35Z</time>
      </trkpt>
      <trkpt lat="41.638023670" lon="2.542890940">
        <ele>315.93</ele>
        <time>2015-12-26T08:36:40Z</time>
      </trkpt>
      <trkpt lat="41.638177730" lon="2.542740990">
        <ele>314.01</ele>
        <time>2015-12-26T08:36:47Z</time>
      </trkpt>
      <trkpt lat="41.638281670" lon="2.542522140">
        <ele>313.53</ele>
        <time>2015-12-26T08:36:52Z</time>
      </trkpt>
      <trkpt lat="41.638337400" lon="2.542136240">
        <ele>313.53</ele>
        <time>2015-12-26T08:36:59Z</time>
      </trkpt>
      <trkpt lat="41.638433800" lon="2.541907070">
        <ele>314.49</ele>
        <time>2015-12-26T08:37:05Z</time>
      </trkpt>
      <trkpt lat="41.638450230" lon="2.541884860">
        <ele>314.49</ele>
        <time>2015-12-26T08:37:06Z</time>
      </trkpt>
      <trkpt lat="41.638583250" lon="2.541705990">
        <ele>316.41</ele>
        <time>2015-12-26T08:37:14Z</time>
      </trkpt>
      <trkpt lat="41.638612920" lon="2.541645640">
        <ele>317.37</ele>
        <time>2015-12-26T08:37:16Z</time>
      </trkpt>
      <trkpt lat="41.638617950" lon="2.541350600">
        <ele>313.53</ele>
        <time>2015-12-26T08:37:21Z</time>
      </trkpt>
      <trkpt lat="41.638628420" lon="2.541288740">
        <ele>313.53</ele>
        <time>2015-12-26T08:37:22Z</time>
      </trkpt>
      <trkpt lat="41.638667820" lon="2.541154710">
        <ele>312.09</ele>
        <time>2015-12-26T08:37:24Z</time>
      </trkpt>
      <trkpt lat="41.638722390" lon="2.540978440">
        <ele>310.64</ele>
        <time>2015-12-26T08:37:27Z</time>
      </trkpt>
      <trkpt lat="41.638716770" lon="2.540718440">
        <ele>309.20</ele>
        <time>2015-12-26T08:37:32Z</time>
      </trkpt>
      <trkpt lat="41.638686260" lon="2.540485420">
        <ele>307.28</ele>
        <time>2015-12-26T08:37:36Z</time>
      </trkpt>
      <trkpt lat="41.638725990" lon="2.540241590">
        <ele>304.39</ele>
        <time>2015-12-26T08:37:41Z</time>
      </trkpt>
      <trkpt lat="41.638786670" lon="2.540001280">
        <ele>301.51</ele>
        <time>2015-12-26T08:37:46Z</time>
      </trkpt>
      <trkpt lat="41.638877120" lon="2.539717890">
        <ele>298.63</ele>
        <time>2015-12-26T08:37:52Z</time>
      </trkpt>
      <trkpt lat="41.638913410" lon="2.539641110">
        <ele>297.67</ele>
        <time>2015-12-26T08:37:54Z</time>
      </trkpt>
      <trkpt lat="41.638965040" lon="2.539384210">
        <ele>295.26</ele>
        <time>2015-12-26T08:38:00Z</time>
      </trkpt>
      <trkpt lat="41.638969150" lon="2.539346150">
        <ele>295.26</ele>
        <time>2015-12-26T08:38:01Z</time>
      </trkpt>
      <trkpt lat="41.638918020" lon="2.539334330">
        <ele>293.34</ele>
        <time>2015-12-26T08:38:06Z</time>
      </trkpt>
      <trkpt lat="41.638813660" lon="2.539420580">
        <ele>290.46</ele>
        <time>2015-12-26T08:38:09Z</time>
      </trkpt>
      <trkpt lat="41.638672510" lon="2.539560390">
        <ele>288.05</ele>
        <time>2015-12-26T08:38:13Z</time>
      </trkpt>
      <trkpt lat="41.638486600" lon="2.539719820">
        <ele>286.13</ele>
        <time>2015-12-26T08:38:19Z</time>
      </trkpt>
      <trkpt lat="41.638457350" lon="2.539780500">
        <ele>285.17</ele>
        <time>2015-12-26T08:38:21Z</time>
      </trkpt>
      <trkpt lat="41.638403450" lon="2.539948730">
        <ele>283.25</ele>
        <time>2015-12-26T08:38:24Z</time>
      </trkpt>
      <trkpt lat="41.638276890" lon="2.540126420">
        <ele>280.36</ele>
        <time>2015-12-26T08:38:28Z</time>
      </trkpt>
      <trkpt lat="41.638167340" lon="2.540247370">
        <ele>279.40</ele>
        <time>2015-12-26T08:38:31Z</time>
      </trkpt>
      <trkpt lat="41.637965580" lon="2.540567560">
        <ele>275.56</ele>
        <time>2015-12-26T08:38:35Z</time>
      </trkpt>
      <trkpt lat="41.637806910" lon="2.540811980">
        <ele>272.67</ele>
        <time>2015-12-26T08:38:38Z</time>
      </trkpt>
      <trkpt lat="41.637705740" lon="2.540937790">
        <ele>271.71</ele>
        <time>2015-12-26T08:38:40Z</time>
      </trkpt>
      <trkpt lat="41.637553030" lon="2.541113980">
        <ele>270.27</ele>
        <time>2015-12-26T08:38:43Z</time>
      </trkpt>
      <trkpt lat="41.637366030" lon="2.541380100">
        <ele>266.90</ele>
        <time>2015-12-26T08:38:47Z</time>
      </trkpt>
      <trkpt lat="41.637265280" lon="2.541515220">
        <ele>266.42</ele>
        <time>2015-12-26T08:38:49Z</time>
      </trkpt>
      <trkpt lat="41.637088500" lon="2.541751760">
        <ele>262.58</ele>
        <time>2015-12-26T08:38:52Z</time>
      </trkpt>
      <trkpt lat="41.636913240" lon="2.542021240">
        <ele>259.69</ele>
        <time>2015-12-26T08:38:55Z</time>
      </trkpt>
      <trkpt lat="41.636808380" lon="2.542184770">
        <ele>258.73</ele>
        <time>2015-12-26T08:38:57Z</time>
      </trkpt>
      <trkpt lat="41.636599000" lon="2.542535050">
        <ele>255.37</ele>
        <time>2015-12-26T08:39:01Z</time>
      </trkpt>
      <trkpt lat="41.636408560" lon="2.542957330">
        <ele>255.37</ele>
        <time>2015-12-26T08:39:06Z</time>
      </trkpt>
      <trkpt lat="41.636297330" lon="2.543057160">
        <ele>254.41</ele>
        <time>2015-12-26T08:39:08Z</time>
      </trkpt>
      <trkpt lat="41.636086700" lon="2.543281290">
        <ele>252.48</ele>
        <time>2015-12-26T08:39:12Z</time>
      </trkpt>
      <trkpt lat="41.635974630" lon="2.543670790">
        <ele>253.93</ele>
        <time>2015-12-26T08:39:18Z</time>
      </trkpt>
      <trkpt lat="41.635957360" lon="2.543726450">
        <ele>253.93</ele>
        <time>2015-12-26T08:39:19Z</time>
      </trkpt>
      <trkpt lat="41.635910010" lon="2.543824940">
        <ele>254.41</ele>
        <time>2015-12-26T08:39:21Z</time>
      </trkpt>
      <trkpt lat="41.635746140" lon="2.543999450">
        <ele>253.44</ele>
        <time>2015-12-26T08:39:25Z</time>
      </trkpt>
      <trkpt lat="41.635383040" lon="2.544178240">
        <ele>252.00</ele>
        <time>2015-12-26T08:39:31Z</time>
      </trkpt>
      <trkpt lat="41.635233170" lon="2.544371860">
        <ele>249.12</ele>
        <time>2015-12-26T08:39:34Z</time>
      </trkpt>
      <trkpt lat="41.635148340" lon="2.544535220">
        <ele>247.68</ele>
        <time>2015-12-26T08:39:37Z</time>
      </trkpt>
      <trkpt lat="41.635029910" lon="2.544686180">
        <ele>246.23</ele>
        <time>2015-12-26T08:39:40Z</time>
      </trkpt>
      <trkpt lat="41.634920520" lon="2.544781820">
        <ele>245.27</ele>
        <time>2015-12-26T08:39:42Z</time>
      </trkpt>
      <trkpt lat="41.634813490" lon="2.544863290">
        <ele>244.31</ele>
        <time>2015-12-26T08:39:44Z</time>
      </trkpt>
      <trkpt lat="41.634628920" lon="2.545081050">
        <ele>243.83</ele>
        <time>2015-12-26T08:39:48Z</time>
      </trkpt>
      <trkpt lat="41.634376200" lon="2.545284310">
        <ele>243.35</ele>
        <time>2015-12-26T08:39:54Z</time>
      </trkpt>
      <trkpt lat="41.634248380" lon="2.545331000">
        <ele>242.87</ele>
        <time>2015-12-26T08:39:57Z</time>
      </trkpt>
      <trkpt lat="41.634147040" lon="2.545416490">
        <ele>242.39</ele>
        <time>2015-12-26T08:40:00Z</time>
      </trkpt>
      <trkpt lat="41.634071100" lon="2.545749340">
        <ele>239.02</ele>
        <time>2015-12-26T08:40:05Z</time>
      </trkpt>
      <trkpt lat="41.634189200" lon="2.545938430">
        <ele>237.10</ele>
        <time>2015-12-26T08:40:08Z</time>
      </trkpt>
      <trkpt lat="41.634281070" lon="2.546024010">
        <ele>234.70</ele>
        <time>2015-12-26T08:40:10Z</time>
      </trkpt>
      <trkpt lat="41.634396820" lon="2.546277570">
        <ele>233.26</ele>
        <time>2015-12-26T08:40:15Z</time>
      </trkpt>
      <trkpt lat="41.634282580" lon="2.546376470">
        <ele>230.85</ele>
        <time>2015-12-26T08:40:19Z</time>
      </trkpt>
      <trkpt lat="41.634239660" lon="2.546371360">
        <ele>230.85</ele>
        <time>2015-12-26T08:40:20Z</time>
      </trkpt>
      <trkpt lat="41.633955930" lon="2.546293740">
        <ele>227.97</ele>
        <time>2015-12-26T08:40:26Z</time>
      </trkpt>
      <trkpt lat="41.633759040" lon="2.546291650">
        <ele>225.09</ele>
        <time>2015-12-26T08:40:29Z</time>
      </trkpt>
      <trkpt lat="41.633632730" lon="2.546316210">
        <ele>224.61</ele>
        <time>2015-12-26T08:40:31Z</time>
      </trkpt>
      <trkpt lat="41.633553940" lon="2.546335320">
        <ele>223.16</ele>
        <time>2015-12-26T08:40:32Z</time>
      </trkpt>
      <trkpt lat="41.633380680" lon="2.546399100">
        <ele>220.76</ele>
        <time>2015-12-26T08:40:35Z</time>
      </trkpt>
      <trkpt lat="41.633189410" lon="2.546431290">
        <ele>218.36</ele>
        <time>2015-12-26T08:40:38Z</time>
      </trkpt>
      <trkpt lat="41.633015570" lon="2.546454420">
        <ele>216.91</ele>
        <time>2015-12-26T08:40:41Z</time>
      </trkpt>
      <trkpt lat="41.632885060" lon="2.546605050">
        <ele>213.55</ele>
        <time>2015-12-26T08:40:44Z</time>
      </trkpt>
      <trkpt lat="41.632720270" lon="2.546738740">
        <ele>211.63</ele>
        <time>2015-12-26T08:40:47Z</time>
      </trkpt>
      <trkpt lat="41.632528830" lon="2.546809820">
        <ele>209.22</ele>
        <time>2015-12-26T08:40:50Z</time>
      </trkpt>
      <trkpt lat="41.632405950" lon="2.546906130">
        <ele>208.26</ele>
        <time>2015-12-26T08:40:53Z</time>
      </trkpt>
      <trkpt lat="41.632186180" lon="2.547105200">
        <ele>205.38</ele>
        <time>2015-12-26T08:40:58Z</time>
      </trkpt>
      <trkpt lat="41.631931120" lon="2.547298150">
        <ele>205.86</ele>
        <time>2015-12-26T08:41:05Z</time>
      </trkpt>
      <trkpt lat="41.631778900" lon="2.547444330">
        <ele>205.86</ele>
        <time>2015-12-26T08:41:09Z</time>
      </trkpt>
      <trkpt lat="41.631601040" lon="2.547772310">
        <ele>203.46</ele>
        <time>2015-12-26T08:41:14Z</time>
      </trkpt>
      <trkpt lat="41.631425600" lon="2.548110940">
        <ele>198.65</ele>
        <time>2015-12-26T08:41:18Z</time>
      </trkpt>
      <trkpt lat="41.631346230" lon="2.548287380">
        <ele>196.73</ele>
        <time>2015-12-26T08:41:20Z</time>
      </trkpt>
      <trkpt lat="41.631170120" lon="2.548567420">
        <ele>195.77</ele>
        <time>2015-12-26T08:41:24Z</time>
      </trkpt>
      <trkpt lat="41.631095020" lon="2.548696160">
        <ele>194.80</ele>
        <time>2015-12-26T08:41:26Z</time>
      </trkpt>
      <trkpt lat="41.630888660" lon="2.548925580">
        <ele>196.73</ele>
        <time>2015-12-26T08:41:32Z</time>
      </trkpt>
      <trkpt lat="41.630774410" lon="2.549045940">
        <ele>197.21</ele>
        <time>2015-12-26T08:41:36Z</time>
      </trkpt>
      <trkpt lat="41.630611890" lon="2.549211320">
        <ele>194.80</ele>
        <time>2015-12-26T08:41:40Z</time>
      </trkpt>
      <trkpt lat="41.630494040" lon="2.549299580">
        <ele>193.36</ele>
        <time>2015-12-26T08:41:42Z</time>
      </trkpt>
      <trkpt lat="41.630298490" lon="2.549556820">
        <ele>190.96</ele>
        <time>2015-12-26T08:41:46Z</time>
      </trkpt>
      <trkpt lat="41.630250130" lon="2.549622030">
        <ele>190.96</ele>
        <time>2015-12-26T08:41:47Z</time>
      </trkpt>
      <trkpt lat="41.629961450" lon="2.549821440">
        <ele>189.52</ele>
        <time>2015-12-26T08:41:52Z</time>
      </trkpt>
      <trkpt lat="41.629807060" lon="2.549856810">
        <ele>187.59</ele>
        <time>2015-12-26T08:41:54Z</time>
      </trkpt>
      <trkpt lat="41.629532720" lon="2.549954040">
        <ele>186.63</ele>
        <time>2015-12-26T08:41:58Z</time>
      </trkpt>
      <trkpt lat="41.629320990" lon="2.550142460">
        <ele>186.63</ele>
        <time>2015-12-26T08:42:03Z</time>
      </trkpt>
      <trkpt lat="41.629280420" lon="2.550204660">
        <ele>186.63</ele>
        <time>2015-12-26T08:42:04Z</time>
      </trkpt>
      <trkpt lat="41.629123430" lon="2.550655180">
        <ele>185.19</ele>
        <time>2015-12-26T08:42:10Z</time>
      </trkpt>
      <trkpt lat="41.629092330" lon="2.550957520">
        <ele>184.71</ele>
        <time>2015-12-26T08:42:14Z</time>
      </trkpt>
      <trkpt lat="41.628964010" lon="2.551179050">
        <ele>183.27</ele>
        <time>2015-12-26T08:42:18Z</time>
      </trkpt>
      <trkpt lat="41.628921090" lon="2.551202100">
        <ele>182.31</ele>
        <time>2015-12-26T08:42:19Z</time>
      </trkpt>
      <trkpt lat="41.628826710" lon="2.551248540">
        <ele>181.83</ele>
        <time>2015-12-26T08:42:21Z</time>
      </trkpt>
      <trkpt lat="41.628633010" lon="2.551460600">
        <ele>179.90</ele>
        <time>2015-12-26T08:42:25Z</time>
      </trkpt>
      <trkpt lat="41.628379200" lon="2.551796210">
        <ele>178.94</ele>
        <time>2015-12-26T08:42:30Z</time>
      </trkpt>
      <trkpt lat="41.628282810" lon="2.552072900">
        <ele>176.06</ele>
        <time>2015-12-26T08:42:33Z</time>
      </trkpt>
      <trkpt lat="41.628186580" lon="2.552343630">
        <ele>173.17</ele>
        <time>2015-12-26T08:42:37Z</time>
      </trkpt>
      <trkpt lat="41.628053650" lon="2.552373640">
        <ele>172.69</ele>
        <time>2015-12-26T08:42:41Z</time>
      </trkpt>
      <trkpt lat="41.627973680" lon="2.552393170">
        <ele>172.69</ele>
        <time>2015-12-26T08:42:43Z</time>
      </trkpt>
      <trkpt lat="41.627812000" lon="2.552468610">
        <ele>170.29</ele>
        <time>2015-12-26T08:42:46Z</time>
      </trkpt>
      <trkpt lat="41.627610410" lon="2.552756530">
        <ele>168.85</ele>
        <time>2015-12-26T08:42:50Z</time>
      </trkpt>
      <trkpt lat="41.627581160" lon="2.552851240">
        <ele>168.85</ele>
        <time>2015-12-26T08:42:51Z</time>
      </trkpt>
      <trkpt lat="41.627536320" lon="2.553298080">
        <ele>167.41</ele>
        <time>2015-12-26T08:42:56Z</time>
      </trkpt>
      <trkpt lat="41.627468420" lon="2.553421970">
        <ele>166.93</ele>
        <time>2015-12-26T08:43:00Z</time>
      </trkpt>
      <trkpt lat="41.627429870" lon="2.553423810">
        <ele>166.93</ele>
        <time>2015-12-26T08:43:01Z</time>
      </trkpt>
      <trkpt lat="41.627214620" lon="2.553467060">
        <ele>166.93</ele>
        <time>2015-12-26T08:43:06Z</time>
      </trkpt>
      <trkpt lat="41.626714560" lon="2.553855060">
        <ele>163.56</ele>
        <time>2015-12-26T08:43:15Z</time>
      </trkpt>
      <trkpt lat="41.626652280" lon="2.553898310">
        <ele>163.56</ele>
        <time>2015-12-26T08:43:16Z</time>
      </trkpt>
      <trkpt lat="41.626375170" lon="2.553969970">
        <ele>161.64</ele>
        <time>2015-12-26T08:43:20Z</time>
      </trkpt>
      <trkpt lat="41.626031090" lon="2.554271890">
        <ele>160.20</ele>
        <time>2015-12-26T08:43:26Z</time>
      </trkpt>
      <trkpt lat="41.625923300" lon="2.554509770">
        <ele>158.27</ele>
        <time>2015-12-26T08:43:29Z</time>
      </trkpt>
      <trkpt lat="41.625778130" lon="2.555034390">
        <ele>154.43</ele>
        <time>2015-12-26T08:43:34Z</time>
      </trkpt>
      <trkpt lat="41.625740240" lon="2.555218880">
        <ele>153.47</ele>
        <time>2015-12-26T08:43:36Z</time>
      </trkpt>
      <trkpt lat="41.625585850" lon="2.555442510">
        <ele>152.03</ele>
        <time>2015-12-26T08:43:40Z</time>
      </trkpt>
      <trkpt lat="41.625470930" lon="2.555547620">
        <ele>150.58</ele>
        <time>2015-12-26T08:43:42Z</time>
      </trkpt>
      <trkpt lat="41.625311760" lon="2.555739060">
        <ele>148.18</ele>
        <time>2015-12-26T08:43:45Z</time>
      </trkpt>
      <trkpt lat="41.625183350" lon="2.555889850">
        <ele>146.74</ele>
        <time>2015-12-26T08:43:48Z</time>
      </trkpt>
      <trkpt lat="41.625068850" lon="2.556001240">
        <ele>146.26</ele>
        <time>2015-12-26T08:43:52Z</time>
      </trkpt>
      <trkpt lat="41.624918980" lon="2.556139630">
        <ele>147.22</ele>
        <time>2015-12-26T08:43:57Z</time>
      </trkpt>
      <trkpt lat="41.624669120" lon="2.556252370">
        <ele>148.66</ele>
        <time>2015-12-26T08:44:04Z</time>
      </trkpt>
      <trkpt lat="41.624536010" lon="2.556282460">
        <ele>148.66</ele>
        <time>2015-12-26T08:44:07Z</time>
      </trkpt>
      <trkpt lat="41.624290340" lon="2.556405670">
        <ele>146.74</ele>
        <time>2015-12-26T08:44:12Z</time>
      </trkpt>
      <trkpt lat="41.623998900" lon="2.556482450">
        <ele>143.85</ele>
        <time>2015-12-26T08:44:18Z</time>
      </trkpt>
      <trkpt lat="41.623864790" lon="2.556535170">
        <ele>142.89</ele>
        <time>2015-12-26T08:44:23Z</time>
      </trkpt>
      <trkpt lat="41.623759680" lon="2.556572470">
        <ele>142.89</ele>
        <time>2015-12-26T08:44:27Z</time>
      </trkpt>
      <trkpt lat="41.623707880" lon="2.556590660">
        <ele>142.41</ele>
        <time>2015-12-26T08:44:33Z</time>
      </trkpt>
      <trkpt lat="41.623683070" lon="2.556597780">
        <ele>142.41</ele>
        <time>2015-12-26T08:44:43Z</time>
      </trkpt>
      <trkpt lat="41.623666730" lon="2.556586470">
        <ele>142.41</ele>
        <time>2015-12-26T08:44:53Z</time>
      </trkpt>
      <trkpt lat="41.623656080" lon="2.556578760">
        <ele>142.41</ele>
        <time>2015-12-26T08:45:02Z</time>
      </trkpt>
      <trkpt lat="41.623634790" lon="2.556493350">
        <ele>142.41</ele>
        <time>2015-12-26T08:45:07Z</time>
      </trkpt>
      <trkpt lat="41.623582150" lon="2.556283130">
        <ele>142.41</ele>
        <time>2015-12-26T08:45:14Z</time>
      </trkpt>
      <trkpt lat="41.623556000" lon="2.556048100">
        <ele>142.41</ele>
        <time>2015-12-26T08:45:21Z</time>
      </trkpt>
      <trkpt lat="41.623550140" lon="2.555746180">
        <ele>143.85</ele>
        <time>2015-12-26T08:45:29Z</time>
      </trkpt>
      <trkpt lat="41.623491630" lon="2.555459520">
        <ele>145.30</ele>
        <time>2015-12-26T08:45:37Z</time>
      </trkpt>
      <trkpt lat="41.623343270" lon="2.555276710">
        <ele>146.26</ele>
        <time>2015-12-26T08:45:44Z</time>
      </trkpt>
      <trkpt lat="41.623114440" lon="2.555211920">
        <ele>147.22</ele>
        <time>2015-12-26T08:45:52Z</time>
      </trkpt>
      <trkpt lat="41.622813030" lon="2.555135980">
        <ele>149.62</ele>
        <time>2015-12-26T08:46:02Z</time>
      </trkpt>
      <trkpt lat="41.622570120" lon="2.554982510">
        <ele>150.10</ele>
        <time>2015-12-26T08:46:10Z</time>
      </trkpt>
      <trkpt lat="41.622335770" lon="2.554806570">
        <ele>150.58</ele>
        <time>2015-12-26T08:46:18Z</time>
      </trkpt>
      <trkpt lat="41.622177010" lon="2.554598870">
        <ele>151.06</ele>
        <time>2015-12-26T08:46:25Z</time>
      </trkpt>
      <trkpt lat="41.622061340" lon="2.554371890">
        <ele>152.51</ele>
        <time>2015-12-26T08:46:32Z</time>
      </trkpt>
      <trkpt lat="41.621956480" lon="2.554152530">
        <ele>153.95</ele>
        <time>2015-12-26T08:46:39Z</time>
      </trkpt>
      <trkpt lat="41.621789850" lon="2.553900660">
        <ele>154.91</ele>
        <time>2015-12-26T08:46:47Z</time>
      </trkpt>
      <trkpt lat="41.621625310" lon="2.553652300">
        <ele>156.35</ele>
        <time>2015-12-26T08:46:55Z</time>
      </trkpt>
      <trkpt lat="41.621555580" lon="2.553514750">
        <ele>156.83</ele>
        <time>2015-12-26T08:47:00Z</time>
      </trkpt>
      <trkpt lat="41.621470670" lon="2.553292970">
        <ele>157.79</ele>
        <time>2015-12-26T08:47:06Z</time>
      </trkpt>
      <trkpt lat="41.621377880" lon="2.552985940">
        <ele>158.27</ele>
        <time>2015-12-26T08:47:12Z</time>
      </trkpt>
      <trkpt lat="41.621308140" lon="2.552519490">
        <ele>158.75</ele>
        <time>2015-12-26T08:47:21Z</time>
      </trkpt>
      <trkpt lat="41.621280570" lon="2.552068620">
        <ele>159.72</ele>
        <time>2015-12-26T08:47:30Z</time>
      </trkpt>
      <trkpt lat="41.621191550" lon="2.551829740">
        <ele>160.68</ele>
        <time>2015-12-26T08:47:36Z</time>
      </trkpt>
      <trkpt lat="41.621013100" lon="2.551602000">
        <ele>161.16</ele>
        <time>2015-12-26T08:47:43Z</time>
      </trkpt>
      <trkpt lat="41.620861470" lon="2.551288520">
        <ele>163.08</ele>
        <time>2015-12-26T08:47:52Z</time>
      </trkpt>
      <trkpt lat="41.620816710" lon="2.550990540">
        <ele>165.48</ele>
        <time>2015-12-26T08:48:00Z</time>
      </trkpt>
      <trkpt lat="41.620785030" lon="2.550683510">
        <ele>166.45</ele>
        <time>2015-12-26T08:48:08Z</time>
      </trkpt>
      <trkpt lat="41.620710850" lon="2.550337260">
        <ele>166.45</ele>
        <time>2015-12-26T08:48:15Z</time>
      </trkpt>
      <trkpt lat="41.620643880" lon="2.550072810">
        <ele>166.45</ele>
        <time>2015-12-26T08:48:20Z</time>
      </trkpt>
      <trkpt lat="41.620483030" lon="2.549646760">
        <ele>165.00</ele>
        <time>2015-12-26T08:48:29Z</time>
      </trkpt>
      <trkpt lat="41.620425700" lon="2.549528990">
        <ele>166.45</ele>
        <time>2015-12-26T08:48:32Z</time>
      </trkpt>
      <trkpt lat="41.620293430" lon="2.549291280">
        <ele>167.41</ele>
        <time>2015-12-26T08:48:39Z</time>
      </trkpt>
      <trkpt lat="41.620126210" lon="2.549048290">
        <ele>169.33</ele>
        <time>2015-12-26T08:48:48Z</time>
      </trkpt>
      <trkpt lat="41.619989420" lon="2.548892890">
        <ele>170.29</ele>
        <time>2015-12-26T08:48:54Z</time>
      </trkpt>
      <trkpt lat="41.619793280" lon="2.548685100">
        <ele>171.73</ele>
        <time>2015-12-26T08:49:02Z</time>
      </trkpt>
      <trkpt lat="41.619596890" lon="2.548467420">
        <ele>173.17</ele>
        <time>2015-12-26T08:49:11Z</time>
      </trkpt>
      <trkpt lat="41.619447030" lon="2.548256950">
        <ele>174.62</ele>
        <time>2015-12-26T08:49:19Z</time>
      </trkpt>
      <trkpt lat="41.619360520" lon="2.548100300">
        <ele>175.10</ele>
        <time>2015-12-26T08:49:24Z</time>
      </trkpt>
      <trkpt lat="41.619279300" lon="2.548107840">
        <ele>175.58</ele>
        <time>2015-12-26T08:49:29Z</time>
      </trkpt>
      <trkpt lat="41.619291040" lon="2.548182520">
        <ele>176.06</ele>
        <time>2015-12-26T08:49:32Z</time>
      </trkpt>
      <trkpt lat="41.619378210" lon="2.548359800">
        <ele>177.50</ele>
        <time>2015-12-26T08:49:40Z</time>
      </trkpt>
      <trkpt lat="41.619434290" lon="2.548484270">
        <ele>178.94</ele>
        <time>2015-12-26T08:49:46Z</time>
      </trkpt>
      <trkpt lat="41.619502180" lon="2.548597680">
        <ele>179.90</ele>
        <time>2015-12-26T08:49:53Z</time>
      </trkpt>
      <trkpt lat="41.619590440" lon="2.548727510">
        <ele>182.31</ele>
        <time>2015-12-26T08:50:00Z</time>
      </trkpt>
      <trkpt lat="41.619663780" lon="2.548839580">
        <ele>183.75</ele>
        <time>2015-12-26T08:50:06Z</time>
      </trkpt>
      <trkpt lat="41.619756740" lon="2.549024570">
        <ele>185.19</ele>
        <time>2015-12-26T08:50:15Z</time>
      </trkpt>
      <trkpt lat="41.619834100" lon="2.549175780">
        <ele>186.63</ele>
        <time>2015-12-26T08:50:23Z</time>
      </trkpt>
      <trkpt lat="41.619878780" lon="2.549294050">
        <ele>189.04</ele>
        <time>2015-12-26T08:50:29Z</time>
      </trkpt>
      <trkpt lat="41.619884560" lon="2.549312650">
        <ele>189.04</ele>
        <time>2015-12-26T08:50:30Z</time>
      </trkpt>
      <trkpt lat="41.619928480" lon="2.549461770">
        <ele>189.52</ele>
        <time>2015-12-26T08:50:36Z</time>
      </trkpt>
      <trkpt lat="41.619946000" lon="2.549683130">
        <ele>190.96</ele>
        <time>2015-12-26T08:50:45Z</time>
      </trkpt>
      <trkpt lat="41.619945750" lon="2.549917830">
        <ele>192.88</ele>
        <time>2015-12-26T08:50:55Z</time>
      </trkpt>
      <trkpt lat="41.619944240" lon="2.550085130">
        <ele>194.32</ele>
        <time>2015-12-26T08:51:02Z</time>
      </trkpt>
      <trkpt lat="41.619952540" lon="2.550225780">
        <ele>195.28</ele>
        <time>2015-12-26T08:51:08Z</time>
      </trkpt>
      <trkpt lat="41.619974080" lon="2.550365500">
        <ele>196.73</ele>
        <time>2015-12-26T08:51:15Z</time>
      </trkpt>
      <trkpt lat="41.619981960" lon="2.550408920">
        <ele>197.21</ele>
        <time>2015-12-26T08:51:17Z</time>
      </trkpt>
      <trkpt lat="41.620013890" lon="2.550571360">
        <ele>199.13</ele>
        <time>2015-12-26T08:51:25Z</time>
      </trkpt>
      <trkpt lat="41.620066030" lon="2.550729360">
        <ele>201.05</ele>
        <time>2015-12-26T08:51:33Z</time>
      </trkpt>
      <trkpt lat="41.620065280" lon="2.550856600">
        <ele>202.01</ele>
        <time>2015-12-26T08:51:39Z</time>
      </trkpt>
      <trkpt lat="41.619964520" lon="2.550962130">
        <ele>204.42</ele>
        <time>2015-12-26T08:51:47Z</time>
      </trkpt>
      <trkpt lat="41.619888420" lon="2.550996080">
        <ele>205.86</ele>
        <time>2015-12-26T08:51:53Z</time>
      </trkpt>
      <trkpt lat="41.619757240" lon="2.551071930">
        <ele>206.82</ele>
        <time>2015-12-26T08:52:01Z</time>
      </trkpt>
      <trkpt lat="41.619653220" lon="2.551187600">
        <ele>208.26</ele>
        <time>2015-12-26T08:52:10Z</time>
      </trkpt>
      <trkpt lat="41.619561690" lon="2.551319280">
        <ele>210.19</ele>
        <time>2015-12-26T08:52:19Z</time>
      </trkpt>
      <trkpt lat="41.619497070" lon="2.551447440">
        <ele>211.63</ele>
        <time>2015-12-26T08:52:27Z</time>
      </trkpt>
      <trkpt lat="41.619464540" lon="2.551532350">
        <ele>212.59</ele>
        <time>2015-12-26T08:52:32Z</time>
      </trkpt>
      <trkpt lat="41.619429510" lon="2.551699900">
        <ele>214.03</ele>
        <time>2015-12-26T08:52:41Z</time>
      </trkpt>
      <trkpt lat="41.619365130" lon="2.551860330">
        <ele>215.95</ele>
        <time>2015-12-26T08:52:50Z</time>
      </trkpt>
      <trkpt lat="41.619275950" lon="2.552017410">
        <ele>216.43</ele>
        <time>2015-12-26T08:52:58Z</time>
      </trkpt>
      <trkpt lat="41.619190620" lon="2.552158560">
        <ele>217.88</ele>
        <time>2015-12-26T08:53:06Z</time>
      </trkpt>
      <trkpt lat="41.619074370" lon="2.552348160">
        <ele>219.32</ele>
        <time>2015-12-26T08:53:16Z</time>
      </trkpt>
      <trkpt lat="41.619008400" lon="2.552457040">
        <ele>220.28</ele>
        <time>2015-12-26T08:53:22Z</time>
      </trkpt>
      <trkpt lat="41.618995660" lon="2.552627610">
        <ele>222.20</ele>
        <time>2015-12-26T08:53:31Z</time>
      </trkpt>
      <trkpt lat="41.619025250" lon="2.552750910">
        <ele>223.16</ele>
        <time>2015-12-26T08:53:37Z</time>
      </trkpt>
      <trkpt lat="41.619050480" lon="2.552903210">
        <ele>224.12</ele>
        <time>2015-12-26T08:53:43Z</time>
      </trkpt>
      <trkpt lat="41.618946540" lon="2.552989790">
        <ele>225.09</ele>
        <time>2015-12-26T08:53:51Z</time>
      </trkpt>
      <trkpt lat="41.618779910" lon="2.552975130">
        <ele>226.05</ele>
        <time>2015-12-26T08:53:59Z</time>
      </trkpt>
      <trkpt lat="41.618646970" lon="2.552938920">
        <ele>226.05</ele>
        <time>2015-12-26T08:54:03Z</time>
      </trkpt>
      <trkpt lat="41.618565840" lon="2.552899940">
        <ele>226.05</ele>
        <time>2015-12-26T08:54:05Z</time>
      </trkpt>
      <trkpt lat="41.618281610" lon="2.552855350">
        <ele>224.61</ele>
        <time>2015-12-26T08:54:12Z</time>
      </trkpt>
      <trkpt lat="41.618055800" lon="2.552809420">
        <ele>226.05</ele>
        <time>2015-12-26T08:54:21Z</time>
      </trkpt>
      <trkpt lat="41.617896630" lon="2.552759290">
        <ele>227.97</ele>
        <time>2015-12-26T08:54:30Z</time>
      </trkpt>
      <trkpt lat="41.617881620" lon="2.552751920">
        <ele>228.45</ele>
        <time>2015-12-26T08:54:31Z</time>
      </trkpt>
      <trkpt lat="41.617681380" lon="2.552771870">
        <ele>230.37</ele>
        <time>2015-12-26T08:54:41Z</time>
      </trkpt>
      <trkpt lat="41.617635110" lon="2.552898850">
        <ele>230.37</ele>
        <time>2015-12-26T08:54:46Z</time>
      </trkpt>
      <trkpt lat="41.617640640" lon="2.552961970">
        <ele>230.85</ele>
        <time>2015-12-26T08:54:49Z</time>
      </trkpt>
      <trkpt lat="41.617666290" lon="2.553107230">
        <ele>231.81</ele>
        <time>2015-12-26T08:54:56Z</time>
      </trkpt>
      <trkpt lat="41.617684310" lon="2.553255170">
        <ele>233.26</ele>
        <time>2015-12-26T08:55:03Z</time>
      </trkpt>
      <trkpt lat="41.617653210" lon="2.553332530">
        <ele>233.74</ele>
        <time>2015-12-26T08:55:07Z</time>
      </trkpt>
      <trkpt lat="41.617570650" lon="2.553330100">
        <ele>235.18</ele>
        <time>2015-12-26T08:55:13Z</time>
      </trkpt>
      <trkpt lat="41.617462190" lon="2.553226750">
        <ele>236.62</ele>
        <time>2015-12-26T08:55:21Z</time>
      </trkpt>
      <trkpt lat="41.617385580" lon="2.553121140">
        <ele>238.54</ele>
        <time>2015-12-26T08:55:28Z</time>
      </trkpt>
      <trkpt lat="41.617307130" lon="2.553045280">
        <ele>239.51</ele>
        <time>2015-12-26T08:55:34Z</time>
      </trkpt>
      <trkpt lat="41.617258850" lon="2.552987700">
        <ele>240.47</ele>
        <time>2015-12-26T08:55:38Z</time>
      </trkpt>
      <trkpt lat="41.617169580" lon="2.552878230">
        <ele>244.31</ele>
        <time>2015-12-26T08:55:46Z</time>
      </trkpt>
      <trkpt lat="41.617052060" lon="2.552852080">
        <ele>245.27</ele>
        <time>2015-12-26T08:55:53Z</time>
      </trkpt>
      <trkpt lat="41.616959950" lon="2.552982750">
        <ele>245.27</ele>
        <time>2015-12-26T08:56:01Z</time>
      </trkpt>
      <trkpt lat="41.616913180" lon="2.553117030">
        <ele>245.27</ele>
        <time>2015-12-26T08:56:06Z</time>
      </trkpt>
      <trkpt lat="41.616703460" lon="2.553331440">
        <ele>243.35</ele>
        <time>2015-12-26T08:56:11Z</time>
      </trkpt>
      <trkpt lat="41.616582680" lon="2.553352650">
        <ele>242.39</ele>
        <time>2015-12-26T08:56:13Z</time>
      </trkpt>
      <trkpt lat="41.616458460" lon="2.553353820">
        <ele>241.91</ele>
        <time>2015-12-26T08:56:15Z</time>
      </trkpt>
      <trkpt lat="41.616388220" lon="2.553515340">
        <ele>241.43</ele>
        <time>2015-12-26T08:56:19Z</time>
      </trkpt>
      <trkpt lat="41.616397520" lon="2.553557750">
        <ele>241.43</ele>
        <time>2015-12-26T08:56:20Z</time>
      </trkpt>
      <trkpt lat="41.616417890" lon="2.553641240">
        <ele>241.43</ele>
        <time>2015-12-26T08:56:22Z</time>
      </trkpt>
      <trkpt lat="41.616466760" lon="2.553973080">
        <ele>239.99</ele>
        <time>2015-12-26T08:56:27Z</time>
      </trkpt>
      <trkpt lat="41.616463320" lon="2.554054800">
        <ele>239.99</ele>
        <time>2015-12-26T08:56:28Z</time>
      </trkpt>
      <trkpt lat="41.616423170" lon="2.554602560">
        <ele>239.99</ele>
        <time>2015-12-26T08:56:38Z</time>
      </trkpt>
      <trkpt lat="41.616281600" lon="2.554771620">
        <ele>241.43</ele>
        <time>2015-12-26T08:56:44Z</time>
      </trkpt>
      <trkpt lat="41.616255280" lon="2.554796510">
        <ele>241.43</ele>
        <time>2015-12-26T08:56:45Z</time>
      </trkpt>
      <trkpt lat="41.616164840" lon="2.554919640">
        <ele>241.43</ele>
        <time>2015-12-26T08:56:48Z</time>
      </trkpt>
      <trkpt lat="41.616050090" lon="2.555087870">
        <ele>239.99</ele>
        <time>2015-12-26T08:56:51Z</time>
      </trkpt>
      <trkpt lat="41.615883460" lon="2.555340080">
        <ele>238.54</ele>
        <time>2015-12-26T08:56:55Z</time>
      </trkpt>
      <trkpt lat="41.615686650" lon="2.555442590">
        <ele>238.06</ele>
        <time>2015-12-26T08:56:59Z</time>
      </trkpt>
      <trkpt lat="41.615558580" lon="2.555503440">
        <ele>238.06</ele>
        <time>2015-12-26T08:57:05Z</time>
      </trkpt>
      <trkpt lat="41.615548440" lon="2.555781810">
        <ele>238.06</ele>
        <time>2015-12-26T08:57:12Z</time>
      </trkpt>
      <trkpt lat="41.615566790" lon="2.555906950">
        <ele>239.51</ele>
        <time>2015-12-26T08:57:16Z</time>
      </trkpt>
      <trkpt lat="41.615537710" lon="2.556058490">
        <ele>241.43</ele>
        <time>2015-12-26T08:57:23Z</time>
      </trkpt>
      <trkpt lat="41.615463530" lon="2.556171480">
        <ele>243.83</ele>
        <time>2015-12-26T08:57:30Z</time>
      </trkpt>
      <trkpt lat="41.615363110" lon="2.556278770">
        <ele>246.23</ele>
        <time>2015-12-26T08:57:38Z</time>
      </trkpt>
      <trkpt lat="41.615286000" lon="2.556406340">
        <ele>248.16</ele>
        <time>2015-12-26T08:57:46Z</time>
      </trkpt>
      <trkpt lat="41.615243590" lon="2.556475830">
        <ele>249.12</ele>
        <time>2015-12-26T08:57:50Z</time>
      </trkpt>
      <trkpt lat="41.615183570" lon="2.556653780">
        <ele>250.56</ele>
        <time>2015-12-26T08:57:59Z</time>
      </trkpt>
      <trkpt lat="41.615120040" lon="2.556777410">
        <ele>251.52</ele>
        <time>2015-12-26T08:58:06Z</time>
      </trkpt>
      <trkpt lat="41.615042670" lon="2.556929960">
        <ele>252.96</ele>
        <time>2015-12-26T08:58:14Z</time>
      </trkpt>
      <trkpt lat="41.614933870" lon="2.557084270">
        <ele>255.37</ele>
        <time>2015-12-26T08:58:24Z</time>
      </trkpt>
      <trkpt lat="41.614850140" lon="2.557185020">
        <ele>257.77</ele>
        <time>2015-12-26T08:58:32Z</time>
      </trkpt>
      <trkpt lat="41.614744690" lon="2.557278730">
        <ele>259.69</ele>
        <time>2015-12-26T08:58:41Z</time>
      </trkpt>
      <trkpt lat="41.614641510" lon="2.557357100">
        <ele>261.14</ele>
        <time>2015-12-26T08:58:49Z</time>
      </trkpt>
      <trkpt lat="41.614626840" lon="2.557371180">
        <ele>261.62</ele>
        <time>2015-12-26T08:58:50Z</time>
      </trkpt>
      <trkpt lat="41.614490720" lon="2.557442930">
        <ele>263.54</ele>
        <time>2015-12-26T08:59:00Z</time>
      </trkpt>
      <trkpt lat="41.614424920" lon="2.557493470">
        <ele>264.98</ele>
        <time>2015-12-26T08:59:06Z</time>
      </trkpt>
      <trkpt lat="41.614267350" lon="2.557520130">
        <ele>265.94</ele>
        <time>2015-12-26T08:59:16Z</time>
      </trkpt>
      <trkpt lat="41.614174310" lon="2.557600340">
        <ele>267.86</ele>
        <time>2015-12-26T08:59:24Z</time>
      </trkpt>
      <trkpt lat="41.614161310" lon="2.557611070">
        <ele>267.38</ele>
        <time>2015-12-26T08:59:25Z</time>
      </trkpt>
      <trkpt lat="41.614016730" lon="2.557678630">
        <ele>268.35</ele>
        <time>2015-12-26T08:59:34Z</time>
      </trkpt>
      <trkpt lat="41.613904240" lon="2.557725740">
        <ele>269.31</ele>
        <time>2015-12-26T08:59:41Z</time>
      </trkpt>
      <trkpt lat="41.613742130" lon="2.557856080">
        <ele>270.75</ele>
        <time>2015-12-26T08:59:53Z</time>
      </trkpt>
      <trkpt lat="41.613657060" lon="2.557964870">
        <ele>272.19</ele>
        <time>2015-12-26T09:00:01Z</time>
      </trkpt>
      <trkpt lat="41.613637280" lon="2.557983060">
        <ele>273.15</ele>
        <time>2015-12-26T09:00:03Z</time>
      </trkpt>
      <trkpt lat="41.613505090" lon="2.558027230">
        <ele>275.56</ele>
        <time>2015-12-26T09:00:13Z</time>
      </trkpt>
      <trkpt lat="41.613473490" lon="2.558016090">
        <ele>275.56</ele>
        <time>2015-12-26T09:00:15Z</time>
      </trkpt>
      <trkpt lat="41.613394620" lon="2.557915760">
        <ele>277.00</ele>
        <time>2015-12-26T09:00:23Z</time>
      </trkpt>
      <trkpt lat="41.613308540" lon="2.557818780">
        <ele>277.96</ele>
        <time>2015-12-26T09:00:31Z</time>
      </trkpt>
      <trkpt lat="41.613207370" lon="2.557641580">
        <ele>277.96</ele>
        <time>2015-12-26T09:00:38Z</time>
      </trkpt>
      <trkpt lat="41.613078540" lon="2.557626910">
        <ele>278.92</ele>
        <time>2015-12-26T09:00:44Z</time>
      </trkpt>
      <trkpt lat="41.612934540" lon="2.557717190">
        <ele>280.36</ele>
        <time>2015-12-26T09:00:51Z</time>
      </trkpt>
      <trkpt lat="41.612743680" lon="2.557745020">
        <ele>281.32</ele>
        <time>2015-12-26T09:01:00Z</time>
      </trkpt>
      <trkpt lat="41.612538240" lon="2.557776620">
        <ele>282.28</ele>
        <time>2015-12-26T09:01:10Z</time>
      </trkpt>
      <trkpt lat="41.612396840" lon="2.557809720">
        <ele>283.73</ele>
        <time>2015-12-26T09:01:18Z</time>
      </trkpt>
      <trkpt lat="41.612237420" lon="2.557824640">
        <ele>285.17</ele>
        <time>2015-12-26T09:01:27Z</time>
      </trkpt>
      <trkpt lat="41.612054770" lon="2.557853310">
        <ele>287.57</ele>
        <time>2015-12-26T09:01:38Z</time>
      </trkpt>
      <trkpt lat="41.611928120" lon="2.557839310">
        <ele>289.97</ele>
        <time>2015-12-26T09:01:46Z</time>
      </trkpt>
      <trkpt lat="41.611868110" lon="2.557772680">
        <ele>290.94</ele>
        <time>2015-12-26T09:01:51Z</time>
      </trkpt>
      <trkpt lat="41.611829470" lon="2.557561540">
        <ele>291.90</ele>
        <time>2015-12-26T09:02:00Z</time>
      </trkpt>
      <trkpt lat="41.611786390" lon="2.557439830">
        <ele>293.82</ele>
        <time>2015-12-26T09:02:07Z</time>
      </trkpt>
      <trkpt lat="41.611707180" lon="2.557208660">
        <ele>295.74</ele>
        <time>2015-12-26T09:02:18Z</time>
      </trkpt>
      <trkpt lat="41.611695860" lon="2.557162980">
        <ele>295.74</ele>
        <time>2015-12-26T09:02:20Z</time>
      </trkpt>
      <trkpt lat="41.611680100" lon="2.557004060">
        <ele>296.70</ele>
        <time>2015-12-26T09:02:27Z</time>
      </trkpt>
      <trkpt lat="41.611629900" lon="2.556856870">
        <ele>298.15</ele>
        <time>2015-12-26T09:02:36Z</time>
      </trkpt>
      <trkpt lat="41.611593020" lon="2.556753190">
        <ele>298.63</ele>
        <time>2015-12-26T09:02:44Z</time>
      </trkpt>
      <trkpt lat="41.611553870" lon="2.556565600">
        <ele>298.63</ele>
        <time>2015-12-26T09:02:50Z</time>
      </trkpt>
      <trkpt lat="41.611514730" lon="2.556318420">
        <ele>296.70</ele>
        <time>2015-12-26T09:02:54Z</time>
      </trkpt>
      <trkpt lat="41.611479610" lon="2.556154630">
        <ele>295.74</ele>
        <time>2015-12-26T09:02:56Z</time>
      </trkpt>
      <trkpt lat="41.611502410" lon="2.555525320">
        <ele>290.94</ele>
        <time>2015-12-26T09:03:02Z</time>
      </trkpt>
      <trkpt lat="41.611510450" lon="2.555431690">
        <ele>290.46</ele>
        <time>2015-12-26T09:03:03Z</time>
      </trkpt>
      <trkpt lat="41.611467040" lon="2.555185850">
        <ele>288.05</ele>
        <time>2015-12-26T09:03:06Z</time>
      </trkpt>
      <trkpt lat="41.611458900" lon="2.554830210">
        <ele>284.21</ele>
        <time>2015-12-26T09:03:11Z</time>
      </trkpt>
      <trkpt lat="41.611535850" lon="2.554412870">
        <ele>283.73</ele>
        <time>2015-12-26T09:03:18Z</time>
      </trkpt>
      <trkpt lat="41.611408360" lon="2.554055390">
        <ele>282.28</ele>
        <time>2015-12-26T09:03:24Z</time>
      </trkpt>
      <trkpt lat="41.611241310" lon="2.553910130">
        <ele>281.32</ele>
        <time>2015-12-26T09:03:28Z</time>
      </trkpt>
      <trkpt lat="41.611133270" lon="2.553867040">
        <ele>281.32</ele>
        <time>2015-12-26T09:03:30Z</time>
      </trkpt>
      <trkpt lat="41.610699760" lon="2.553827730">
        <ele>279.40</ele>
        <time>2015-12-26T09:03:37Z</time>
      </trkpt>
      <trkpt lat="41.610633790" lon="2.553816920">
        <ele>278.92</ele>
        <time>2015-12-26T09:03:38Z</time>
      </trkpt>
      <trkpt lat="41.610369170" lon="2.553773330">
        <ele>277.96</ele>
        <time>2015-12-26T09:03:42Z</time>
      </trkpt>
      <trkpt lat="41.610004060" lon="2.553803930">
        <ele>277.96</ele>
        <time>2015-12-26T09:03:49Z</time>
      </trkpt>
      <trkpt lat="41.609831470" lon="2.553778450">
        <ele>277.96</ele>
        <time>2015-12-26T09:03:53Z</time>
      </trkpt>
      <trkpt lat="41.609546740" lon="2.553891940">
        <ele>278.92</ele>
        <time>2015-12-26T09:04:00Z</time>
      </trkpt>
      <trkpt lat="41.609282960" lon="2.554107690">
        <ele>279.88</ele>
        <time>2015-12-26T09:04:07Z</time>
      </trkpt>
      <trkpt lat="41.609113310" lon="2.554171890">
        <ele>277.00</ele>
        <time>2015-12-26T09:04:11Z</time>
      </trkpt>
      <trkpt lat="41.608946510" lon="2.554154710">
        <ele>274.11</ele>
        <time>2015-12-26T09:04:18Z</time>
      </trkpt>
      <trkpt lat="41.608876360" lon="2.554135770">
        <ele>272.19</ele>
        <time>2015-12-26T09:04:21Z</time>
      </trkpt>
      <trkpt lat="41.608712830" lon="2.554027050">
        <ele>268.83</ele>
        <time>2015-12-26T09:04:25Z</time>
      </trkpt>
      <trkpt lat="41.608528930" lon="2.553836370">
        <ele>265.46</ele>
        <time>2015-12-26T09:04:29Z</time>
      </trkpt>
      <trkpt lat="41.608431280" lon="2.553735870">
        <ele>264.98</ele>
        <time>2015-12-26T09:04:31Z</time>
      </trkpt>
      <trkpt lat="41.608311250" lon="2.553634110">
        <ele>263.54</ele>
        <time>2015-12-26T09:04:33Z</time>
      </trkpt>
      <trkpt lat="41.608125920" lon="2.553490450">
        <ele>262.10</ele>
        <time>2015-12-26T09:04:36Z</time>
      </trkpt>
      <trkpt lat="41.607645140" lon="2.553194560">
        <ele>260.17</ele>
        <time>2015-12-26T09:04:43Z</time>
      </trkpt>
      <trkpt lat="41.607547490" lon="2.553115690">
        <ele>260.17</ele>
        <time>2015-12-26T09:04:45Z</time>
      </trkpt>
      <trkpt lat="41.607382870" lon="2.552982590">
        <ele>261.62</ele>
        <time>2015-12-26T09:04:49Z</time>
      </trkpt>
      <trkpt lat="41.607228060" lon="2.552951150">
        <ele>262.58</ele>
        <time>2015-12-26T09:04:53Z</time>
      </trkpt>
      <trkpt lat="41.606962430" lon="2.552951910">
        <ele>264.50</ele>
        <time>2015-12-26T09:05:00Z</time>
      </trkpt>
      <trkpt lat="41.606719690" lon="2.553042520">
        <ele>267.38</ele>
        <time>2015-12-26T09:05:08Z</time>
      </trkpt>
      <trkpt lat="41.606664460" lon="2.553097080">
        <ele>267.38</ele>
        <time>2015-12-26T09:05:10Z</time>
      </trkpt>
      <trkpt lat="41.606561530" lon="2.553229350">
        <ele>267.38</ele>
        <time>2015-12-26T09:05:13Z</time>
      </trkpt>
      <trkpt lat="41.606321050" lon="2.553399750">
        <ele>264.50</ele>
        <time>2015-12-26T09:05:17Z</time>
      </trkpt>
      <trkpt lat="41.606007060" lon="2.553610890">
        <ele>261.14</ele>
        <time>2015-12-26T09:05:22Z</time>
      </trkpt>
      <trkpt lat="41.605669440" lon="2.553712570">
        <ele>258.25</ele>
        <time>2015-12-26T09:05:27Z</time>
      </trkpt>
      <trkpt lat="41.605572710" lon="2.553806530">
        <ele>256.33</ele>
        <time>2015-12-26T09:05:30Z</time>
      </trkpt>
      <trkpt lat="41.605439780" lon="2.553934850">
        <ele>254.89</ele>
        <time>2015-12-26T09:05:33Z</time>
      </trkpt>
      <trkpt lat="41.605305580" lon="2.554085060">
        <ele>254.41</ele>
        <time>2015-12-26T09:05:36Z</time>
      </trkpt>
      <trkpt lat="41.605200390" lon="2.554231070">
        <ele>254.41</ele>
        <time>2015-12-26T09:05:39Z</time>
      </trkpt>
      <trkpt lat="41.605122520" lon="2.554379510">
        <ele>254.41</ele>
        <time>2015-12-26T09:05:42Z</time>
      </trkpt>
      <trkpt lat="41.605064690" lon="2.554522170">
        <ele>255.85</ele>
        <time>2015-12-26T09:05:45Z</time>
      </trkpt>
      <trkpt lat="41.604983630" lon="2.554711690">
        <ele>257.29</ele>
        <time>2015-12-26T09:05:50Z</time>
      </trkpt>
      <trkpt lat="41.604893020" lon="2.554967090">
        <ele>255.85</ele>
        <time>2015-12-26T09:05:55Z</time>
      </trkpt>
      <trkpt lat="41.604850110" lon="2.554989800">
        <ele>254.89</ele>
        <time>2015-12-26T09:05:56Z</time>
      </trkpt>
      <trkpt lat="41.604692950" lon="2.555040260">
        <ele>252.48</ele>
        <time>2015-12-26T09:05:59Z</time>
      </trkpt>
      <trkpt lat="41.604529000" lon="2.554933390">
        <ele>249.60</ele>
        <time>2015-12-26T09:06:03Z</time>
      </trkpt>
      <trkpt lat="41.604401170" lon="2.554805900">
        <ele>247.20</ele>
        <time>2015-12-26T09:06:07Z</time>
      </trkpt>
      <trkpt lat="41.604276120" lon="2.554793080">
        <ele>245.75</ele>
        <time>2015-12-26T09:06:09Z</time>
      </trkpt>
      <trkpt lat="41.604146620" lon="2.554802800">
        <ele>244.79</ele>
        <time>2015-12-26T09:06:11Z</time>
      </trkpt>
      <trkpt lat="41.604032710" lon="2.554822580">
        <ele>242.87</ele>
        <time>2015-12-26T09:06:13Z</time>
      </trkpt>
      <trkpt lat="41.603885860" lon="2.554909500">
        <ele>241.91</ele>
        <time>2015-12-26T09:06:16Z</time>
      </trkpt>
      <trkpt lat="41.603691900" lon="2.555031370">
        <ele>241.43</ele>
        <time>2015-12-26T09:06:20Z</time>
      </trkpt>
      <trkpt lat="41.603469270" lon="2.555067420">
        <ele>239.51</ele>
        <time>2015-12-26T09:06:25Z</time>
      </trkpt>
      <trkpt lat="41.603229130" lon="2.555153160">
        <ele>237.58</ele>
        <time>2015-12-26T09:06:30Z</time>
      </trkpt>
      <trkpt lat="41.603036010" lon="2.555282080">
        <ele>235.66</ele>
        <time>2015-12-26T09:06:34Z</time>
      </trkpt>
      <trkpt lat="41.602934760" lon="2.555338400">
        <ele>235.66</ele>
        <time>2015-12-26T09:06:36Z</time>
      </trkpt>
      <trkpt lat="41.602737200" lon="2.555497910">
        <ele>235.18</ele>
        <time>2015-12-26T09:06:41Z</time>
      </trkpt>
      <trkpt lat="41.602562520" lon="2.555412750">
        <ele>234.22</ele>
        <time>2015-12-26T09:06:45Z</time>
      </trkpt>
      <trkpt lat="41.602426480" lon="2.555314680">
        <ele>232.78</ele>
        <time>2015-12-26T09:06:48Z</time>
      </trkpt>
      <trkpt lat="41.602265880" lon="2.555255420">
        <ele>230.85</ele>
        <time>2015-12-26T09:06:53Z</time>
      </trkpt>
      <trkpt lat="41.602253400" lon="2.555151650">
        <ele>230.85</ele>
        <time>2015-12-26T09:06:56Z</time>
      </trkpt>
      <trkpt lat="41.602274180" lon="2.554911010">
        <ele>232.30</ele>
        <time>2015-12-26T09:07:02Z</time>
      </trkpt>
      <trkpt lat="41.602298070" lon="2.554541200">
        <ele>232.78</ele>
        <time>2015-12-26T09:07:10Z</time>
      </trkpt>
      <trkpt lat="41.602216430" lon="2.554110540">
        <ele>233.26</ele>
        <time>2015-12-26T09:07:19Z</time>
      </trkpt>
      <trkpt lat="41.602198580" lon="2.554014400">
        <ele>233.26</ele>
        <time>2015-12-26T09:07:21Z</time>
      </trkpt>
      <trkpt lat="41.602243340" lon="2.553879280">
        <ele>233.26</ele>
        <time>2015-12-26T09:07:25Z</time>
      </trkpt>
      <trkpt lat="41.602228920" lon="2.553822370">
        <ele>233.26</ele>
        <time>2015-12-26T09:07:29Z</time>
      </trkpt>
      <trkpt lat="41.602200590" lon="2.553784480">
        <ele>233.26</ele>
        <time>2015-12-26T09:07:36Z</time>
      </trkpt>
      <trkpt lat="41.602189690" lon="2.553782140">
        <ele>233.26</ele>
        <time>2015-12-26T09:07:40Z</time>
      </trkpt>
      <trkpt lat="41.602111990" lon="2.553793120">
        <ele>232.30</ele>
        <time>2015-12-26T09:07:44Z</time>
      </trkpt>
      <trkpt lat="41.601881570" lon="2.553820440">
        <ele>229.89</ele>
        <time>2015-12-26T09:07:51Z</time>
      </trkpt>
      <trkpt lat="41.601841010" lon="2.553826640">
        <ele>228.45</ele>
        <time>2015-12-26T09:07:52Z</time>
      </trkpt>
      <trkpt lat="41.601617540" lon="2.553807280">
        <ele>223.64</ele>
        <time>2015-12-26T09:07:57Z</time>
      </trkpt>
      <trkpt lat="41.601576890" lon="2.553793280">
        <ele>222.68</ele>
        <time>2015-12-26T09:07:58Z</time>
      </trkpt>
      <trkpt lat="41.601561890" lon="2.553633360">
        <ele>221.24</ele>
        <time>2015-12-26T09:08:02Z</time>
      </trkpt>
      <trkpt lat="41.601622830" lon="2.553303280">
        <ele>219.80</ele>
        <time>2015-12-26T09:08:07Z</time>
      </trkpt>
      <trkpt lat="41.601639920" lon="2.553182910">
        <ele>218.84</ele>
        <time>2015-12-26T09:08:09Z</time>
      </trkpt>
      <trkpt lat="41.601733550" lon="2.552965070">
        <ele>215.95</ele>
        <time>2015-12-26T09:08:13Z</time>
      </trkpt>
      <trkpt lat="41.601913930" lon="2.552590480">
        <ele>211.15</ele>
        <time>2015-12-26T09:08:19Z</time>
      </trkpt>
      <trkpt lat="41.602021550" lon="2.552385710">
        <ele>209.22</ele>
        <time>2015-12-26T09:08:22Z</time>
      </trkpt>
      <trkpt lat="41.602287260" lon="2.552201310">
        <ele>204.42</ele>
        <time>2015-12-26T09:08:27Z</time>
      </trkpt>
      <trkpt lat="41.602333610" lon="2.552197620">
        <ele>203.46</ele>
        <time>2015-12-26T09:08:28Z</time>
      </trkpt>
      <trkpt lat="41.602461770" lon="2.552194600">
        <ele>200.57</ele>
        <time>2015-12-26T09:08:31Z</time>
      </trkpt>
      <trkpt lat="41.602627560" lon="2.551965950">
        <ele>197.69</ele>
        <time>2015-12-26T09:08:36Z</time>
      </trkpt>
      <trkpt lat="41.602746590" lon="2.551864100">
        <ele>195.77</ele>
        <time>2015-12-26T09:08:39Z</time>
      </trkpt>
      <trkpt lat="41.602886650" lon="2.551985980">
        <ele>192.88</ele>
        <time>2015-12-26T09:08:43Z</time>
      </trkpt>
      <trkpt lat="41.603020590" lon="2.552014980">
        <ele>192.40</ele>
        <time>2015-12-26T09:08:47Z</time>
      </trkpt>
      <trkpt lat="41.603159310" lon="2.551930820">
        <ele>191.44</ele>
        <time>2015-12-26T09:08:50Z</time>
      </trkpt>
      <trkpt lat="41.603314040" lon="2.551827220">
        <ele>190.96</ele>
        <time>2015-12-26T09:08:53Z</time>
      </trkpt>
      <trkpt lat="41.603488720" lon="2.551519020">
        <ele>190.00</ele>
        <time>2015-12-26T09:08:59Z</time>
      </trkpt>
      <trkpt lat="41.603461730" lon="2.551352890">
        <ele>189.04</ele>
        <time>2015-12-26T09:09:02Z</time>
      </trkpt>
      <trkpt lat="41.603355110" lon="2.551089200">
        <ele>187.59</ele>
        <time>2015-12-26T09:09:06Z</time>
      </trkpt>
      <trkpt lat="41.603276160" lon="2.550719890">
        <ele>186.15</ele>
        <time>2015-12-26T09:09:10Z</time>
      </trkpt>
      <trkpt lat="41.603205160" lon="2.550431970">
        <ele>184.71</ele>
        <time>2015-12-26T09:09:13Z</time>
      </trkpt>
      <trkpt lat="41.603177750" lon="2.550236590">
        <ele>183.27</ele>
        <time>2015-12-26T09:09:15Z</time>
      </trkpt>
      <trkpt lat="41.603091590" lon="2.549929140">
        <ele>182.31</ele>
        <time>2015-12-26T09:09:18Z</time>
      </trkpt>
      <trkpt lat="41.603041130" lon="2.549710210">
        <ele>181.83</ele>
        <time>2015-12-26T09:09:20Z</time>
      </trkpt>
      <trkpt lat="41.603029810" lon="2.549520020">
        <ele>179.90</ele>
        <time>2015-12-26T09:09:22Z</time>
      </trkpt>
      <trkpt lat="41.602913300" lon="2.549006380">
        <ele>177.98</ele>
        <time>2015-12-26T09:09:28Z</time>
      </trkpt>
      <trkpt lat="41.602883970" lon="2.548568760">
        <ele>176.06</ele>
        <time>2015-12-26T09:09:33Z</time>
      </trkpt>
      <trkpt lat="41.602827300" lon="2.548190990">
        <ele>172.21</ele>
        <time>2015-12-26T09:09:38Z</time>
      </trkpt>
      <trkpt lat="41.602939790" lon="2.548146310">
        <ele>171.73</ele>
        <time>2015-12-26T09:09:41Z</time>
      </trkpt>
      <trkpt lat="41.602982790" lon="2.548170370">
        <ele>171.25</ele>
        <time>2015-12-26T09:09:42Z</time>
      </trkpt>
      <trkpt lat="41.603073820" lon="2.548227620">
        <ele>170.77</ele>
        <time>2015-12-26T09:09:44Z</time>
      </trkpt>
      <trkpt lat="41.603266770" lon="2.548322160">
        <ele>169.81</ele>
        <time>2015-12-26T09:09:48Z</time>
      </trkpt>
      <trkpt lat="41.603308840" lon="2.548197610">
        <ele>167.89</ele>
        <time>2015-12-26T09:09:52Z</time>
      </trkpt>
      <trkpt lat="41.603168870" lon="2.548128120">
        <ele>167.41</ele>
        <time>2015-12-26T09:09:55Z</time>
      </trkpt>
      <trkpt lat="41.602637710" lon="2.547718500">
        <ele>164.52</ele>
        <time>2015-12-26T09:10:04Z</time>
      </trkpt>
      <trkpt lat="41.602320280" lon="2.547363270">
        <ele>162.60</ele>
        <time>2015-12-26T09:10:10Z</time>
      </trkpt>
      <trkpt lat="41.602161780" lon="2.547159680">
        <ele>159.72</ele>
        <time>2015-12-26T09:10:13Z</time>
      </trkpt>
      <trkpt lat="41.601970000" lon="2.546961530">
        <ele>156.83</ele>
        <time>2015-12-26T09:10:18Z</time>
      </trkpt>
      <trkpt lat="41.601785180" lon="2.547025820">
        <ele>155.39</ele>
        <time>2015-12-26T09:10:21Z</time>
      </trkpt>
      <trkpt lat="41.601634390" lon="2.547044260">
        <ele>153.95</ele>
        <time>2015-12-26T09:10:23Z</time>
      </trkpt>
      <trkpt lat="41.601265840" lon="2.547020790">
        <ele>151.54</ele>
        <time>2015-12-26T09:10:28Z</time>
      </trkpt>
      <trkpt lat="41.600905080" lon="2.546866810">
        <ele>148.18</ele>
        <time>2015-12-26T09:10:33Z</time>
      </trkpt>
      <trkpt lat="41.600578860" lon="2.546781650">
        <ele>145.78</ele>
        <time>2015-12-26T09:10:37Z</time>
      </trkpt>
      <trkpt lat="41.600303930" lon="2.546572110">
        <ele>143.37</ele>
        <time>2015-12-26T09:10:41Z</time>
      </trkpt>
      <trkpt lat="41.600092790" lon="2.546292910">
        <ele>140.49</ele>
        <time>2015-12-26T09:10:45Z</time>
      </trkpt>
      <trkpt lat="41.600110560" lon="2.546164580">
        <ele>138.57</ele>
        <time>2015-12-26T09:10:48Z</time>
      </trkpt>
      <trkpt lat="41.600248610" lon="2.546258540">
        <ele>137.61</ele>
        <time>2015-12-26T09:10:51Z</time>
      </trkpt>
      <trkpt lat="41.600308290" lon="2.546309500">
        <ele>137.61</ele>
        <time>2015-12-26T09:10:52Z</time>
      </trkpt>
      <trkpt lat="41.600509710" lon="2.546493900">
        <ele>134.72</ele>
        <time>2015-12-26T09:10:56Z</time>
      </trkpt>
      <trkpt lat="41.600615990" lon="2.546496250">
        <ele>134.24</ele>
        <time>2015-12-26T09:10:58Z</time>
      </trkpt>
      <trkpt lat="41.600846490" lon="2.546368930">
        <ele>130.40</ele>
        <time>2015-12-26T09:11:02Z</time>
      </trkpt>
      <trkpt lat="41.601102640" lon="2.546135910">
        <ele>126.55</ele>
        <time>2015-12-26T09:11:06Z</time>
      </trkpt>
      <trkpt lat="41.601162910" lon="2.546094920">
        <ele>125.59</ele>
        <time>2015-12-26T09:11:07Z</time>
      </trkpt>
      <trkpt lat="41.601562220" lon="2.545963920">
        <ele>121.74</ele>
        <time>2015-12-26T09:11:12Z</time>
      </trkpt>
      <trkpt lat="41.601885090" lon="2.545891830">
        <ele>118.38</ele>
        <time>2015-12-26T09:11:16Z</time>
      </trkpt>
      <trkpt lat="41.602007050" lon="2.545879760">
        <ele>116.94</ele>
        <time>2015-12-26T09:11:18Z</time>
      </trkpt>
      <trkpt lat="41.602101930" lon="2.545737100">
        <ele>115.01</ele>
        <time>2015-12-26T09:11:22Z</time>
      </trkpt>
      <trkpt lat="41.601983160" lon="2.545490090">
        <ele>113.09</ele>
        <time>2015-12-26T09:11:26Z</time>
      </trkpt>
      <trkpt lat="41.601586700" lon="2.544931430">
        <ele>109.25</ele>
        <time>2015-12-26T09:11:33Z</time>
      </trkpt>
      <trkpt lat="41.601359720" lon="2.544603370">
        <ele>105.88</ele>
        <time>2015-12-26T09:11:37Z</time>
      </trkpt>
      <trkpt lat="41.601194510" lon="2.544334310">
        <ele>102.52</ele>
        <time>2015-12-26T09:11:41Z</time>
      </trkpt>
      <trkpt lat="41.601145890" lon="2.544242860">
        <ele>101.56</ele>
        <time>2015-12-26T09:11:43Z</time>
      </trkpt>
      <trkpt lat="41.601224100" lon="2.544051750">
        <ele>101.56</ele>
        <time>2015-12-26T09:11:49Z</time>
      </trkpt>
      <trkpt lat="41.601258300" lon="2.544006150">
        <ele>103.00</ele>
        <time>2015-12-26T09:11:51Z</time>
      </trkpt>
      <trkpt lat="41.601401790" lon="2.543730640">
        <ele>103.48</ele>
        <time>2015-12-26T09:11:58Z</time>
      </trkpt>
      <trkpt lat="41.601600110" lon="2.543533920">
        <ele>102.52</ele>
        <time>2015-12-26T09:12:03Z</time>
      </trkpt>
      <trkpt lat="41.601713270" lon="2.543458230">
        <ele>101.56</ele>
        <time>2015-12-26T09:12:05Z</time>
      </trkpt>
      <trkpt lat="41.601831870" lon="2.543364440">
        <ele>100.60</ele>
        <time>2015-12-26T09:12:07Z</time>
      </trkpt>
      <trkpt lat="41.602221130" lon="2.542920610">
        <ele>98.19</ele>
        <time>2015-12-26T09:12:14Z</time>
      </trkpt>
      <trkpt lat="41.602469060" lon="2.542611660">
        <ele>98.19</ele>
        <time>2015-12-26T09:12:20Z</time>
      </trkpt>
      <trkpt lat="41.602498570" lon="2.542563380">
        <ele>98.19</ele>
        <time>2015-12-26T09:12:21Z</time>
      </trkpt>
      <trkpt lat="41.602590430" lon="2.542261880">
        <ele>98.19</ele>
        <time>2015-12-26T09:12:28Z</time>
      </trkpt>
      <trkpt lat="41.602599900" lon="2.542200780">
        <ele>99.63</ele>
        <time>2015-12-26T09:12:31Z</time>
      </trkpt>
      <trkpt lat="41.602600410" lon="2.542186860">
        <ele>99.63</ele>
        <time>2015-12-26T09:12:32Z</time>
      </trkpt>
      <trkpt lat="41.602633100" lon="2.542150650">
        <ele>99.63</ele>
        <time>2015-12-26T09:12:38Z</time>
      </trkpt>
      <trkpt lat="41.602637040" lon="2.542134810">
        <ele>99.63</ele>
        <time>2015-12-26T09:12:44Z</time>
      </trkpt>
      <trkpt lat="41.602606270" lon="2.541947140">
        <ele>99.63</ele>
        <time>2015-12-26T09:12:51Z</time>
      </trkpt>
      <trkpt lat="41.602555900" lon="2.541732560">
        <ele>98.19</ele>
        <time>2015-12-26T09:12:56Z</time>
      </trkpt>
      <trkpt lat="41.602616670" lon="2.541631810">
        <ele>98.19</ele>
        <time>2015-12-26T09:13:01Z</time>
      </trkpt>
      <trkpt lat="41.602642060" lon="2.541617060">
        <ele>98.19</ele>
        <time>2015-12-26T09:13:02Z</time>
      </trkpt>
      <trkpt lat="41.602839370" lon="2.541540620">
        <ele>98.19</ele>
        <time>2015-12-26T09:13:10Z</time>
      </trkpt>
      <trkpt lat="41.602901650" lon="2.541502140">
        <ele>98.19</ele>
        <time>2015-12-26T09:13:13Z</time>
      </trkpt>
      <trkpt lat="41.603043140" lon="2.541391840">
        <ele>98.19</ele>
        <time>2015-12-26T09:13:19Z</time>
      </trkpt>
      <trkpt lat="41.603290240" lon="2.541288660">
        <ele>100.11</ele>
        <time>2015-12-26T09:13:28Z</time>
      </trkpt>
      <trkpt lat="41.603473720" lon="2.541227390">
        <ele>101.08</ele>
        <time>2015-12-26T09:13:35Z</time>
      </trkpt>
      <trkpt lat="41.603626180" lon="2.541147090">
        <ele>101.56</ele>
        <time>2015-12-26T09:13:41Z</time>
      </trkpt>
      <trkpt lat="41.603811590" lon="2.541043740">
        <ele>102.52</ele>
        <time>2015-12-26T09:13:48Z</time>
      </trkpt>
      <trkpt lat="41.603973950" lon="2.540925970">
        <ele>103.00</ele>
        <time>2015-12-26T09:13:55Z</time>
      </trkpt>
      <trkpt lat="41.604231440" lon="2.540743500">
        <ele>103.48</ele>
        <time>2015-12-26T09:14:06Z</time>
      </trkpt>
      <trkpt lat="41.604375690" lon="2.540638220">
        <ele>104.92</ele>
        <time>2015-12-26T09:14:13Z</time>
      </trkpt>
      <trkpt lat="41.604478960" lon="2.540614670">
        <ele>105.40</ele>
        <time>2015-12-26T09:14:18Z</time>
      </trkpt>
      <trkpt lat="41.604633100" lon="2.540671670">
        <ele>106.84</ele>
        <time>2015-12-26T09:14:26Z</time>
      </trkpt>
      <trkpt lat="41.604689010" lon="2.540548870">
        <ele>106.84</ele>
        <time>2015-12-26T09:14:31Z</time>
      </trkpt>
      <trkpt lat="41.604724720" lon="2.540504200">
        <ele>106.84</ele>
        <time>2015-12-26T09:14:33Z</time>
      </trkpt>
      <trkpt lat="41.604777440" lon="2.540491870">
        <ele>106.84</ele>
        <time>2015-12-26T09:14:40Z</time>
      </trkpt>
      <trkpt lat="41.604799480" lon="2.540470500">
        <ele>106.84</ele>
        <time>2015-12-26T09:14:51Z</time>
      </trkpt>
      <trkpt lat="41.604836450" lon="2.540465140">
        <ele>106.84</ele>
        <time>2015-12-26T09:14:56Z</time>
      </trkpt>
      <trkpt lat="41.604929820" lon="2.540477880">
        <ele>107.32</ele>
        <time>2015-12-26T09:15:01Z</time>
      </trkpt>
      <trkpt lat="41.605170300" lon="2.540467060">
        <ele>108.29</ele>
        <time>2015-12-26T09:15:09Z</time>
      </trkpt>
      <trkpt lat="41.605383530" lon="2.540477120">
        <ele>109.25</ele>
        <time>2015-12-26T09:15:16Z</time>
      </trkpt>
      <trkpt lat="41.605653350" lon="2.540521960">
        <ele>110.21</ele>
        <time>2015-12-26T09:15:25Z</time>
      </trkpt>
      <trkpt lat="41.605859040" lon="2.540592210">
        <ele>111.17</ele>
        <time>2015-12-26T09:15:33Z</time>
      </trkpt>
      <trkpt lat="41.606077050" lon="2.540697060">
        <ele>111.65</ele>
        <time>2015-12-26T09:15:41Z</time>
      </trkpt>
      <trkpt lat="41.606279060" lon="2.540720200">
        <ele>112.61</ele>
        <time>2015-12-26T09:15:48Z</time>
      </trkpt>
      <trkpt lat="41.606386600" lon="2.540754900">
        <ele>113.09</ele>
        <time>2015-12-26T09:15:52Z</time>
      </trkpt>
      <trkpt lat="41.606415850" lon="2.540766880">
        <ele>113.09</ele>
        <time>2015-12-26T09:15:55Z</time>
      </trkpt>
      <trkpt lat="41.606510730" lon="2.540829830">
        <ele>113.57</ele>
        <time>2015-12-26T09:16:01Z</time>
      </trkpt>
      <trkpt lat="41.606611310" lon="2.541037960">
        <ele>114.53</ele>
        <time>2015-12-26T09:16:08Z</time>
      </trkpt>
      <trkpt lat="41.606697980" lon="2.541340460">
        <ele>116.46</ele>
        <time>2015-12-26T09:16:17Z</time>
      </trkpt>
      <trkpt lat="41.606771910" lon="2.541592840">
        <ele>117.42</ele>
        <time>2015-12-26T09:16:24Z</time>
      </trkpt>
      <trkpt lat="41.606844080" lon="2.541831220">
        <ele>119.34</ele>
        <time>2015-12-26T09:16:31Z</time>
      </trkpt>
      <trkpt lat="41.606943410" lon="2.542118380">
        <ele>121.26</ele>
        <time>2015-12-26T09:16:40Z</time>
      </trkpt>
      <trkpt lat="41.607046250" lon="2.542318710">
        <ele>123.19</ele>
        <time>2015-12-26T09:16:48Z</time>
      </trkpt>
      <trkpt lat="41.607064780" lon="2.542364980">
        <ele>123.19</ele>
        <time>2015-12-26T09:16:54Z</time>
      </trkpt>
      <trkpt lat="41.607095960" lon="2.542364560">
        <ele>123.67</ele>
        <time>2015-12-26T09:17:01Z</time>
      </trkpt>
      <trkpt lat="41.607085900" lon="2.542345450">
        <ele>123.67</ele>
        <time>2015-12-26T09:17:08Z</time>
      </trkpt>
      <trkpt lat="41.607059660" lon="2.542325160">
        <ele>124.15</ele>
        <time>2015-12-26T09:17:23Z</time>
      </trkpt>
      <trkpt lat="41.607029570" lon="2.542381740">
        <ele>124.15</ele>
        <time>2015-12-26T09:17:44Z</time>
      </trkpt>
      <trkpt lat="41.607016080" lon="2.542430360">
        <ele>124.63</ele>
        <time>2015-12-26T09:17:57Z</time>
      </trkpt>
      <trkpt lat="41.607028820" lon="2.542440250">
        <ele>124.63</ele>
        <time>2015-12-26T09:18:10Z</time>
      </trkpt>
      <trkpt lat="41.607027310" lon="2.542442180">
        <ele>124.63</ele>
        <time>2015-12-26T09:18:24Z</time>
      </trkpt>
    </trkseg>
  </trk>
</gpx>
